GFSSGP_250_spd_000.txt.gz
Wind_Speed
54 51 48 45 41 37 35 33 32 33 39 41 41 42 41 40 32 30 31 32 37 45 44 38 36 35 36 35 30 28 31 30 30 28 29 32 28 30 32 34 34 38 40 42 41 44 45 45 46
57 55 51 48 43 40 38 35 37 36 39 42 42 43 41 36 31 27 29 31 36 45 44 40 34 35 34 31 26 30 27 28 28 28 26 30 33 35 34 35 38 40 41 43 42 45 45 44 38
56 53 51 49 46 43 40 36 35 34 42 40 45 43 39 34 26 23 27 31 37 46 43 40 38 32 29 29 32 30 27 28 28 26 26 28 32 34 36 39 40 40 44 45 44 44 43 35 29
56 53 49 48 46 43 41 38 33 35 42 42 44 43 37 29 22 22 26 31 39 44 42 42 39 32 29 33 30 26 27 30 29 27 32 33 36 36 38 40 41 44 46 48 45 41 34 28 28
59 54 51 49 47 42 40 37 34 37 41 43 43 40 33 23 21 21 27 33 40 43 44 44 39 34 32 30 32 29 35 31 32 32 33 35 37 39 40 41 44 45 46 46 45 33 26 27 30
59 57 52 48 45 41 40 35 34 36 40 41 39 36 26 21 19 21 28 36 40 45 45 44 38 35 32 32 32 29 33 32 30 32 35 37 38 39 42 44 46 45 44 42 36 26 27 29 31
57 59 56 49 44 40 36 33 32 37 36 37 36 31 21 20 21 24 32 37 39 45 42 38 34 34 35 33 33 33 35 33 34 35 37 38 39 42 42 45 44 42 38 31 25 25 26 29 30
51 55 54 48 41 40 36 33 30 37 36 34 30 26 19 20 23 28 34 39 39 42 38 37 37 39 36 33 33 34 34 35 35 36 37 38 41 42 44 41 42 37 25 22 23 25 27 28 32
41 51 53 47 42 37 37 30 31 34 34 32 29 26 17 20 25 30 36 40 38 40 41 34 39 38 35 35 36 35 36 35 35 37 37 38 40 41 40 40 30 22 21 24 27 27 28 31 34
38 47 51 44 40 36 35 27 31 33 31 29 27 20 19 22 26 33 37 40 37 40 36 36 38 35 36 37 34 33 34 34 36 36 38 39 37 38 30 21 19 21 24 26 28 31 35 37 39
39 45 48 43 39 40 29 28 30 30 28 25 23 19 20 27 29 35 39 40 39 36 37 39 38 36 36 35 33 34 34 35 37 38 37 34 35 26 22 19 22 23 27 28 31 33 36 39 43
38 41 44 42 42 39 29 28 29 27 22 24 23 18 21 30 33 36 39 40 42 37 34 32 32 32 36 33 33 33 35 36 37 35 33 31 24 20 21 23 25 27 29 30 33 36 39 41 42
39 37 45 43 42 39 30 27 27 24 20 24 20 19 21 31 35 34 36 34 32 28 31 30 29 32 32 32 33 36 35 33 32 32 30 23 22 22 23 26 29 32 31 34 37 42 44 47 48
36 38 46 43 42 37 30 26 25 17 22 21 17 20 23 29 30 29 26 28 29 29 31 31 32 31 32 34 35 33 31 32 32 27 23 23 23 26 28 31 34 36 39 42 46 50 53 55 55
36 42 45 42 41 34 27 24 22 14 22 16 16 20 22 20 23 23 26 30 31 32 30 29 32 31 34 33 29 31 32 32 25 25 25 25 26 30 34 38 41 43 46 49 51 53 56 51 54
37 41 43 40 39 32 25 22 20 25 21 16 17 21 19 19 21 22 26 29 32 30 30 31 32 32 28 25 28 30 26 25 24 24 26 29 32 35 39 42 45 48 51 53 54 54 54 57 58
41 41 42 35 37 32 25 22 23 26 22 25 24 23 22 22 22 23 27 30 30 32 33 34 30 25 24 24 27 25 25 27 27 29 31 33 36 39 43 45 48 48 49 53 55 55 56 59 61
42 44 38 36 35 34 27 23 24 28 31 27 29 30 26 25 27 29 32 32 34 34 35 25 24 24 21 21 22 25 27 29 33 35 37 39 42 43 46 47 47 51 54 54 60 62 64 67 66
37 41 38 37 37 31 29 25 29 33 30 30 31 30 31 29 31 34 33 33 33 31 24 24 23 20 21 22 24 27 29 32 34 36 38 40 42 42 44 48 53 55 57 59 63 67 69 73 76
42 49 39 39 36 31 29 27 30 32 32 32 32 34 34 33 33 34 33 32 28 25 25 23 23 22 25 27 30 32 34 35 36 37 38 41 44 45 48 52 57 60 59 63 65 67 70 74 78
49 46 40 40 37 33 26 26 28 27 30 35 36 35 33 31 31 30 29 26 25 25 26 27 29 31 31 33 36 37 38 41 43 43 47 48 49 50 54 59 62 61 64 68 72 76 80 81 84
55 42 42 38 37 32 26 28 28 25 24 29 31 27 25 26 26 27 27 27 27 28 31 34 35 37 38 40 42 42 46 48 48 51 52 56 56 58 60 63 63 64 67 73 76 77 83 86 89
51 48 43 40 37 32 28 29 26 25 30 31 28 28 27 27 28 29 29 29 31 34 36 39 42 43 43 44 45 48 51 53 56 58 58 57 61 66 71 69 71 73 76 80 81 85 86 88 87
52 47 43 42 34 35 31 30 30 27 29 31 29 28 29 29 29 29 31 33 35 38 42 45 48 48 49 50 51 55 57 59 60 63 66 69 70 70 74 78 81 82 82 84 86 90 85 87 77
49 46 43 40 35 35 34 31 31 29 28 30 30 31 31 30 30 32 36 39 42 43 45 46 48 51 53 55 59 61 61 63 64 65 65 70 74 77 80 81 82 83 86 87 88 92 94 82 71
48 47 43 40 38 39 38 35 33 30 29 32 32 33 33 35 36 40 41 44 46 47 50 52 55 57 60 61 61 62 63 65 65 65 70 75 77 81 85 86 87 88 91 90 94 94 90 79 72
50 48 43 43 41 42 41 39 35 36 35 34 34 36 38 38 42 44 45 48 50 52 55 59 63 62 62 65 68 68 68 69 71 77 79 81 83 86 90 92 93 92 93 94 96 93 90 79 76
51 47 45 44 43 43 43 41 38 39 39 40 40 40 41 43 46 48 50 52 55 58 61 64 66 66 69 72 73 76 77 79 82 85 86 88 89 91 92 93 96 98 99 98 100 93 92 83 79
50 48 45 44 44 43 43 44 42 41 43 44 44 45 46 50 52 52 56 59 61 64 66 69 70 72 74 78 81 84 88 89 90 90 91 93 94 96 98 98 102 106 109 105 104 98 88 84 80
49 48 44 42 43 44 45 49 47 46 47 47 46 48 51 57 56 57 60 63 66 68 72 77 77 80 84 87 88 89 90 91 94 97 100 103 104 104 105 109 110 112 112 107 98 94 84 84 82

GFSSGP_250_spd_003.txt.gz
Wind_Speed
60 58 55 52 51 46 45 40 37 35 34 33 29 32 36 38 38 37 37 36 36 39 39 40 43 39 36 31 33 32 30 28 30 30 28 30 31 34 35 37 37 37 37 42 44 43 46 48 51
60 58 58 57 53 51 48 45 42 36 37 35 29 34 38 39 41 38 36 35 34 37 37 39 43 39 36 36 33 30 32 29 27 29 32 31 34 33 37 37 37 40 40 43 44 45 51 52 49
60 60 58 59 55 52 50 49 46 38 37 36 31 36 40 42 41 37 31 29 30 34 35 40 44 39 37 36 31 34 33 27 28 33 32 30 34 34 36 36 38 39 43 45 46 49 48 47 46
65 64 62 61 57 50 48 45 48 39 39 36 34 38 42 43 39 34 24 24 28 29 32 40 43 41 38 34 35 30 31 29 29 28 31 31 32 36 39 41 41 42 44 45 47 49 47 44 40
66 64 61 62 57 52 48 46 43 41 39 35 36 38 42 40 37 29 19 20 26 25 32 41 44 43 39 34 31 30 30 31 30 31 33 34 36 38 39 39 42 43 44 47 46 46 45 40 31
57 64 67 66 59 53 50 47 42 41 39 35 37 39 42 38 35 24 16 18 22 24 31 41 43 41 38 34 30 29 32 30 32 34 34 36 38 40 41 42 43 46 46 45 41 40 33 26 27
50 55 62 63 61 61 53 45 41 40 37 35 37 37 40 34 30 19 14 17 22 24 34 39 41 40 41 35 32 34 34 32 34 36 37 36 40 42 42 44 44 46 45 40 37 24 24 26 29
39 44 51 58 57 59 46 45 41 39 35 35 35 39 33 32 27 18 15 19 24 26 35 39 42 42 38 34 36 36 35 34 38 38 37 40 41 41 44 45 44 42 40 31 23 25 29 29 30
32 33 42 50 54 49 51 48 38 36 33 35 33 35 29 30 24 18 17 21 26 32 34 40 43 37 35 34 35 34 34 38 39 38 37 38 41 41 43 42 39 37 22 22 25 28 29 30 33
31 27 33 38 47 51 52 40 34 34 34 34 30 31 28 29 21 18 20 24 28 32 35 39 38 33 35 35 36 35 39 40 40 38 38 39 41 40 41 38 34 25 25 25 28 31 31 32 35
34 34 30 28 39 47 47 37 36 32 34 29 30 30 26 24 20 19 22 26 28 32 33 36 36 32 34 37 39 41 37 39 36 36 38 39 40 39 36 32 27 26 27 29 31 32 32 35 38
36 32 30 26 35 44 42 38 33 33 31 26 29 28 24 21 19 21 24 27 30 32 31 34 37 33 33 35 37 38 36 35 34 37 38 38 36 35 33 27 25 27 28 30 32 34 38 40 44
36 36 26 28 31 39 41 35 37 33 27 25 28 23 21 17 19 22 23 28 32 31 32 35 35 32 31 31 32 32 34 34 36 38 37 33 34 34 28 28 29 31 34 35 38 40 44 47 50
45 40 31 30 32 39 36 37 35 29 23 28 23 21 18 16 18 21 23 29 29 31 35 37 32 33 26 28 30 32 33 35 36 34 35 36 32 28 29 31 33 34 38 42 44 45 49 50 51
41 42 35 30 30 35 37 37 32 26 25 29 19 19 17 15 16 17 25 29 31 32 31 30 27 26 28 31 32 33 35 34 33 34 34 30 29 30 30 34 36 39 42 45 46 47 48 50 53
39 36 27 23 31 37 36 33 27 27 29 26 21 18 15 12 14 22 29 31 31 29 30 29 27 30 33 33 33 32 29 31 32 29 30 29 30 32 35 39 42 45 46 47 48 46 49 53 54
40 35 28 25 34 37 33 30 28 26 29 28 20 13 13 17 22 24 25 27 29 31 31 29 31 35 33 32 28 28 28 27 27 28 30 32 35 37 41 44 47 48 50 49 48 52 56 58 58
39 34 31 28 37 33 31 29 29 27 31 26 19 21 23 22 21 22 25 29 30 31 29 30 34 35 35 30 27 28 26 24 28 30 31 33 37 41 44 46 48 50 50 53 55 57 61 62 62
40 35 32 33 38 29 25 27 29 27 28 27 26 29 27 26 27 28 30 30 32 33 33 33 36 35 32 30 28 27 29 30 33 34 37 39 41 43 45 47 49 51 53 56 59 62 66 67 68
43 39 33 33 37 31 24 26 29 27 28 31 28 30 33 33 33 35 35 36 34 33 33 34 35 31 31 32 30 29 33 37 40 42 44 44 44 46 49 52 55 57 58 63 65 70 70 75 77
44 39 34 35 36 27 24 25 30 29 30 32 32 34 36 37 39 40 37 34 32 33 35 33 31 33 33 34 34 37 40 44 47 48 48 49 50 52 55 58 61 60 62 66 69 72 75 76 80
44 41 37 38 36 30 28 28 30 32 31 30 35 37 36 35 34 35 35 36 35 33 31 32 35 36 36 38 41 43 47 51 53 54 53 56 59 61 62 62 64 64 63 67 69 73 77 81 80
47 45 39 39 31 32 26 28 31 33 29 29 32 35 34 36 35 31 30 29 30 32 34 37 37 39 41 45 47 51 53 55 56 57 59 63 66 66 67 69 68 65 66 69 73 77 80 83 81
51 43 39 38 32 32 29 28 34 29 26 26 25 29 30 28 30 30 31 33 33 36 38 38 41 44 48 51 54 56 58 60 62 63 66 69 70 69 71 70 70 77 79 83 82 83 85 87 87
43 41 36 37 33 31 32 32 34 29 27 26 28 29 30 30 31 32 33 33 35 37 40 43 47 51 55 57 58 59 60 63 66 69 71 70 74 74 76 76 78 82 83 87 88 87 90 91 95
46 41 39 37 38 38 36 34 34 33 30 30 29 31 33 33 34 35 37 38 41 44 47 51 54 58 60 61 62 65 68 72 74 73 73 77 78 81 83 85 88 89 91 92 94 97 100 101 102
40 43 40 39 42 41 37 36 37 38 35 36 34 34 36 35 36 38 42 44 48 53 55 57 60 61 63 66 68 71 74 76 77 78 80 82 85 88 90 93 93 95 98 97 101 105 106 106 105
47 42 41 44 45 42 41 38 40 41 41 39 38 40 40 42 43 45 47 50 54 56 59 62 64 66 68 71 73 75 78 81 83 85 88 90 92 93 94 97 98 99 103 109 111 112 112 109 109
44 44 44 45 46 44 45 41 42 45 45 44 44 45 48 50 50 51 53 57 59 60 64 68 69 71 74 75 78 81 84 88 90 92 95 97 99 101 103 104 107 110 112 114 121 116 113 111 114
42 44 45 46 46 46 46 44 45 46 45 46 48 49 51 54 56 57 59 62 63 67 71 74 76 79 82 85 89 92 95 98 100 102 104 107 108 111 114 116 116 119 122 122 122 121 117 115 112

GFSSGP_250_spd_006.txt.gz
Wind_Speed
60 58 60 58 57 53 48 44 42 45 41 34 33 35 33 30 34 39 40 40 41 41 42 44 45 45 44 39 37 35 32 31 32 29 30 34 32 31 33 35 38 41 39 39 41 42 46 47 49
63 62 61 61 62 60 52 49 52 48 46 40 39 39 36 34 37 41 43 43 43 40 41 43 45 44 43 39 38 31 32 37 34 33 31 33 32 32 35 38 41 40 46 44 42 46 46 48 50
67 66 67 67 65 63 54 55 56 52 46 46 44 43 41 37 39 42 45 46 42 38 38 40 41 41 41 40 39 34 33 35 34 35 35 31 33 37 36 39 40 43 43 41 44 45 47 49 50
69 68 66 69 66 63 58 56 55 54 51 47 42 43 43 39 41 43 47 46 39 35 35 37 39 39 40 40 38 38 36 35 34 36 32 31 32 36 38 40 42 41 41 44 46 47 49 48 49
63 68 70 69 68 64 60 59 55 53 51 44 44 40 42 40 43 44 45 45 38 32 32 33 34 37 41 40 38 39 39 34 34 36 35 32 35 36 39 40 41 41 43 45 46 47 47 45 44
60 65 67 67 68 66 65 62 59 54 49 43 42 41 40 39 43 42 44 40 35 28 28 30 32 38 42 40 38 35 33 36 35 36 33 35 37 39 39 41 41 44 46 47 47 46 43 41 36
50 54 61 64 65 67 64 63 58 57 55 48 44 40 38 40 42 42 42 37 32 25 26 27 31 39 43 42 40 36 34 33 33 34 35 36 38 41 41 41 43 46 48 47 46 43 39 34 33
39 43 48 55 56 58 63 63 63 60 59 50 47 41 38 40 41 42 38 34 28 23 23 25 31 39 44 43 41 37 39 35 35 36 37 37 40 39 41 43 44 43 44 45 42 36 31 30 32
35 34 40 47 47 49 55 60 60 57 55 49 44 40 37 40 39 39 33 29 24 21 22 25 31 39 41 42 38 35 38 38 37 38 38 38 40 40 42 40 41 41 44 41 34 31 30 32 34
33 31 31 31 35 40 46 51 52 52 51 45 41 35 38 38 36 37 30 25 22 21 22 26 33 39 39 41 39 36 36 35 37 38 41 42 44 41 41 39 41 43 40 37 32 32 33 35 36
33 30 28 23 24 29 35 44 45 50 45 39 38 38 39 36 35 33 25 23 22 21 22 27 33 38 38 38 34 34 35 40 41 43 42 40 39 39 39 41 42 38 37 33 32 34 35 37 38
35 34 28 25 27 30 31 34 44 45 42 40 34 38 39 34 33 30 23 22 23 23 25 28 33 35 36 34 31 33 37 40 40 38 39 40 40 40 42 41 38 38 34 33 36 38 39 40 41
39 36 32 27 27 28 31 32 37 40 37 38 37 39 35 30 29 27 19 22 24 26 28 31 32 33 35 32 30 35 38 38 38 37 38 40 41 43 39 38 35 30 34 38 37 39 41 43 45
40 37 35 28 30 28 29 29 36 33 38 40 35 36 32 28 27 23 20 24 26 29 30 31 31 33 32 33 35 32 31 32 35 36 39 41 42 39 39 33 32 33 38 39 41 43 45 46 46
39 39 38 34 34 31 31 31 32 36 39 34 34 33 29 25 26 23 23 24 24 29 30 28 30 33 33 30 32 32 35 38 38 39 41 39 36 36 33 34 36 38 41 43 45 48 50 49 49
44 41 38 36 32 32 32 28 33 38 39 32 32 30 27 27 28 26 23 21 25 30 28 28 30 30 30 29 31 35 38 40 40 39 36 37 36 32 34 37 40 43 46 49 51 51 51 53 51
41 42 36 35 30 31 30 28 32 35 33 30 31 30 28 30 26 23 20 23 28 29 29 29 30 29 30 33 36 39 41 41 39 37 35 34 33 36 38 41 45 47 50 52 53 53 52 55 58
48 38 38 34 36 34 32 32 28 30 28 25 29 29 30 28 26 23 22 25 28 30 29 28 29 29 32 37 38 41 43 41 39 37 34 34 36 39 42 45 48 49 50 54 55 56 60 61 63
43 40 38 37 37 30 33 35 31 30 25 26 28 29 30 28 27 24 25 25 26 26 26 27 33 35 38 40 39 41 43 41 40 38 39 40 42 45 47 50 52 53 53 55 58 62 65 68 65
48 44 39 40 38 34 32 35 28 31 26 25 27 30 31 32 30 28 28 27 27 28 30 32 36 39 41 43 43 42 40 42 42 42 44 45 49 52 54 55 57 58 60 61 64 66 68 71 73
50 47 45 41 37 33 34 37 27 28 29 26 27 31 32 35 36 34 33 33 33 33 35 37 38 40 42 44 43 42 43 45 46 47 48 51 55 58 60 61 63 64 66 68 70 72 74 74 75
53 49 46 42 40 38 33 31 28 26 29 26 28 33 35 38 40 39 39 39 39 38 39 41 44 46 46 44 43 45 48 49 51 53 55 59 61 63 64 65 66 70 74 76 75 76 77 79 79
58 50 48 44 43 38 33 30 26 29 30 29 29 33 36 37 38 38 39 39 39 40 45 45 44 43 43 44 46 50 51 52 54 58 61 65 68 68 69 71 73 75 78 80 79 82 82 85 85
56 52 50 46 44 39 30 31 29 31 33 29 29 31 32 34 35 39 40 40 43 40 39 39 41 42 45 48 51 53 54 56 60 63 67 70 72 74 75 78 80 82 84 82 86 88 90 91 93
57 51 49 49 47 43 37 31 32 33 33 28 30 32 32 33 33 33 35 37 37 38 40 43 44 45 47 50 52 55 60 64 67 71 73 75 78 80 83 84 85 86 87 90 92 94 97 99 100
58 54 51 48 49 46 42 33 32 33 35 30 35 35 31 31 31 34 37 37 39 42 45 46 47 49 52 55 59 63 67 71 74 76 79 81 82 84 86 88 90 93 95 97 99 101 103 106 108
54 47 48 47 49 47 40 35 36 35 35 35 37 38 36 35 37 38 39 41 43 46 48 50 52 55 58 62 66 70 73 76 79 81 83 85 87 89 92 95 97 100 103 104 106 108 110 110 111
56 50 45 48 48 46 40 38 41 36 36 39 41 41 40 42 42 43 44 45 49 51 54 57 59 62 65 69 72 76 79 81 84 86 90 93 96 98 102 104 105 106 109 110 112 113 115 118 119
57 52 44 50 45 48 42 42 43 38 39 40 43 46 47 48 47 47 49 52 55 58 61 62 65 68 71 74 77 81 84 88 90 94 97 99 102 104 107 109 112 115 117 120 122 124 126 127 126
56 51 45 45 48 46 44 45 44 43 43 43 45 48 51 52 52 54 56 58 60 61 64 68 71 75 78 82 85 88 91 95 99 102 105 108 110 113 116 120 123 125 127 129 131 132 133 130 126

GFSSGP_250_spd_009.txt.gz
Wind_Speed
59 58 56 56 55 54 53 48 44 45 43 39 39 39 40 38 38 39 38 38 39 39 42 45 47 48 50 50 49 48 44 42 41 39 39 39 38 41 42 41 37 41 42 44 43 45 47 47 47
61 58 59 61 60 60 55 51 53 54 47 44 46 43 44 45 43 44 44 42 43 44 45 47 48 47 49 49 47 46 42 41 37 37 35 36 35 34 34 38 42 41 43 44 44 42 46 44 46
65 63 63 64 65 60 55 54 55 57 56 51 52 48 47 48 48 48 47 45 46 48 50 50 48 45 45 46 45 43 39 36 30 36 39 39 35 37 36 37 39 43 44 44 43 44 46 46 48
74 71 74 71 67 60 59 60 60 58 57 55 57 55 52 51 49 48 46 46 46 51 52 49 46 43 42 42 43 41 38 37 32 35 37 38 37 38 34 34 36 41 43 44 44 44 45 47 49
72 68 70 74 70 65 65 61 64 62 57 59 59 54 51 51 49 48 46 44 47 52 51 48 44 43 40 40 39 39 39 39 38 36 36 34 35 39 38 37 40 40 44 44 44 46 48 49 52
67 68 65 67 69 69 66 66 63 62 62 61 59 59 52 49 47 47 45 45 49 52 50 45 42 40 38 38 39 38 40 38 40 38 34 33 35 37 35 39 42 43 44 43 45 48 49 50 48
59 62 64 69 66 63 60 62 63 65 61 62 63 60 57 49 50 47 46 47 49 49 46 41 37 35 34 36 39 39 40 38 35 36 35 35 37 37 37 38 41 45 45 45 47 47 46 44 44
54 57 61 63 58 57 58 59 63 64 65 65 63 63 57 49 49 51 48 48 48 45 42 37 33 32 33 35 40 39 39 40 36 35 31 35 35 37 41 40 41 44 45 46 46 45 45 42 37
42 47 47 44 45 49 51 53 55 59 60 62 61 58 54 54 54 50 48 47 47 42 38 32 31 30 32 36 40 41 41 38 36 40 41 37 36 37 40 44 45 45 44 45 44 44 41 36 36
34 30 33 38 40 43 44 46 49 50 50 52 55 55 54 50 48 45 47 46 46 40 34 30 30 28 31 37 41 43 43 35 36 38 41 44 42 44 46 44 44 42 42 42 43 40 37 35 36
34 32 27 31 36 33 30 36 42 40 42 48 47 47 47 45 45 44 45 46 42 38 32 29 30 29 32 36 40 43 43 42 36 37 39 41 43 44 45 44 42 42 43 44 39 39 35 35 39
34 29 28 28 27 31 28 28 27 30 34 37 41 40 42 42 42 43 43 45 40 38 32 28 29 29 32 37 39 41 42 39 40 39 38 41 43 45 41 43 43 45 43 40 39 35 34 38 41
37 32 32 27 25 27 26 19 25 29 30 30 35 38 41 41 42 42 42 43 40 36 31 27 27 30 32 36 37 38 37 36 37 38 39 40 43 40 41 45 46 44 41 37 34 34 37 41 44
38 36 33 31 28 26 24 23 27 22 26 27 34 36 39 42 41 40 41 41 37 33 30 28 29 31 32 34 38 39 37 36 36 36 37 36 40 42 46 47 45 43 38 36 37 39 42 45 48
39 38 34 29 31 27 26 25 26 25 28 28 30 35 41 42 39 39 38 37 34 32 30 30 28 30 33 35 37 38 38 39 37 35 38 40 43 45 48 45 43 39 39 40 41 45 47 51 53
41 40 38 34 33 29 32 26 30 34 30 29 28 35 40 38 38 36 34 36 33 31 30 29 30 30 31 32 33 34 33 38 37 37 40 44 45 44 45 45 42 41 42 45 48 50 53 54 55
42 41 41 36 37 34 31 26 32 33 29 27 27 37 38 37 34 31 33 35 32 31 30 28 29 31 32 30 31 32 35 36 38 40 43 45 46 46 45 45 43 44 47 50 52 55 55 57 58
44 46 38 36 35 36 32 29 31 33 30 31 29 33 34 34 32 29 32 34 33 31 29 27 29 29 30 31 33 36 37 40 45 45 47 48 48 48 46 48 48 49 52 55 56 58 62 64 64
50 44 43 40 37 35 33 30 33 38 32 31 32 27 30 32 30 29 31 33 33 30 30 28 27 28 29 32 35 39 41 45 46 48 49 52 50 50 48 50 53 54 56 59 62 64 66 70 72
50 47 46 42 40 37 34 35 32 38 33 31 29 29 30 30 29 27 32 32 32 29 28 26 27 29 32 35 39 42 45 48 49 50 54 52 52 52 51 53 56 60 62 65 69 70 71 71 75
50 51 49 46 43 41 37 37 34 35 35 33 29 30 28 28 29 28 32 35 35 34 32 31 32 35 38 41 44 45 48 50 52 54 53 52 54 56 57 59 62 64 67 71 74 76 76 77 81
49 55 52 47 46 44 38 38 38 38 37 33 32 32 33 30 29 32 33 37 41 40 39 39 39 41 42 45 47 49 52 55 55 53 53 55 59 60 63 65 68 71 73 77 80 82 83 86 86
59 58 53 48 47 45 41 39 39 41 38 33 33 31 33 31 31 34 35 34 38 44 45 44 43 44 46 48 54 55 53 51 51 53 57 60 62 65 67 70 73 77 81 83 86 89 91 93 95
57 57 53 48 46 42 43 42 44 44 39 37 34 31 32 31 32 33 34 34 37 41 43 43 43 46 49 46 46 48 50 52 54 56 59 62 66 70 73 77 81 84 87 90 92 94 96 97 99
58 58 55 49 45 46 45 43 46 46 42 36 35 36 34 32 31 33 37 38 37 37 38 41 43 43 44 47 49 51 53 55 58 62 65 69 74 77 81 83 87 91 93 94 96 98 101 104 106
65 61 58 53 49 50 46 44 45 47 44 39 37 36 36 34 31 35 39 37 35 36 37 40 42 45 49 51 53 56 58 61 65 69 73 76 80 84 87 90 93 95 98 100 103 105 107 108 109
64 61 61 55 51 50 49 52 47 51 49 44 38 35 33 34 35 36 40 41 39 40 43 46 48 51 53 55 57 60 63 67 71 74 78 81 85 89 92 96 98 102 105 109 111 112 113 116 118
62 65 59 55 53 52 48 50 48 52 52 48 43 38 36 36 36 39 44 44 44 47 48 49 51 54 57 60 64 66 69 73 77 81 85 89 93 95 98 102 106 110 113 116 120 122 125 125 128
65 64 61 58 56 55 52 52 54 52 52 48 45 42 42 38 40 45 46 48 50 51 52 54 58 60 63 66 69 72 75 80 84 87 92 96 101 105 108 111 114 118 122 126 129 133 135 137 137
65 62 59 57 57 53 52 52 54 56 57 53 46 45 46 43 46 48 50 52 53 55 57 58 61 63 67 70 75 79 84 88 93 97 101 105 107 111 115 119 124 127 131 133 136 137 140 140 140

GFSSGP_250_spd_012.txt.gz
Wind_Speed
61 62 61 58 58 58 55 51 47 45 45 45 42 40 41 42 41 38 38 39 39 41 43 43 44 44 45 48 49 51 52 53 51 48 45 43 43 42 41 40 42 44 45 43 46 46 47 45 45
62 63 63 60 62 58 53 50 50 49 49 49 47 47 48 45 47 47 44 43 42 47 49 47 46 46 48 50 49 48 49 49 47 45 42 41 41 41 35 35 36 38 39 41 44 47 44 45 45
65 65 67 66 63 60 56 54 52 52 53 52 49 50 51 53 52 53 51 52 48 49 51 51 47 48 49 51 48 45 46 45 43 42 39 39 36 35 38 39 37 38 39 41 41 43 43 44 44
69 71 70 63 63 61 56 52 55 56 54 54 54 53 54 56 54 54 54 53 52 51 51 51 49 50 52 51 47 43 41 41 40 38 32 28 34 36 36 40 39 41 42 40 41 42 43 44 43
71 71 71 72 63 61 57 57 63 61 58 58 59 60 58 59 55 53 49 49 49 49 50 51 52 53 54 50 45 40 38 38 38 33 37 30 36 34 38 38 38 41 41 43 43 44 44 44 45
72 75 77 76 68 63 66 64 63 66 66 62 66 67 62 58 59 59 57 54 51 51 53 53 54 55 54 48 42 36 36 38 36 36 38 38 36 38 36 37 38 40 44 43 44 46 46 45 46
72 67 66 65 66 65 71 64 58 57 62 64 68 63 59 60 60 60 59 57 57 55 55 56 56 55 52 45 39 34 36 37 37 38 39 37 41 38 39 42 40 38 40 41 42 43 43 43 43
61 62 64 65 61 66 63 63 64 61 63 64 65 63 61 60 61 61 59 59 56 55 55 57 55 54 50 43 36 33 37 37 39 38 35 36 36 38 38 35 36 40 42 44 43 42 41 39 39
52 54 54 53 52 53 55 57 56 57 58 60 60 60 59 60 63 62 60 58 55 58 54 56 53 52 47 42 35 33 37 39 40 38 38 36 39 41 42 41 41 45 46 45 44 40 40 41 39
48 49 49 48 47 48 48 49 50 50 50 53 52 54 53 54 55 56 56 56 56 50 50 52 51 48 43 39 35 34 38 39 40 37 39 38 36 39 43 44 48 48 46 46 44 44 44 42 39
44 47 42 43 43 46 44 42 43 46 47 44 44 43 44 45 45 45 49 50 50 48 50 48 47 43 40 35 34 34 37 40 40 43 40 33 37 39 40 45 47 47 49 47 45 44 46 42 41
45 45 40 34 32 34 38 41 38 35 30 29 36 37 38 40 40 39 42 46 46 45 45 47 43 41 39 34 34 34 37 41 43 42 44 40 41 41 43 45 48 49 47 46 46 47 42 41 36
43 42 41 33 30 29 32 31 29 27 18 33 36 37 38 39 35 36 38 41 43 41 44 43 41 38 36 33 33 34 36 38 40 42 38 40 45 43 44 44 45 47 48 49 47 42 39 37 38
41 41 35 35 32 27 26 26 33 19 30 31 34 34 38 33 32 32 36 41 39 40 43 41 38 37 35 33 33 33 34 37 38 36 39 40 40 42 41 44 47 49 49 50 46 45 40 41 41
38 35 33 35 29 26 27 28 27 25 29 31 31 31 34 26 26 29 34 36 39 41 41 39 37 35 33 33 32 33 35 37 38 42 41 43 42 42 43 48 49 49 52 50 48 45 44 45 46
38 35 34 33 30 27 27 22 29 30 32 32 33 31 30 22 23 28 31 35 38 38 37 37 35 33 32 32 31 34 34 37 39 40 41 43 45 45 47 50 52 52 53 53 50 47 48 50 51
38 38 37 31 30 30 28 21 29 30 28 29 30 28 26 23 25 26 31 33 37 36 35 35 33 32 31 31 31 32 32 34 36 36 41 44 45 48 50 53 55 55 55 55 54 52 52 55 58
47 45 40 35 32 32 31 26 30 29 31 30 26 28 23 26 26 30 37 35 35 34 32 33 31 29 30 30 30 32 33 33 35 39 42 43 47 50 52 55 57 59 56 58 57 57 59 61 63
48 43 42 38 34 33 29 29 29 31 30 30 28 27 26 25 26 28 33 33 32 32 32 33 30 28 28 29 30 31 32 35 37 40 45 48 51 52 54 55 60 58 57 60 61 62 64 68 70
48 47 44 40 37 38 31 31 30 32 30 30 30 27 28 24 27 30 32 33 31 30 31 32 31 29 28 28 30 32 35 39 42 45 48 52 54 55 57 60 59 58 60 64 66 68 69 73 77
51 45 41 42 39 40 34 33 32 32 32 32 30 27 29 27 30 33 32 32 32 28 30 34 34 33 32 33 35 37 40 43 47 49 50 53 57 59 59 58 59 60 64 68 71 73 76 78 82
55 50 44 43 42 42 35 37 34 34 34 35 35 29 33 30 33 35 35 33 33 30 32 33 37 39 39 40 41 44 45 48 50 52 55 55 55 55 57 59 62 66 70 73 75 78 82 84 86
62 51 50 47 44 43 39 36 38 37 38 38 38 31 31 32 32 33 33 32 35 35 34 33 35 40 44 44 45 47 49 51 54 53 54 56 59 61 63 66 69 72 75 79 82 87 90 92 95
59 52 50 47 44 41 42 38 43 38 41 42 41 37 34 34 34 32 31 33 36 35 33 33 35 40 42 45 46 46 50 52 52 55 58 60 62 64 67 71 74 78 81 84 87 91 95 99 102
57 53 51 47 44 46 43 38 46 43 42 44 44 41 38 39 38 36 39 39 39 34 32 33 34 37 40 42 44 46 48 51 55 59 60 63 67 70 74 77 81 84 87 91 94 98 102 105 107
60 57 51 48 46 47 45 44 49 47 44 45 45 45 39 43 44 42 43 41 39 37 33 34 38 38 40 42 44 47 52 54 57 61 65 68 71 75 78 83 87 92 96 99 103 106 110 114 117
63 58 58 50 48 48 48 49 53 51 47 48 49 49 45 45 46 47 45 38 36 37 38 39 41 42 44 46 48 51 55 58 61 65 68 73 76 80 85 89 93 98 103 108 110 113 116 121 125
64 63 55 52 54 54 52 53 54 52 51 51 51 53 50 49 50 49 49 43 40 40 41 43 45 47 50 52 55 58 60 63 66 71 75 80 85 88 92 97 102 107 110 113 117 121 124 127 129
68 63 61 60 58 56 57 57 57 55 54 54 54 53 54 52 54 54 50 49 46 44 46 48 50 53 55 58 60 62 65 69 74 78 82 86 90 95 100 104 107 110 112 115 115 120 124 128 135
70 65 62 61 60 61 60 61 58 58 56 55 54 54 56 59 59 59 55 53 50 49 52 55 55 56 59 62 65 69 73 76 80 84 88 94 98 101 101 105 106 108 112 118 122 125 130 134 137

GFSSGP_250_spd_015.txt.gz
Wind_Speed
62 67 61 59 56 56 53 42 39 40 41 43 46 44 41 40 40 40 38 39 40 41 40 38 40 42 42 43 44 45 45 47 49 49 49 49 48 47 45 43 40 41 41 40 38 39 40 43 45
67 62 61 61 60 57 54 51 47 47 48 49 46 48 47 44 41 42 43 46 45 47 47 47 47 50 47 47 47 47 48 48 50 47 46 46 45 44 42 40 39 39 35 35 35 37 39 41 42
72 70 63 59 60 59 56 51 50 49 49 48 49 50 50 50 46 46 44 45 48 52 53 52 50 48 49 47 46 48 51 51 50 44 43 42 42 41 38 37 35 34 38 39 38 39 39 38 40
70 75 72 68 64 57 55 48 54 56 53 51 55 54 54 53 50 50 49 49 47 48 47 47 47 47 47 46 47 51 53 53 49 41 39 39 40 38 33 31 36 35 37 39 41 38 39 40 41
72 73 71 70 68 64 57 52 56 57 54 54 55 53 56 55 51 51 53 54 56 54 55 54 54 51 53 55 54 53 54 53 47 37 38 38 37 30 24 35 32 35 39 37 36 40 40 39 39
76 75 75 72 69 63 57 57 61 60 55 55 60 58 57 57 59 60 60 58 56 56 56 57 56 56 57 55 54 55 54 51 44 35 37 37 32 34 30 33 33 36 38 37 40 38 41 40 39
76 76 75 72 70 64 59 62 65 66 63 62 64 66 64 59 58 58 60 58 60 60 57 58 58 58 58 57 57 55 53 47 37 33 37 35 34 35 37 38 36 38 39 41 40 42 43 42 39
69 72 71 71 66 64 63 64 68 72 69 66 65 66 65 59 60 61 62 63 64 62 60 58 59 58 55 55 52 53 49 41 34 34 35 37 36 36 37 41 45 43 39 38 41 42 45 43 41
59 65 65 66 67 62 64 67 66 66 62 65 66 62 63 62 61 62 62 62 59 58 58 56 56 54 50 49 50 49 44 36 32 33 37 37 36 33 34 38 38 42 43 46 47 48 49 45 44
55 58 60 60 62 60 64 65 60 59 60 58 56 54 55 57 57 57 55 54 53 52 53 51 52 49 46 47 48 46 40 35 33 34 39 39 37 35 37 39 42 40 42 45 46 50 48 47 43
52 52 53 53 54 55 55 53 51 50 52 52 51 53 51 48 49 49 49 49 48 46 44 43 44 42 43 45 45 40 36 34 34 36 41 42 39 40 37 37 37 39 43 45 48 50 48 46 47
53 53 49 46 46 50 47 47 48 48 44 44 45 44 41 40 42 43 42 43 42 39 33 36 39 40 42 43 42 38 35 32 33 37 40 40 42 42 43 41 42 46 46 47 47 47 48 48 49
53 53 47 44 43 43 42 44 47 46 40 41 38 34 35 38 40 40 39 40 37 29 26 34 37 38 41 41 38 36 33 32 34 34 39 43 45 46 50 48 51 50 48 49 48 48 50 50 48
56 53 49 45 44 40 34 35 43 33 36 40 37 33 31 33 35 34 35 33 28 24 27 33 37 37 40 38 36 35 32 33 34 36 37 40 43 47 50 47 46 48 50 50 50 50 52 53 49
55 51 48 47 47 41 36 33 29 29 33 34 36 32 30 31 33 31 30 22 19 22 25 31 36 37 36 35 33 33 33 33 34 35 37 40 43 45 44 48 50 51 49 53 54 54 54 55 53
55 50 49 47 48 42 36 28 28 31 31 32 29 29 30 32 30 26 20 17 19 23 28 32 34 35 33 30 30 31 32 33 34 35 39 42 44 45 47 50 51 52 53 54 57 57 56 58 56
54 50 48 48 39 34 32 29 25 28 30 28 28 28 26 26 26 20 18 19 22 27 30 34 35 34 29 27 28 29 33 33 33 35 38 40 42 42 44 48 51 51 53 56 56 59 58 60 57
54 54 47 47 34 31 30 28 28 27 25 24 24 26 26 28 22 18 21 22 25 26 30 33 35 33 29 28 26 26 30 32 33 35 37 38 40 42 45 48 50 55 58 59 59 60 61 59 58
60 52 46 41 35 34 29 31 30 28 22 21 20 22 25 28 20 20 21 22 24 27 29 31 33 30 29 28 27 26 26 28 30 33 35 38 41 43 46 50 54 57 58 60 63 62 60 61 61
59 53 48 41 37 35 31 30 28 27 23 20 20 21 24 26 22 23 25 23 25 27 29 30 31 30 29 28 29 28 27 29 31 33 36 39 44 47 50 53 56 60 62 62 61 60 62 66 70
59 56 50 42 37 33 34 33 31 29 25 23 21 21 23 26 24 24 27 25 27 31 32 33 34 32 30 31 32 32 33 35 37 39 43 46 49 51 55 56 54 55 58 61 63 65 67 69 75
61 60 50 41 37 36 36 36 35 31 27 25 27 25 24 27 26 27 31 29 29 28 31 34 36 33 33 32 35 38 40 42 43 46 48 49 51 54 53 55 58 61 63 65 68 71 74 76 79
65 58 48 41 37 37 39 38 36 30 28 30 31 31 32 32 31 28 32 33 30 30 34 34 34 35 33 33 35 37 40 43 46 49 49 51 53 53 56 60 63 66 68 71 73 77 80 83 86
66 53 49 44 40 38 35 37 35 33 32 32 34 32 33 35 36 32 31 35 34 34 34 35 34 35 33 34 35 37 39 42 45 47 49 51 54 58 61 64 67 69 71 75 79 83 86 90 95
58 54 50 46 43 43 37 37 39 35 35 37 36 34 35 38 39 39 34 32 36 37 39 38 36 36 38 36 34 36 39 42 45 48 51 55 58 61 65 67 70 73 77 81 85 90 95 99 102
61 56 52 49 47 44 39 39 41 38 37 39 40 38 38 40 43 44 40 36 35 40 44 42 43 40 39 37 39 41 42 45 49 53 56 59 63 67 71 73 77 82 86 90 94 97 102 106 110
59 51 57 54 49 47 43 43 43 42 41 40 42 41 41 42 45 49 50 45 42 43 45 47 48 46 44 43 44 47 50 53 57 60 62 65 68 72 76 80 84 89 92 96 100 104 107 109 110
60 59 54 52 52 50 47 47 45 43 43 44 45 46 47 45 48 50 52 52 49 47 50 53 53 53 52 50 50 52 56 59 62 64 66 70 74 78 81 85 89 94 98 102 105 107 106 107 111
68 62 59 58 54 52 52 54 51 48 46 47 48 50 51 52 52 53 54 53 52 53 53 54 59 59 57 57 58 59 62 65 68 69 72 75 78 82 87 91 95 100 104 105 104 105 108 113 118
70 68 63 59 56 58 58 58 57 52 50 51 53 55 56 56 56 55 56 55 56 56 57 57 60 61 61 64 65 67 70 68 68 72 76 80 85 89 92 97 100 102 101 104 105 110 112 117 124

GFSSGP_250_spd_018.txt.gz
Wind_Speed
64 59 60 62 58 54 55 51 49 48 45 43 43 42 41 39 40 39 36 34 36 37 37 39 41 43 43 42 45 48 46 45 44 45 48 51 51 53 52 50 49 47 40 38 41 40 40 39 38
67 64 60 58 62 62 54 50 49 52 50 44 44 44 43 43 42 41 41 38 36 37 40 41 44 48 50 49 48 45 43 44 44 46 50 51 51 52 50 46 44 40 37 39 37 39 37 36 36
70 70 66 63 58 64 61 53 54 54 52 47 45 47 46 42 45 47 47 44 43 40 41 43 41 43 46 47 43 44 45 46 49 52 51 52 50 48 45 43 41 37 36 34 35 38 38 40 40
76 72 72 69 67 62 53 63 64 59 56 54 53 52 47 47 46 48 51 48 46 44 44 46 47 45 48 49 52 52 51 51 54 52 53 52 48 43 40 41 38 34 33 33 38 37 40 41 39
77 77 75 73 72 71 66 62 54 54 55 56 53 53 51 50 49 51 50 48 47 49 51 51 50 53 55 54 54 55 55 56 55 55 52 51 43 38 37 38 35 31 32 36 38 39 38 35 40
79 79 77 75 74 71 68 67 60 60 58 57 56 53 50 50 50 51 50 50 51 54 53 54 57 59 61 58 57 57 55 56 53 50 48 46 38 35 37 36 28 27 35 38 38 40 38 40 41
78 80 79 79 76 71 72 72 70 69 63 61 60 57 54 56 54 54 56 54 57 57 59 60 63 63 64 63 57 58 55 53 48 47 46 40 34 35 38 30 35 34 39 37 39 37 43 44 42
64 72 76 77 73 72 69 69 70 70 67 63 59 58 60 57 56 58 59 61 64 67 68 63 64 65 65 61 57 55 52 50 46 45 42 35 33 35 36 33 38 40 43 45 47 48 44 43 45
58 61 68 80 76 73 70 67 68 70 67 65 61 61 62 62 61 59 61 62 64 62 63 65 63 62 60 58 52 50 47 45 44 43 38 33 33 35 36 36 39 41 47 48 46 42 43 44 46
58 59 67 66 70 75 73 74 73 70 65 64 62 62 65 64 62 59 59 60 61 62 59 59 55 54 52 47 43 41 41 42 43 40 35 32 33 36 39 35 37 37 40 42 47 43 39 43 48
57 59 63 58 54 65 70 69 70 70 67 60 61 61 61 61 57 63 62 58 56 56 52 50 48 47 44 37 36 37 39 41 41 36 34 32 34 40 42 42 41 39 41 41 40 40 43 48 49
62 63 60 57 53 55 61 63 63 64 63 65 62 59 53 53 52 53 52 50 47 44 43 45 43 39 35 29 33 36 39 40 38 34 33 31 35 42 45 46 48 45 41 45 47 51 51 52 53
64 62 60 55 48 50 50 53 55 59 58 53 51 50 48 48 46 44 41 41 42 42 43 41 36 31 26 28 32 36 39 37 34 32 32 32 36 42 43 46 49 49 50 54 53 52 52 53 55
66 63 59 52 48 48 46 44 50 51 43 49 47 46 45 44 39 36 36 37 39 39 36 33 29 25 26 27 31 34 37 34 32 32 33 32 35 38 46 50 51 53 56 55 56 54 53 55 56
67 61 56 51 49 48 42 43 41 37 42 43 43 42 42 39 37 35 36 38 38 35 28 30 25 24 25 28 31 33 33 31 31 32 34 35 38 41 42 43 46 49 50 53 54 57 58 58 57
68 61 55 53 51 48 42 40 32 36 38 39 40 38 38 36 35 34 36 36 32 26 23 22 23 24 25 29 34 31 30 30 31 32 34 38 40 42 44 47 49 51 53 54 56 57 59 58 56
68 58 59 57 54 49 47 41 38 35 35 36 35 35 33 32 32 30 31 32 27 25 22 21 24 26 27 30 33 30 30 28 28 31 35 37 41 44 48 49 50 51 51 51 53 55 55 59 61
62 59 65 62 56 50 45 42 37 34 31 32 32 30 29 30 30 28 29 25 24 24 24 22 23 26 28 30 31 29 28 27 27 29 34 37 41 45 46 47 47 46 48 49 52 56 60 61 62
68 71 65 62 58 48 45 47 36 34 30 28 28 26 22 20 26 25 23 23 25 24 24 22 24 27 28 30 31 28 26 26 28 30 32 36 39 40 43 44 44 47 51 54 58 61 63 64 61
75 69 65 57 55 49 45 47 36 34 29 26 26 22 20 16 23 22 23 23 24 27 26 25 26 28 30 31 33 33 30 29 28 30 31 33 36 39 41 44 48 53 56 59 62 63 61 62 64
70 68 66 59 56 50 46 43 36 34 29 27 27 24 22 15 18 19 21 20 25 27 28 28 28 30 31 32 34 35 37 36 35 36 37 38 41 44 48 51 54 57 59 62 62 61 63 64 68
71 69 62 58 56 50 46 39 35 33 29 29 30 24 23 21 21 22 20 23 23 29 31 31 31 32 35 36 34 34 37 40 41 41 43 45 47 49 52 55 57 58 60 61 64 67 68 70 72
76 70 58 59 54 51 46 42 37 34 31 31 29 26 25 26 26 23 23 23 25 26 31 33 34 34 35 37 37 38 39 40 39 41 43 45 47 50 52 54 57 58 62 65 68 71 74 77 78
75 66 59 60 54 52 47 45 35 34 33 32 30 32 28 27 28 27 27 26 27 29 30 33 36 38 38 40 41 43 41 38 39 41 43 44 47 50 53 57 61 65 68 71 75 77 79 83 86
71 65 62 58 53 53 46 44 37 36 34 33 32 34 32 31 31 30 33 33 33 32 33 34 36 38 41 43 44 46 47 48 46 46 49 51 54 56 60 63 67 70 73 76 79 82 86 90 93
68 66 62 56 55 52 46 46 37 33 32 32 33 34 35 34 34 34 37 38 39 40 41 41 41 42 44 45 47 50 52 54 55 58 59 59 61 63 66 69 72 76 80 83 85 88 91 97 101
69 64 59 59 58 54 49 46 41 36 32 33 34 36 36 37 39 39 40 41 42 45 46 47 46 47 47 49 51 53 56 61 63 63 65 66 68 69 71 74 79 81 84 87 89 94 99 103 106
70 65 61 59 59 55 51 48 44 41 36 35 36 38 39 40 41 43 43 45 46 47 49 50 53 53 52 52 52 55 60 62 65 67 70 72 74 76 78 82 83 85 87 89 96 99 103 106 108
67 63 61 60 57 54 53 50 47 44 42 40 39 38 40 43 46 48 49 50 51 52 53 55 56 57 57 56 58 60 63 67 70 72 76 79 80 81 84 85 84 87 93 97 100 103 105 106 107
70 68 65 58 57 58 60 53 48 47 46 45 46 46 46 48 49 51 52 54 55 55 56 59 59 61 63 64 65 67 70 72 73 76 80 81 83 85 82 87 89 95 97 101 102 104 104 106 108

GFSSGP_250_spd_021.txt.gz
Wind_Speed
72 70 64 57 65 66 64 56 53 53 54 51 51 48 50 51 46 45 48 42 40 37 36 36 36 37 39 40 40 42 44 47 49 47 44 43 44 46 49 50 52 52 51 50 48 42 39 41 44
74 74 71 67 58 63 68 56 53 54 57 54 53 51 52 51 44 38 36 36 37 36 37 39 37 38 39 41 41 41 40 45 47 47 47 47 49 51 52 54 53 52 49 46 44 37 38 42 42
77 75 76 72 67 63 58 67 54 57 58 57 55 57 52 47 42 37 37 39 40 41 42 42 45 45 44 44 44 43 44 47 49 51 55 57 55 55 54 55 53 49 47 44 40 37 40 38 40
79 79 77 75 71 67 64 55 66 62 60 59 58 55 50 48 42 45 46 46 39 42 45 48 49 50 49 48 49 50 52 55 52 54 56 54 57 55 53 51 51 45 44 41 40 38 36 38 39
72 81 78 79 77 70 69 63 56 58 68 64 61 58 53 52 52 49 51 48 44 44 45 47 50 49 48 51 52 55 56 58 60 59 58 55 56 52 49 50 46 41 42 38 37 34 36 37 44
59 76 83 80 82 74 71 70 69 64 59 57 64 59 50 46 51 50 45 44 45 47 48 50 53 52 51 54 57 61 60 63 62 59 59 55 51 49 49 47 39 37 38 36 34 33 38 46 43
58 70 76 75 81 80 75 75 72 71 68 63 64 61 51 51 52 48 47 48 50 51 53 52 55 55 57 61 62 64 66 64 60 58 56 52 48 47 46 42 35 36 34 31 28 36 41 43 42
60 65 62 72 78 79 77 74 74 75 74 76 71 66 60 60 56 52 50 54 55 55 55 55 57 61 63 65 67 65 65 59 54 52 49 45 42 44 41 37 34 34 33 31 35 46 48 42 43
65 59 63 61 71 79 76 77 77 76 77 75 74 67 63 64 64 62 57 57 59 59 57 58 61 64 68 68 65 63 56 53 48 41 40 39 41 40 37 34 34 33 36 37 40 44 45 48 52
67 63 61 68 64 74 76 80 79 77 74 74 70 65 66 66 65 64 60 60 60 62 61 64 67 68 65 62 59 53 49 46 38 35 37 38 40 38 35 33 34 34 40 38 40 41 43 43 45
70 64 68 64 64 60 65 79 83 80 76 70 68 65 61 61 65 62 61 59 62 64 66 63 63 61 58 53 49 46 40 36 31 34 38 39 39 36 33 34 35 35 39 39 40 42 45 46 42
73 69 70 66 61 58 59 59 71 77 76 70 67 62 63 67 63 58 56 60 64 61 60 60 57 53 50 48 45 37 35 30 31 35 37 38 37 34 32 34 37 40 44 47 41 43 44 48 46
78 73 72 69 59 57 58 57 55 62 71 69 68 69 70 68 65 62 61 57 55 56 55 52 49 47 46 42 37 35 31 30 33 36 36 37 36 34 33 34 40 43 44 52 51 51 53 55 56
83 79 74 69 59 56 57 55 50 54 55 57 61 61 65 61 59 56 52 53 52 49 46 46 47 47 43 36 35 31 29 32 36 37 35 35 35 34 33 36 38 48 48 49 54 58 57 59 62
87 83 76 68 59 56 56 52 55 48 50 49 52 55 55 56 49 52 50 49 43 42 44 46 45 40 34 32 28 27 31 35 38 39 36 35 34 34 35 36 39 41 48 52 56 60 64 64 61
89 87 77 67 60 57 53 51 52 39 44 45 45 43 45 47 45 46 43 41 40 42 43 42 40 37 30 29 26 28 32 35 37 38 38 35 34 35 36 39 42 45 49 50 52 55 58 59 58
94 84 74 69 60 58 52 54 49 39 43 44 42 40 39 39 39 39 39 37 39 39 39 37 35 31 30 28 28 29 32 35 36 37 37 36 35 36 38 41 44 46 50 52 56 56 57 59 57
87 81 75 70 61 60 56 55 46 40 43 41 39 36 38 36 36 37 38 36 37 36 34 33 31 29 27 28 29 30 32 33 33 34 36 37 36 37 38 41 43 46 49 52 54 55 53 52 54
91 86 80 74 68 60 58 55 45 44 43 38 36 34 34 34 33 36 36 37 32 28 28 30 29 30 32 32 30 30 32 32 32 34 35 37 39 38 38 40 42 44 46 47 48 51 54 59 61
92 87 80 77 64 60 61 56 49 46 44 37 34 34 32 31 29 30 33 28 26 23 28 31 31 32 34 34 33 32 34 33 34 35 37 40 41 41 40 41 43 45 47 50 53 56 61 64 67
94 87 84 73 63 64 60 58 52 47 45 41 36 32 31 28 26 24 24 19 21 21 22 29 34 34 36 37 37 36 35 35 37 39 41 42 44 46 47 48 49 52 54 57 60 63 64 65 69
91 86 82 72 64 68 62 61 54 46 47 42 38 35 31 27 26 22 21 20 21 23 25 25 29 34 37 37 37 35 36 35 38 41 42 43 43 45 47 50 52 55 57 59 61 62 65 66 69
90 86 81 71 64 67 64 61 56 50 47 42 41 34 31 28 27 24 24 24 24 25 26 26 27 29 32 35 39 39 39 38 39 41 44 45 47 47 49 50 54 57 60 62 64 67 70 74 76
91 87 81 71 65 66 66 61 58 51 43 41 38 34 31 31 29 26 26 25 27 30 29 30 29 31 32 34 37 39 40 41 44 46 47 46 48 51 55 58 62 64 66 69 71 75 77 79 82
95 85 78 65 65 67 63 60 59 48 44 41 37 35 34 35 32 31 30 29 31 32 33 34 36 38 39 39 40 42 43 45 46 47 49 52 55 58 60 62 65 69 72 75 78 80 83 85 89
84 76 66 60 64 63 64 59 57 49 45 40 37 35 35 33 34 35 34 34 33 35 38 40 42 43 45 47 49 49 50 52 52 52 52 54 57 61 65 67 69 73 77 80 84 87 89 91 93
80 74 63 64 63 60 61 60 58 49 46 41 38 36 33 33 34 36 35 35 37 38 40 43 46 48 50 52 53 54 56 57 58 60 61 63 65 67 69 72 75 79 80 84 88 88 90 92 94
75 72 66 67 64 63 64 61 54 49 45 41 38 34 32 33 34 36 37 38 40 42 44 47 50 52 54 56 57 59 61 62 64 65 68 69 72 75 75 78 81 83 85 88 86 89 92 97 98
70 65 68 66 62 64 66 60 53 48 45 41 39 36 36 35 36 38 39 41 44 46 49 52 55 57 58 61 63 64 65 67 68 70 71 73 75 77 81 82 83 84 85 87 90 94 97 100 104
72 72 71 69 65 64 64 57 54 49 47 45 44 40 39 40 41 44 46 47 50 52 54 57 60 62 65 66 68 69 70 72 73 74 74 76 78 82 84 84 83 85 90 92 94 99 103 103 98

GFSSGP_250_spd_024.txt.gz
Wind_Speed
72 71 75 74 70 64 65 67 62 57 51 53 55 54 48 44 40 42 39 44 41 41 44 41 37 35 34 34 36 37 39 41 41 40 38 39 44 47 48 49 51 52 54 55 56 57 56 53 51
69 73 70 74 75 69 66 65 64 62 57 57 57 57 51 42 45 47 50 49 47 42 37 33 34 35 38 39 40 38 40 43 43 45 43 48 48 47 50 54 57 59 58 57 57 57 55 52 48
68 73 73 77 77 74 70 67 55 65 68 61 60 58 56 50 47 45 49 49 45 36 33 33 35 42 42 44 45 46 48 48 47 48 51 54 53 57 55 56 57 58 57 55 53 54 53 49 43
62 74 78 80 79 80 73 69 67 56 63 68 65 63 54 53 50 48 46 50 45 38 37 39 42 43 47 46 48 51 52 52 51 53 57 58 57 61 59 58 58 57 54 52 53 52 50 46 39
56 69 70 82 82 81 79 71 73 67 57 63 71 61 56 56 54 49 50 51 47 45 43 44 45 47 46 47 49 51 50 52 53 54 57 58 63 65 62 57 57 54 52 52 52 49 46 43 40
60 60 70 71 79 81 78 76 76 71 67 57 59 71 58 59 58 51 48 46 47 46 45 43 46 47 47 49 50 51 51 56 57 61 63 64 66 62 56 53 52 51 51 50 48 45 42 41 35
65 62 62 65 75 81 81 81 79 75 73 70 63 61 53 60 58 59 50 47 47 50 45 46 47 48 49 51 54 51 55 60 65 67 66 68 63 54 50 48 47 48 49 47 43 40 37 33 36
71 66 60 64 62 73 84 80 78 78 76 72 76 66 46 61 48 46 51 49 50 51 52 51 51 52 55 55 56 56 60 65 68 68 66 60 51 47 44 41 43 47 47 42 39 36 34 31 33
75 70 65 63 65 62 77 82 80 79 80 75 74 74 65 70 58 57 58 59 58 58 59 57 57 59 58 59 59 65 65 67 66 65 59 52 47 41 38 41 44 44 42 38 35 34 34 32 37
79 73 70 70 67 63 62 68 79 81 81 80 77 75 68 72 70 68 68 67 61 62 63 66 65 64 63 63 64 65 68 64 62 55 50 43 40 38 39 40 41 41 38 37 36 38 39 40 40
82 75 76 73 70 65 56 58 74 77 80 81 78 73 72 73 74 71 68 68 64 61 61 61 62 62 62 64 65 68 61 57 54 51 42 39 38 38 38 39 40 40 38 37 37 40 45 49 41
81 81 79 76 72 64 58 59 58 66 79 78 78 76 69 71 72 69 66 63 61 61 60 59 58 62 63 63 66 59 54 54 51 41 39 38 38 39 40 39 38 38 37 37 37 41 43 43 43
76 82 82 80 74 66 62 57 60 59 63 73 75 74 72 70 67 64 60 60 58 59 61 62 62 62 61 60 54 52 53 50 41 38 36 35 40 41 41 40 39 38 37 37 40 41 48 51 48
76 80 84 83 76 70 62 59 58 61 58 60 70 75 80 79 71 67 63 60 62 65 64 63 60 57 56 52 51 52 49 39 35 35 34 37 40 41 41 42 40 38 37 38 41 44 46 55 58
82 80 85 82 77 71 65 58 57 62 55 50 47 55 69 73 72 66 70 66 61 64 63 57 53 53 50 49 50 46 39 35 34 36 37 39 38 37 41 42 41 40 39 39 41 48 52 51 54
88 85 80 80 80 72 67 59 63 60 50 47 46 47 46 51 58 65 64 60 61 61 57 54 48 46 47 48 47 40 36 34 37 38 38 38 36 38 38 40 42 42 42 41 43 46 49 53 55
90 83 77 83 80 75 68 62 64 59 47 47 46 48 45 47 47 43 44 47 55 51 51 43 42 43 47 46 38 37 37 38 39 38 38 36 35 36 37 37 41 43 43 43 46 48 50 53 56
79 88 83 82 81 78 71 64 64 57 46 48 48 47 43 41 40 38 36 36 38 39 40 39 42 43 43 40 37 36 36 39 38 37 38 36 37 36 38 38 40 42 44 44 45 48 50 52 54
84 94 91 85 83 82 73 68 65 56 47 47 47 43 39 36 33 35 34 32 34 36 38 42 41 41 37 35 33 36 38 39 39 40 38 37 37 37 40 42 42 43 44 46 47 48 49 51 52
82 93 96 87 84 86 77 68 63 56 49 49 46 40 36 36 33 33 32 30 34 37 41 38 35 34 36 35 34 36 37 38 39 39 37 38 37 39 40 42 43 45 47 49 51 53 55 58 60
77 90 94 86 90 85 75 67 64 56 53 49 45 40 36 35 34 33 33 27 31 37 34 30 28 27 30 35 36 36 37 39 37 38 40 42 41 40 41 42 44 46 48 49 52 54 57 61 65
79 86 94 89 91 81 74 68 67 54 53 46 44 40 38 35 35 34 29 28 30 30 25 26 27 29 29 29 29 31 35 38 39 39 40 41 42 44 46 46 46 47 48 51 54 57 60 62 66
79 86 94 91 90 85 74 68 66 55 54 51 46 43 39 36 35 33 32 31 33 29 28 26 26 27 28 27 28 30 33 35 38 39 41 43 46 48 47 49 51 53 54 55 56 59 61 63 66
84 85 90 89 88 82 70 67 69 56 57 55 48 45 42 39 37 34 33 31 33 30 29 29 29 30 31 32 33 35 37 39 41 43 45 46 49 51 52 54 55 56 59 62 63 66 67 70 73
87 91 95 99 91 77 73 71 67 60 57 54 50 44 43 41 40 37 36 34 34 32 31 32 33 34 35 36 38 40 42 45 48 50 52 53 55 58 59 60 61 63 65 68 70 71 74 76 81
94 99 100 84 82 73 68 67 63 58 57 52 48 45 44 44 42 38 37 37 38 36 35 36 36 36 38 41 43 46 48 50 53 56 59 61 62 63 65 67 68 69 70 71 73 75 79 83 85
83 91 88 84 82 76 70 71 66 62 58 50 47 46 46 42 41 38 37 37 37 36 36 37 38 39 43 46 48 50 54 57 60 63 65 67 68 70 72 73 75 75 76 76 78 81 85 86 87
85 83 79 78 76 70 70 70 66 63 57 53 51 47 45 42 41 38 36 37 35 35 37 38 40 44 48 52 54 57 60 62 66 69 71 73 75 77 78 79 79 80 80 80 83 86 87 87 90
84 85 80 80 73 72 68 68 64 61 58 55 53 49 46 40 38 38 37 37 36 37 39 42 47 49 52 56 60 63 67 69 72 74 78 79 80 82 83 83 83 82 83 86 88 87 89 91 93
87 82 81 76 72 70 67 62 63 60 58 56 53 50 43 38 38 39 40 40 40 42 44 48 52 55 59 63 66 69 72 75 77 81 83 83 84 85 84 84 84 85 88 89 90 91 94 96 99

GFSSGP_250_spd_027.txt.gz
Wind_Speed
66 67 70 69 74 74 74 70 62 63 60 60 60 57 52 50 50 50 47 48 45 41 35 38 38 40 37 34 36 36 37 38 38 39 40 40 43 44 46 48 49 50 52 51 55 57 59 60 61
60 65 67 67 67 77 75 69 66 61 67 68 63 60 53 50 52 51 48 50 48 47 45 43 42 40 31 31 35 34 37 40 41 43 46 49 50 50 52 55 57 58 57 59 59 60 58 60 60
59 59 64 67 69 76 82 74 69 71 67 68 67 66 57 47 53 51 48 47 47 48 49 47 46 37 34 36 39 42 43 44 47 50 51 55 55 54 55 58 58 61 62 63 62 61 60 59 58
58 58 61 64 70 76 75 79 73 74 73 67 68 69 62 55 56 55 53 50 50 45 48 50 46 39 38 35 40 43 41 43 47 51 53 56 53 55 58 59 64 62 66 67 65 60 58 56 57
64 58 60 60 71 74 77 81 76 80 77 73 70 62 64 65 62 57 53 53 52 48 48 45 50 45 41 40 42 41 42 45 48 52 54 54 56 59 63 67 67 67 69 66 59 55 53 54 56
67 67 61 64 64 73 73 78 78 83 78 75 72 69 64 59 66 62 55 56 53 53 49 50 51 51 46 43 42 42 45 52 54 56 55 55 60 62 66 67 67 66 59 58 53 50 50 53 54
73 71 67 64 64 64 71 73 79 80 79 76 77 74 65 60 60 60 63 56 59 57 52 49 47 51 48 46 46 47 50 55 55 57 59 61 63 69 68 68 65 57 52 47 46 46 50 51 50
75 73 70 65 66 64 68 70 79 78 81 81 80 76 72 68 62 59 52 59 65 62 56 48 52 50 52 51 51 54 55 60 62 62 63 65 69 69 67 59 55 48 46 45 45 47 48 48 47
73 71 71 72 71 74 64 70 69 80 83 81 83 80 73 72 66 57 56 55 50 47 50 51 55 54 54 57 60 62 63 66 67 67 66 68 69 64 57 55 45 43 45 46 46 46 46 47 45
68 71 74 80 76 72 67 63 66 68 78 83 82 83 72 75 70 70 61 56 54 53 54 56 58 60 61 62 62 63 63 62 64 65 67 67 62 56 53 43 41 44 46 46 46 45 45 45 43
67 66 76 80 80 77 69 59 64 66 68 76 81 80 76 75 74 75 68 65 66 64 64 65 65 64 65 62 61 61 61 60 65 66 66 61 57 53 44 40 42 45 46 47 46 44 42 42 43
68 68 73 80 81 79 71 66 61 64 64 67 78 79 75 79 77 74 69 70 71 71 67 68 67 65 60 63 57 59 60 64 65 63 59 56 51 41 37 41 43 44 45 45 45 43 42 42 43
69 71 70 75 80 81 76 68 69 62 65 62 68 70 77 79 76 74 75 73 69 71 72 67 64 58 59 62 62 65 66 64 63 57 55 51 42 35 39 44 44 42 41 42 44 43 43 43 45
74 73 71 71 76 80 77 73 70 65 64 59 59 59 67 80 76 74 73 74 71 67 68 65 59 58 59 62 67 66 66 61 56 54 50 42 36 40 43 45 44 42 41 42 42 44 43 43 45
63 72 72 71 72 78 80 73 69 71 63 61 55 47 48 61 76 76 73 73 73 70 67 64 58 59 60 60 66 63 60 55 54 52 45 38 40 43 43 43 43 41 41 42 41 42 44 44 46
56 64 71 74 75 75 82 72 74 74 64 60 54 50 49 51 53 69 74 71 68 73 73 69 67 65 66 68 63 58 55 53 54 46 40 42 43 44 41 40 41 41 41 41 40 41 42 45 47
48 50 65 73 77 78 80 75 78 77 67 61 54 49 46 48 47 47 52 63 66 67 69 68 64 65 64 59 60 51 48 51 47 42 43 42 40 42 40 40 40 40 41 41 41 41 42 43 46
60 61 68 69 78 84 78 75 80 80 69 61 55 52 45 44 42 43 39 46 49 53 51 51 51 51 49 45 46 46 48 45 40 41 42 41 43 43 42 42 40 40 39 39 41 43 43 43 46
68 66 66 66 75 86 78 77 80 82 71 64 56 52 45 44 41 40 42 43 38 39 40 43 40 36 35 38 42 42 44 40 41 42 41 40 40 40 41 42 43 43 43 42 42 43 45 44 45
76 73 67 69 75 89 85 79 84 82 70 65 56 52 45 45 40 39 39 37 33 32 33 33 32 33 37 41 38 38 38 41 42 44 44 43 41 41 42 44 47 49 49 49 50 50 49 51 49
80 73 73 70 79 89 88 83 85 78 69 66 57 54 43 45 39 37 36 31 30 31 32 31 34 36 38 36 34 33 33 32 35 38 39 40 41 43 43 45 46 47 49 50 51 52 55 58 60
81 80 81 74 79 88 94 83 83 76 73 65 57 50 42 45 39 38 34 32 33 33 32 30 31 30 32 31 31 31 32 32 33 34 34 36 37 40 42 45 47 49 51 53 54 55 57 59 62
73 79 77 76 77 87 93 83 81 80 72 60 58 48 46 44 39 39 36 36 38 36 33 32 32 29 29 29 30 31 32 33 34 36 39 40 41 43 46 49 51 54 56 58 60 61 62 63 66
66 69 71 74 79 90 90 80 83 77 68 61 58 47 46 47 42 42 40 41 38 37 34 35 33 31 33 33 33 35 37 37 40 41 43 46 49 51 54 56 59 62 63 65 66 67 69 71 73
51 64 64 69 78 76 85 81 82 77 68 63 56 50 49 50 44 43 42 43 40 38 37 34 34 35 36 36 36 38 39 40 42 45 48 51 55 58 60 62 65 67 70 71 73 74 76 77 79
52 66 61 60 72 80 83 82 80 75 68 61 55 51 51 51 46 44 44 44 41 40 40 37 37 38 39 41 40 40 43 45 47 49 53 56 59 63 66 70 72 74 76 77 78 80 81 82 84
44 49 64 72 80 86 82 79 84 73 66 61 56 55 55 53 47 45 45 44 43 42 41 38 40 41 41 41 41 42 46 50 53 56 60 63 67 69 72 75 78 81 82 82 83 84 84 85 87
55 61 69 75 78 80 79 83 79 71 65 61 58 58 55 52 48 46 45 45 46 43 41 40 40 42 41 44 46 48 51 56 59 62 66 69 72 75 78 82 85 87 88 88 88 87 88 90 93
56 67 71 71 69 79 79 78 74 67 64 62 60 59 55 51 47 45 47 48 46 43 43 43 42 43 45 48 50 54 59 62 66 69 72 75 78 81 85 90 92 92 92 91 89 90 92 94 96
66 59 53 60 72 78 75 77 70 66 64 61 60 58 54 50 47 47 48 45 45 45 46 46 47 47 50 53 56 59 64 68 72 75 78 82 84 87 92 96 95 94 92 91 92 94 94 96 96

GFSSGP_250_spd_030.txt.gz
Wind_Speed
56 60 63 66 69 73 77 74 69 66 65 66 62 58 57 55 53 52 51 51 51 47 45 43 44 43 37 38 39 41 40 36 33 32 35 37 39 42 44 48 52 55 55 57 58 60 61 62 62
55 56 59 65 72 75 71 72 76 72 72 71 67 61 60 57 56 56 55 53 54 53 51 48 47 47 44 45 44 41 38 32 35 37 41 43 45 46 50 54 58 60 59 58 60 61 64 67 66
54 57 58 60 65 72 73 74 70 76 76 75 71 65 62 63 59 58 57 56 55 56 55 54 49 52 51 49 45 44 40 39 39 42 44 45 45 50 54 55 58 61 60 62 65 66 71 69 68
59 57 58 58 61 67 71 74 74 75 78 81 75 71 68 65 65 62 61 61 57 56 55 53 54 53 50 48 49 46 42 42 39 39 42 42 47 53 56 58 59 61 63 62 67 69 68 69 70
63 61 58 59 62 61 64 72 73 77 78 81 82 76 72 67 64 69 64 63 62 60 58 56 51 50 49 48 53 48 46 44 42 41 44 48 52 56 58 60 61 61 63 70 72 72 73 68 64
65 67 64 64 67 62 61 63 74 78 77 83 82 79 77 72 69 66 71 66 65 62 60 59 56 54 53 46 48 54 56 50 45 47 50 53 54 57 64 66 66 66 70 71 73 68 61 57 55
61 66 68 70 70 64 60 63 70 79 78 79 86 84 81 77 75 72 67 70 70 67 65 61 58 55 55 51 52 57 56 50 52 52 53 57 62 62 66 67 70 70 73 69 63 61 55 52 51
60 57 66 71 76 73 66 65 67 71 78 81 83 81 84 79 75 74 70 68 65 64 63 65 64 60 60 56 52 52 53 52 52 55 60 64 65 65 63 63 67 68 66 63 59 51 48 50 51
54 54 63 72 77 82 72 69 65 67 72 79 80 81 84 80 77 77 73 69 70 67 63 62 54 62 48 55 52 54 57 58 60 65 63 62 62 61 62 68 67 63 62 56 49 46 48 51 52
51 50 58 70 75 80 74 68 67 69 69 76 78 76 82 79 78 81 80 74 71 68 63 61 58 49 48 50 54 56 59 63 64 64 61 59 59 62 67 66 63 60 55 47 46 46 49 52 52
49 49 59 64 71 76 77 73 71 70 72 68 74 75 77 79 81 81 80 76 72 70 69 65 61 58 57 52 54 60 65 66 67 64 63 64 64 65 68 63 61 54 45 45 46 49 49 48 48
50 55 60 66 67 71 75 74 74 74 75 71 68 70 73 74 75 80 79 77 76 76 73 71 65 60 60 61 63 65 66 67 63 62 64 67 67 70 64 59 53 45 43 46 48 50 50 48 47
47 53 61 70 68 68 73 73 75 76 78 72 68 64 66 69 76 78 79 78 79 77 73 74 71 69 69 69 68 69 71 64 62 62 65 68 67 66 60 54 44 43 45 47 49 49 47 47 47
46 45 54 65 72 71 71 72 74 78 82 75 70 64 61 62 62 69 78 82 76 77 74 72 71 69 68 70 67 70 64 62 61 63 66 71 66 61 56 47 45 46 47 48 46 45 45 46 46
46 45 50 59 71 74 74 68 70 81 84 79 72 69 59 57 58 61 64 70 75 74 76 75 71 69 72 72 66 61 63 63 69 67 72 69 65 59 50 46 46 45 44 45 45 44 43 44 45
47 48 49 51 61 74 75 64 70 78 82 79 76 70 64 56 57 55 54 59 69 73 74 76 72 67 67 69 68 69 69 71 66 66 64 62 58 53 47 45 44 45 44 44 45 45 43 43 44
51 51 50 51 57 67 78 70 72 73 80 80 79 73 65 57 56 55 51 48 54 67 73 72 71 68 68 66 69 70 70 66 65 62 54 54 55 47 45 46 45 47 47 46 45 45 46 47 47
60 56 56 55 62 65 72 71 76 75 78 81 79 75 64 60 58 53 50 47 46 46 55 63 68 70 68 67 69 64 63 57 55 49 49 51 49 46 46 46 44 48 47 48 49 49 49 51 54
65 62 56 58 61 65 63 69 75 77 75 77 77 75 67 62 57 52 46 44 44 38 40 45 51 55 55 57 54 54 48 48 45 47 46 47 47 47 47 47 47 48 47 48 50 51 51 51 53
69 67 57 63 66 67 67 64 74 77 76 76 77 74 69 63 57 49 45 41 39 39 38 40 43 44 42 40 41 41 41 43 45 44 40 41 41 41 43 45 47 48 47 47 48 49 51 51 52
74 73 65 65 72 67 70 68 74 76 80 75 74 73 68 63 58 47 42 40 37 38 41 41 40 36 35 35 35 37 42 42 41 40 40 40 40 40 40 40 42 43 43 45 48 50 54 55 55
81 79 75 76 76 70 74 67 74 78 81 75 75 75 68 62 57 49 42 40 38 38 37 35 34 32 34 34 37 40 41 40 39 38 39 41 41 40 41 43 45 47 49 51 52 55 58 61 64
87 89 85 84 83 81 73 72 69 76 79 74 74 75 66 61 55 48 40 40 39 37 35 35 36 34 34 33 35 37 38 38 40 40 42 44 44 43 44 46 50 52 55 57 59 61 63 66 69
91 93 92 90 89 78 69 66 63 77 76 78 76 75 67 61 55 50 42 42 41 39 38 40 39 38 37 36 39 39 41 41 43 45 45 45 46 47 48 50 53 57 61 64 66 68 71 74 76
83 86 88 90 81 39 71 63 50 72 81 81 76 77 69 62 55 49 44 44 42 42 42 44 42 40 40 40 40 43 42 43 45 48 48 48 50 52 55 58 61 64 67 70 73 76 79 83 86
63 65 67 66 50 53 73 51 46 70 85 82 76 77 70 61 56 48 43 44 44 45 46 47 45 44 44 42 43 44 45 47 49 51 51 53 55 59 62 64 68 71 74 77 80 84 88 92 92
43 45 56 51 58 66 63 46 65 78 82 81 74 73 66 61 55 49 44 47 47 47 48 48 48 46 46 46 47 48 52 52 52 52 55 57 60 64 68 71 75 77 80 83 86 91 95 97 96
30 32 35 39 47 49 47 64 70 80 79 76 73 73 67 61 54 49 49 50 48 49 50 48 50 49 49 49 50 51 52 54 55 55 59 62 65 70 74 79 82 84 87 90 94 99 99 97 95
21 23 29 42 54 52 53 60 75 73 82 77 77 72 65 59 54 51 50 51 50 51 50 50 52 52 50 51 52 54 56 57 58 61 64 67 72 77 81 84 88 91 93 97 101 101 97 95 97
17 26 39 48 47 48 53 66 69 75 77 76 76 70 63 57 53 52 51 52 51 51 51 53 54 52 52 53 55 58 59 61 64 67 70 73 79 83 87 90 94 96 100 104 102 97 96 98 99

GFSSGP_250_spd_033.txt.gz
Wind_Speed
68 69 69 68 68 70 70 71 69 67 69 68 68 63 60 58 59 56 54 53 54 52 50 48 47 45 41 38 40 41 39 43 43 40 41 39 36 35 38 40 42 44 47 52 56 61 64 64 64
65 66 66 68 69 69 71 70 71 73 75 73 73 70 64 64 60 60 59 58 55 56 55 54 52 50 47 45 45 46 45 47 45 44 42 39 37 41 42 45 48 49 53 56 61 64 66 65 66
58 59 59 60 61 68 67 70 70 74 79 78 76 75 72 67 65 60 61 61 60 58 59 58 58 56 53 50 48 50 51 51 49 45 45 44 44 42 43 43 45 50 57 56 59 61 67 67 64
56 55 54 52 58 62 62 63 67 74 83 82 78 76 73 72 69 66 63 63 63 62 61 61 61 59 58 56 53 53 54 54 51 48 49 46 46 45 46 47 52 56 59 60 65 69 70 68 72
59 58 57 56 61 61 61 59 64 74 76 82 80 80 77 76 74 71 69 65 67 66 64 63 63 63 60 57 56 54 57 55 50 56 52 48 49 48 49 54 59 61 64 68 71 69 66 70 72
54 57 58 63 67 63 60 59 60 67 77 79 78 80 81 81 79 77 72 72 68 69 68 66 64 65 63 61 59 56 54 53 52 52 54 56 59 56 55 55 60 64 66 69 65 67 68 70 70
51 53 54 62 70 66 68 62 63 65 67 76 80 80 81 83 80 79 78 74 74 71 69 71 69 68 69 68 63 62 60 58 48 50 57 59 58 56 55 63 63 63 64 62 67 69 71 70 67
49 48 50 57 65 72 71 67 68 67 64 66 74 81 80 81 81 83 82 82 79 75 71 68 69 71 70 68 67 63 63 62 62 59 54 55 58 60 63 65 66 64 62 65 70 70 69 66 61
47 45 50 57 63 72 71 69 70 68 67 67 68 74 81 81 81 82 85 85 83 79 77 74 69 67 69 70 68 64 59 64 57 49 53 56 60 63 65 71 67 63 67 69 71 68 67 59 53
47 45 51 58 61 68 65 64 71 71 71 69 66 67 72 80 78 80 86 87 85 81 79 79 75 70 68 68 66 65 63 63 54 58 60 60 60 66 69 67 63 64 69 71 71 67 61 52 50
47 45 52 57 59 63 63 61 67 74 77 78 72 66 65 68 81 82 80 82 83 85 83 80 76 73 72 70 67 65 61 56 57 54 57 60 65 66 67 63 64 67 72 71 70 62 53 50 50
46 50 52 56 58 60 62 62 64 71 80 83 76 69 66 66 71 80 81 81 80 80 82 83 80 76 74 71 69 66 65 63 61 62 63 68 68 68 66 66 67 72 69 73 66 55 51 51 53
47 53 54 56 57 58 60 60 63 66 76 82 82 71 69 68 69 72 76 75 77 78 83 82 80 80 78 74 70 70 68 67 67 67 69 70 72 65 66 70 72 70 69 68 59 52 51 50 51
52 52 54 54 58 59 59 61 61 65 72 78 82 78 73 69 70 66 68 71 72 69 76 79 80 78 78 79 76 72 72 73 72 73 70 69 67 67 71 73 71 70 67 61 52 49 49 49 49
50 54 55 53 55 56 58 56 59 70 72 73 79 79 77 73 70 70 66 64 63 63 68 74 75 76 78 76 77 75 74 72 70 70 71 71 70 70 74 73 69 66 61 52 48 50 49 50 51
52 52 54 56 56 55 59 39 57 71 73 70 74 77 76 74 72 70 67 61 61 58 62 67 72 72 75 77 76 75 73 73 69 65 67 68 68 71 72 66 63 56 52 50 49 48 51 51 52
52 52 56 57 59 59 55 41 55 66 74 72 72 74 77 73 74 72 69 61 56 55 56 61 60 63 70 76 73 72 72 73 68 67 68 69 69 68 62 59 55 52 48 49 49 49 49 50 50
61 57 57 57 59 60 53 47 50 56 68 74 73 70 73 73 77 76 68 63 56 55 54 52 53 58 59 62 67 70 67 65 67 66 65 68 64 59 55 51 50 48 49 50 49 51 50 50 51
63 61 58 60 61 64 56 51 50 53 59 72 74 69 68 72 77 75 71 65 60 54 52 48 49 50 51 56 58 59 61 62 62 62 63 57 52 48 49 47 45 45 43 45 47 47 46 47 50
68 66 64 65 68 67 65 52 52 53 57 64 72 70 65 68 74 74 73 67 61 55 51 50 45 40 41 44 46 50 51 54 53 51 49 48 46 48 46 44 44 45 45 45 46 48 49 50 53
73 71 72 71 75 72 67 56 53 54 60 61 67 72 66 63 70 72 71 67 61 55 50 47 45 44 41 39 41 43 44 45 44 44 43 44 46 44 45 45 45 46 47 48 50 52 54 57 58
78 78 79 78 78 76 71 57 54 52 59 60 61 69 69 63 68 71 70 66 62 55 49 45 43 42 40 38 39 41 40 42 41 41 41 44 44 44 46 46 47 49 50 52 54 57 60 62 65
81 84 83 83 82 82 73 68 51 49 58 61 61 66 71 66 67 71 71 67 58 53 49 45 42 39 39 39 40 39 40 39 40 40 42 45 44 46 49 51 52 53 54 57 59 62 66 69 72
87 88 89 89 89 85 77 67 47 49 53 63 66 68 73 69 68 70 69 65 56 54 50 45 41 39 39 39 40 41 40 40 42 42 44 45 46 50 52 54 57 58 60 62 65 68 72 75 79
86 90 94 98 97 75 84 77 42 52 57 60 63 68 72 70 67 70 69 66 57 54 48 44 42 40 41 42 43 44 44 45 44 46 48 49 51 53 56 59 62 62 65 68 72 74 78 83 87
90 94 94 96 93 83 97 77 48 61 69 67 61 63 67 69 69 71 69 65 56 52 48 47 43 42 44 45 46 47 48 47 48 49 50 52 54 57 62 63 64 66 70 74 78 81 87 91 93
62 60 65 63 65 75 77 62 60 66 75 68 61 59 65 71 71 71 70 63 55 53 50 47 44 45 48 50 49 50 51 51 53 53 53 55 59 62 64 66 68 72 76 80 84 90 94 97 101
40 40 45 47 51 45 43 52 51 66 74 68 62 59 67 73 73 72 69 59 56 54 50 48 47 49 51 52 51 53 54 53 55 57 57 60 63 65 68 69 73 78 82 86 91 96 99 104 108
22 25 29 30 32 35 47 54 66 69 74 65 66 67 73 77 77 75 68 60 57 53 50 49 49 51 52 53 53 54 55 57 58 60 62 64 67 71 73 76 80 83 88 93 98 100 106 110 115
8 8 11 18 25 43 54 68 66 61 63 63 67 69 73 76 73 71 67 58 55 52 52 50 51 52 53 54 53 55 56 59 60 62 66 70 72 75 78 81 84 89 94 99 102 107 112 116 109

GFSSGP_250_spd_036.txt.gz
Wind_Speed
69 64 64 67 66 67 65 67 64 64 64 65 64 60 57 58 55 52 56 57 58 56 52 50 49 47 45 45 43 44 40 36 39 39 40 43 40 37 38 37 35 39 42 45 47 51 52 55 57
67 64 64 64 66 67 68 67 66 66 69 69 67 65 63 61 62 58 57 60 60 59 58 57 55 53 51 50 50 47 45 42 46 44 45 43 42 42 41 41 44 48 46 49 50 52 57 63 61
66 65 65 65 69 73 70 69 69 70 72 74 73 70 71 67 67 64 62 62 62 62 62 60 60 59 57 55 53 53 52 50 49 48 47 48 48 48 45 44 49 50 50 50 55 57 60 62 65
63 61 61 59 64 69 70 69 68 70 74 75 77 76 75 73 71 72 69 67 66 63 64 64 62 62 62 61 59 58 56 56 54 53 55 52 52 51 50 51 50 53 53 55 57 57 61 66 65
61 58 56 56 62 65 65 65 67 69 73 76 77 79 79 79 79 76 74 72 72 68 67 66 67 64 65 63 63 62 61 60 58 55 54 53 54 57 56 51 53 57 59 61 61 60 65 66 64
55 58 55 58 67 66 63 61 62 65 67 68 72 74 76 79 81 79 77 76 76 73 72 69 67 69 68 68 66 64 64 64 62 58 56 53 53 54 55 56 57 60 63 59 61 67 71 67 66
50 51 51 56 65 66 69 65 64 63 64 65 66 71 73 70 77 81 81 79 77 77 76 72 70 70 71 71 70 69 66 65 65 61 58 58 57 56 55 54 59 61 60 62 66 69 71 64 66
52 50 49 55 60 64 66 66 65 64 63 64 63 64 72 76 71 75 83 83 82 81 79 77 75 75 72 70 69 70 71 69 67 65 63 63 57 57 58 60 54 57 64 65 67 67 66 65 68
52 47 49 54 57 63 61 61 64 66 66 64 63 65 67 75 74 73 74 84 86 85 84 83 79 76 74 74 72 69 69 70 71 69 68 65 64 64 60 57 59 61 61 66 69 69 68 68 71
46 45 51 56 57 58 56 53 58 63 67 69 68 67 65 65 69 70 76 76 82 85 85 84 82 80 78 77 77 75 71 68 66 65 65 63 61 61 58 58 58 63 66 70 72 67 71 71 70
45 44 51 55 58 58 55 51 50 58 63 70 72 68 67 66 65 70 72 78 80 79 81 83 85 85 84 81 78 78 78 76 74 67 66 65 64 61 58 60 61 65 69 74 70 69 71 73 71
46 45 51 52 55 55 55 52 49 55 62 67 69 71 71 71 67 69 71 73 77 80 80 81 83 83 83 83 80 79 79 77 74 72 71 67 63 63 64 64 65 70 72 71 67 69 74 72 68
48 52 50 52 54 55 55 53 51 51 62 65 67 68 72 74 73 71 71 72 72 75 80 80 79 78 80 79 79 80 82 79 77 74 70 69 68 69 69 71 71 72 72 71 69 70 72 68 59
47 51 53 53 55 56 54 55 49 54 57 63 66 67 70 73 75 75 72 71 71 73 70 74 76 76 78 77 77 78 79 80 79 78 74 74 71 71 71 71 67 70 70 66 67 68 68 62 54
56 50 52 55 57 58 61 51 51 60 56 57 63 65 68 70 75 77 75 74 74 73 68 67 70 74 77 76 74 75 79 81 79 75 74 74 74 74 72 69 71 70 67 67 66 66 62 57 51
58 55 56 60 61 60 62 50 59 59 58 55 59 62 67 70 73 77 77 77 77 73 69 66 64 66 67 70 71 72 73 75 75 72 72 72 70 70 67 66 68 68 68 67 62 58 57 52 51
67 63 60 58 62 63 59 51 60 61 57 54 55 58 63 67 69 73 77 78 78 75 70 69 66 62 62 61 64 69 64 64 69 69 67 68 67 67 67 64 64 69 66 60 53 54 50 48 48
71 67 64 62 65 65 61 53 57 61 58 53 53 50 58 64 67 69 70 75 78 76 73 68 67 64 58 58 58 58 58 62 60 61 65 65 66 65 64 65 66 64 56 51 50 47 47 48 49
73 72 71 69 68 68 66 59 55 59 57 54 51 47 51 58 67 66 67 71 75 75 74 70 64 61 55 54 52 52 52 53 54 55 58 61 60 62 65 62 59 50 50 49 48 48 47 49 50
79 78 78 75 75 74 71 60 58 57 55 54 49 46 47 54 62 67 66 67 71 72 73 71 64 59 55 52 49 48 47 50 50 54 55 56 57 57 56 53 47 49 47 47 47 48 49 52 53
84 87 85 83 82 79 75 63 64 59 56 55 50 48 48 48 54 65 66 67 69 71 70 68 64 59 56 50 49 46 43 44 46 47 49 50 50 49 46 46 46 46 47 47 49 51 54 56 58
90 93 92 89 85 82 83 64 63 60 56 52 51 51 48 48 51 60 66 66 67 70 69 66 64 59 53 50 48 47 48 45 44 45 46 45 43 44 45 44 46 46 48 50 53 55 59 61 64
83 85 88 89 88 87 80 72 57 63 59 53 53 51 49 50 53 57 66 67 65 66 69 67 62 58 52 50 47 47 45 44 43 45 44 42 42 44 44 45 48 49 52 55 58 61 64 67 70
83 83 84 85 85 77 79 77 56 62 64 61 59 54 53 54 55 56 65 66 63 63 65 66 63 58 51 48 47 45 43 44 46 44 44 43 44 44 46 49 51 53 56 60 63 66 71 73 75
69 71 72 75 79 65 76 83 53 64 64 68 63 57 53 56 56 56 60 66 64 63 64 65 64 58 51 49 46 43 44 44 44 44 44 44 46 47 50 53 56 59 62 65 69 73 75 77 78
67 70 74 77 75 67 79 70 53 68 72 73 70 61 55 55 57 60 61 65 65 62 63 65 62 55 51 48 46 43 44 45 46 46 46 48 49 52 54 57 60 64 68 71 74 77 79 81 84
71 67 72 74 74 74 77 68 63 68 70 77 78 68 56 57 63 63 61 67 68 62 63 64 61 55 51 49 47 45 47 48 49 49 49 51 53 56 59 62 67 69 72 75 79 82 85 88 91
61 58 57 54 51 57 53 49 57 74 85 85 84 71 66 59 63 64 63 67 70 62 64 62 60 55 51 49 47 47 50 51 52 52 52 54 57 59 63 67 71 73 76 80 83 86 90 92 95
50 42 45 48 47 44 42 39 52 74 89 93 88 74 64 62 65 65 64 68 68 62 63 61 59 54 51 49 48 49 51 53 53 55 56 58 60 63 66 70 73 77 79 82 86 89 93 96 101
17 21 27 31 31 30 29 45 61 71 81 90 90 78 65 60 63 65 65 65 65 61 63 61 59 54 50 49 49 51 52 54 55 57 58 60 63 67 70 73 78 81 84 88 92 95 98 101 106

GFSSGP_250_spd_039.txt.gz
Wind_Speed
60 61 61 60 60 61 61 61 60 62 64 61 61 61 59 59 55 57 55 53 53 51 50 53 53 51 48 44 42 40 40 39 41 41 38 34 38 37 39 38 38 38 36 38 40 44 45 46 49
62 62 61 62 64 65 65 62 61 63 65 66 65 65 63 61 60 61 62 59 57 56 54 53 56 56 55 52 50 49 48 47 47 45 44 41 42 42 42 43 44 45 43 41 45 47 49 50 53
63 63 64 63 64 68 67 65 63 64 66 68 68 68 66 64 65 63 64 63 63 61 60 57 56 59 59 59 58 56 54 53 51 51 49 48 48 45 44 47 50 50 49 47 49 51 51 53 58
61 60 61 60 66 69 69 68 67 64 67 70 70 70 71 70 68 67 68 68 65 66 65 63 61 61 62 62 63 62 59 57 56 55 56 55 54 51 51 51 53 52 52 52 54 56 56 56 61
57 60 58 60 69 70 68 65 68 68 70 71 71 72 74 75 73 73 72 72 70 70 70 69 67 65 65 65 65 65 63 61 60 60 60 59 58 55 55 53 53 53 53 56 57 58 57 58 58
61 61 59 62 69 70 69 68 68 68 70 71 73 74 75 78 78 78 79 79 77 75 74 74 74 69 68 67 67 67 66 64 63 62 62 62 60 59 59 56 54 54 55 60 58 58 58 57 61
61 61 55 58 65 64 68 66 66 67 69 70 69 73 76 79 81 80 81 83 82 81 79 78 77 75 72 71 70 69 67 67 67 66 66 65 63 60 60 58 61 58 57 59 59 62 55 62 61
58 55 55 59 62 63 63 64 66 65 65 64 66 67 72 75 77 82 84 85 87 87 85 83 80 78 77 75 73 72 70 69 70 70 69 68 67 66 64 64 63 63 62 60 63 55 60 60 65
56 51 54 59 60 61 60 60 60 62 64 64 66 68 68 69 72 74 77 79 80 84 86 86 84 82 81 76 74 74 74 73 71 70 69 67 66 66 66 66 67 66 66 61 58 59 60 62 63
51 49 54 57 58 59 58 58 58 57 60 63 67 70 70 70 67 67 68 71 77 75 77 81 83 83 84 81 77 76 75 76 75 74 73 70 68 67 65 63 62 63 65 64 62 62 64 66 69
48 50 51 53 54 55 58 58 55 53 52 58 61 67 70 72 71 69 70 70 69 78 78 75 77 81 84 83 81 80 81 80 79 78 76 74 71 71 72 70 71 68 65 65 65 68 68 70 68
47 52 52 54 54 55 57 58 55 53 55 56 56 59 64 71 73 73 72 71 70 72 76 77 75 75 77 81 84 83 84 82 81 79 79 77 75 73 74 74 74 72 69 67 69 70 70 67 66
44 48 49 52 55 56 57 55 56 51 55 57 56 54 58 63 69 74 76 73 72 73 72 74 74 72 72 75 78 80 80 81 80 81 81 79 77 77 78 76 75 73 72 71 71 72 71 68 66
49 48 48 50 51 52 55 56 49 55 59 58 57 54 54 57 62 68 73 77 73 74 74 71 70 70 71 73 75 77 81 82 82 81 80 80 78 76 76 75 75 75 75 72 72 72 69 67 64
52 51 53 56 59 52 53 50 50 60 56 56 56 57 54 54 59 63 68 73 77 79 77 74 70 68 66 67 67 71 75 77 80 81 81 77 73 71 72 73 73 71 69 68 68 70 70 67 66
60 57 58 61 61 58 54 45 56 59 55 54 57 54 53 51 54 61 66 69 72 76 79 76 72 69 66 66 64 63 66 70 74 76 78 77 73 67 67 67 66 67 67 68 67 69 66 68 66
64 59 59 63 66 65 59 48 55 59 58 55 53 54 55 55 54 57 62 64 69 72 76 77 75 73 68 66 62 62 61 57 57 59 61 63 65 63 62 63 65 66 65 65 68 66 67 68 58
68 69 65 65 69 71 69 56 58 59 58 57 55 54 56 58 58 58 56 61 68 73 75 75 75 74 71 67 64 62 59 56 50 50 53 54 56 57 58 61 65 64 64 63 64 66 66 56 54
76 73 69 70 74 74 74 66 60 61 59 59 58 56 55 58 61 59 56 56 68 73 75 72 72 73 72 69 66 61 56 54 52 51 50 49 52 55 56 56 60 60 61 61 64 59 53 54 53
78 76 76 77 81 80 75 67 69 68 62 60 63 60 57 58 61 61 56 52 62 73 73 71 71 70 70 69 66 62 54 53 52 52 47 48 50 52 53 55 56 59 60 59 54 51 50 49 52
80 82 84 84 85 84 84 73 75 74 70 69 64 64 62 59 60 61 56 49 54 67 72 70 68 68 68 67 65 62 56 51 51 51 49 48 47 49 49 51 53 52 53 50 50 49 48 50 52
82 84 87 88 89 88 91 78 76 78 77 72 69 69 66 62 61 61 57 50 49 61 70 68 65 64 65 65 64 61 57 52 51 51 49 49 50 50 50 49 49 49 49 49 49 49 51 53 55
82 84 89 93 96 94 90 93 78 82 80 79 75 75 72 68 62 61 58 54 51 54 66 67 62 60 62 63 63 60 57 51 51 51 49 49 50 50 49 50 49 49 49 48 49 51 54 57 61
82 86 88 90 93 83 86 90 65 77 79 82 79 78 74 71 67 63 61 56 49 52 58 64 61 59 59 61 62 59 55 50 51 50 49 50 49 50 50 49 49 50 49 50 52 56 59 63 67
69 74 81 84 87 79 86 87 67 75 77 81 83 80 76 73 70 66 61 55 51 51 54 63 60 58 57 59 61 58 54 51 51 49 50 49 50 50 49 50 50 50 51 54 57 61 64 68 72
72 78 85 79 77 72 79 72 65 67 73 79 83 86 82 78 75 68 64 56 52 51 53 58 58 56 57 58 58 56 53 52 51 50 50 50 50 50 50 51 51 53 56 58 61 66 69 73 76
72 71 76 77 75 71 68 69 70 70 72 74 82 90 83 76 75 71 64 56 52 53 53 54 56 55 56 58 58 55 53 52 52 51 51 51 51 53 53 55 56 58 60 63 67 70 74 77 81
62 59 59 68 63 64 53 52 63 67 70 74 87 87 86 78 72 70 65 57 53 55 54 52 54 55 56 59 58 55 53 52 52 52 53 53 54 55 57 59 61 62 65 68 71 75 78 82 86
45 51 56 56 51 54 46 39 56 55 64 79 81 85 87 79 72 69 63 57 55 57 53 51 55 55 57 59 57 54 54 54 53 53 55 55 57 59 62 63 65 66 68 71 75 79 83 88 92
36 39 44 46 45 38 42 43 38 45 55 74 81 84 86 77 73 68 62 54 52 54 52 50 53 57 58 59 57 55 55 54 54 54 55 57 58 61 63 65 67 69 71 75 79 84 88 93 98

GFSSGP_250_spd_042.txt.gz
Wind_Speed
63 64 61 63 61 59 61 62 61 58 55 52 54 53 54 53 53 54 57 56 55 51 48 48 50 50 49 46 46 44 41 40 41 41 41 40 41 38 35 35 36 38 41 41 42 40 40 42 44
65 65 63 63 69 64 63 62 62 61 61 59 57 59 56 60 59 58 57 56 59 58 56 53 50 52 52 52 50 50 50 48 46 45 43 44 44 44 43 43 45 46 44 44 47 48 48 47 49
69 67 64 61 66 68 69 66 64 65 64 67 65 63 61 62 66 64 64 62 63 64 63 61 57 55 54 54 56 56 54 53 52 51 51 51 51 52 50 49 49 49 49 48 49 49 49 50 50
67 70 67 65 67 69 68 68 67 68 68 69 69 70 70 64 67 69 68 68 67 68 68 68 66 63 61 57 57 58 60 59 57 56 56 56 55 54 52 52 53 52 53 53 53 52 52 51 54
68 65 65 64 70 69 66 66 69 70 71 71 71 70 70 68 68 70 72 73 72 72 72 71 70 69 66 65 61 61 60 61 62 62 61 61 60 59 57 55 55 55 55 56 56 54 55 55 58
67 67 64 62 67 65 64 64 65 68 70 69 72 71 72 72 72 72 74 76 77 77 75 75 75 73 72 70 67 67 66 64 64 65 66 66 65 63 61 59 58 59 58 60 58 57 59 59 60
64 64 59 57 63 64 63 63 66 68 68 66 71 71 71 73 74 74 75 77 79 81 80 78 77 77 76 74 73 71 69 69 68 67 67 67 67 66 65 64 63 64 63 64 64 63 64 64 64
64 62 59 64 68 67 63 62 64 65 67 69 70 73 74 73 74 75 76 78 79 82 83 82 82 81 80 80 78 76 75 74 73 71 69 68 67 67 67 67 66 66 65 65 64 65 67 68 67
62 59 63 68 68 68 64 59 62 63 66 65 67 70 72 73 73 72 72 74 78 82 84 86 85 86 85 83 83 80 78 78 77 76 74 74 71 70 69 68 68 67 67 66 65 65 63 64 65
61 59 65 70 67 66 66 63 61 57 58 60 64 65 67 69 71 72 72 73 73 76 81 86 88 89 89 88 87 86 84 81 78 78 77 75 75 75 73 74 72 70 71 71 68 69 72 69 70
60 59 61 63 64 64 65 63 60 57 56 60 60 60 64 68 71 73 74 73 72 74 75 78 83 89 88 90 92 91 90 87 84 80 79 79 76 75 74 76 75 75 76 76 73 73 72 71 71
60 61 59 58 59 61 61 61 57 53 54 54 57 59 62 65 69 73 74 75 76 75 74 74 74 79 81 83 84 86 89 88 88 86 83 81 79 77 78 79 81 80 78 79 79 76 76 74 73
56 59 57 56 57 57 57 56 56 50 55 54 56 58 61 62 64 65 69 72 74 77 76 75 73 73 74 76 78 75 76 78 82 86 86 84 83 81 82 83 83 82 81 79 78 79 78 76 73
58 58 56 56 56 54 54 56 49 56 61 55 52 54 58 61 62 61 61 64 67 69 72 75 76 74 72 74 73 76 73 74 77 75 76 79 79 80 80 79 79 77 78 83 81 78 78 73 72
64 62 58 60 56 53 52 47 47 55 55 55 54 52 53 58 62 61 62 62 63 65 65 69 74 76 74 73 72 71 71 73 72 70 72 73 75 77 77 80 78 77 79 80 78 75 72 70 69
69 67 65 63 59 55 53 51 51 56 56 51 51 51 54 54 59 61 61 61 60 61 64 65 68 72 75 74 73 71 69 68 68 69 66 65 66 69 70 73 75 78 80 79 80 70 69 70 68
73 66 67 67 65 63 58 51 57 59 58 56 51 50 50 53 56 61 61 60 62 61 63 65 66 68 72 73 73 72 71 68 65 63 60 57 57 56 57 61 63 65 67 67 68 69 67 68 69
71 67 69 70 69 68 65 57 61 61 62 61 59 54 51 53 57 61 61 63 62 61 62 64 65 66 67 71 71 72 73 70 66 62 57 56 56 56 54 53 54 56 59 62 64 66 64 62 62
73 72 71 74 76 72 70 64 64 64 65 65 65 63 59 53 56 61 62 62 62 63 64 63 63 62 63 66 69 69 71 70 67 63 59 58 58 56 52 51 53 55 56 57 58 59 58 60 60
78 77 77 78 80 76 74 67 70 68 66 68 69 67 66 62 61 59 64 65 61 62 64 66 63 60 60 64 66 68 69 69 67 64 61 61 58 54 53 53 52 52 51 53 53 54 56 58 58
81 80 83 80 80 79 78 71 76 72 73 75 77 75 74 71 70 66 62 67 65 61 61 66 65 60 60 62 65 66 68 68 66 65 62 61 59 56 55 55 54 53 54 54 53 54 54 54 55
84 83 82 82 85 84 83 78 76 79 81 82 83 82 82 81 80 75 71 68 70 65 63 63 66 61 60 60 64 65 65 66 65 63 60 61 61 58 56 57 55 54 55 55 54 54 54 53 53
83 78 77 78 78 77 81 87 75 84 84 89 89 91 88 85 83 81 79 69 72 69 63 61 63 59 59 60 64 65 62 63 63 60 60 60 60 60 58 57 57 57 57 56 55 55 52 53 55
73 72 76 75 77 78 85 92 79 92 92 94 96 99 98 93 88 86 84 81 74 70 64 61 62 57 56 58 63 65 62 58 59 58 59 60 59 60 59 58 58 59 59 56 55 52 53 56 57
68 72 73 77 79 79 84 87 84 88 86 89 92 97 95 91 88 89 89 85 77 71 66 63 61 56 53 55 61 62 59 56 52 58 59 59 58 60 59 58 59 59 57 56 54 55 56 58 60
67 69 75 72 76 76 76 80 85 91 91 88 88 92 93 94 88 83 81 79 75 72 67 65 62 54 52 52 58 59 57 56 56 58 58 57 59 60 59 59 61 59 57 57 58 59 60 63 65
62 64 65 67 73 75 79 81 81 89 94 83 76 85 89 92 94 90 85 77 72 69 65 64 62 54 50 52 57 56 55 55 58 59 58 59 60 60 60 60 61 60 59 60 62 63 66 68 72
50 57 65 70 72 73 75 71 69 81 84 80 71 79 84 83 84 86 87 82 75 71 66 63 59 53 49 49 55 55 54 55 59 59 59 59 61 60 59 59 61 61 62 64 66 69 72 75 77
52 59 65 66 64 64 63 59 78 72 75 60 57 70 78 80 80 77 79 80 75 71 64 61 57 52 49 48 54 55 55 56 58 60 60 60 59 59 59 59 61 63 65 67 70 72 76 78 80
53 57 56 52 54 53 49 43 59 51 52 55 49 54 65 77 78 76 74 76 73 70 65 58 51 47 48 49 51 56 57 56 58 61 60 60 59 59 60 61 63 66 68 70 71 74 77 80 83

GFSSGP_250_spd_045.txt.gz
Wind_Speed
64 62 64 64 62 59 58 58 58 57 56 54 53 52 52 53 52 52 52 53 52 50 49 48 47 47 47 48 47 45 43 42 40 38 37 36 37 39 39 38 40 39 37 41 40 40 42 43 44
66 63 64 64 64 66 67 62 60 58 60 61 58 56 58 55 51 51 54 54 55 55 54 54 53 51 50 50 51 51 50 49 48 47 47 46 45 47 47 47 46 45 45 45 45 47 49 49 49
70 69 67 64 66 67 68 64 64 64 64 63 65 64 62 60 62 59 57 56 59 59 58 57 56 56 54 53 53 55 55 54 54 53 52 53 52 52 53 52 51 51 51 51 51 53 54 52 52
73 70 69 71 71 70 69 68 67 67 66 69 68 67 70 70 69 67 62 63 61 63 65 64 61 60 60 60 60 58 58 57 57 57 56 56 57 57 57 57 56 55 54 54 55 57 56 55 54
76 75 72 73 74 72 72 70 70 71 70 70 71 72 71 72 70 70 71 71 68 66 69 68 69 68 67 66 66 65 64 63 61 60 61 60 60 59 59 59 59 58 58 57 57 58 58 57 58
77 75 72 71 77 76 73 73 71 71 73 74 75 76 76 74 74 72 70 70 73 73 73 73 73 73 73 72 70 70 70 69 68 66 65 65 64 64 63 62 62 63 63 63 62 61 61 62 62
73 69 68 71 74 77 78 75 71 75 75 71 69 69 71 72 73 74 73 73 74 74 75 76 76 77 77 77 75 74 74 74 73 72 70 68 68 68 68 66 67 66 67 66 65 65 65 66 65
69 69 68 67 73 74 75 72 69 67 65 56 62 65 70 67 75 76 78 76 75 75 77 77 79 79 80 81 80 78 78 77 77 77 75 75 72 72 72 71 71 70 68 68 68 67 67 67 67
71 68 67 70 74 72 67 65 61 58 62 62 63 66 65 70 73 74 76 77 77 78 79 81 81 81 81 82 83 82 81 82 81 81 80 80 79 77 77 77 76 75 74 73 73 72 70 70 70
67 64 64 69 70 66 62 61 61 58 64 63 66 67 66 67 72 74 76 77 79 80 80 81 81 82 82 82 84 85 86 84 84 84 83 84 84 81 81 80 80 80 78 75 75 76 77 77 76
66 65 69 68 68 64 61 63 62 61 64 67 65 65 66 67 71 72 72 72 73 74 76 77 77 76 78 81 83 84 86 89 88 87 88 87 87 85 83 79 78 76 76 78 78 77 77 78 79
66 68 69 67 68 63 65 66 65 65 65 65 63 63 66 66 66 67 67 67 68 69 70 72 72 73 73 73 76 80 84 87 91 91 91 88 89 87 86 84 83 83 83 83 83 83 83 83 83
71 73 70 72 70 70 68 69 68 63 65 66 65 64 67 66 66 67 65 66 67 67 69 70 71 72 72 73 72 72 74 79 82 85 88 88 89 88 87 88 87 88 88 87 87 85 86 86 85
73 76 73 70 71 69 65 66 61 61 68 64 61 61 63 62 62 62 62 64 66 67 66 66 69 71 72 72 72 72 71 73 75 77 78 78 82 82 81 79 80 80 83 87 87 84 82 82 82
71 73 75 72 70 64 62 60 55 64 62 59 60 57 58 59 61 61 62 62 62 63 64 66 66 67 70 71 71 70 72 72 74 75 75 76 78 74 74 74 75 77 77 78 78 77 77 80 79
74 73 73 73 73 67 64 58 57 59 60 56 55 53 52 52 53 57 61 63 62 62 62 64 65 65 66 67 68 69 71 73 75 74 75 73 73 71 70 70 71 70 71 70 70 71 74 74 76
76 75 74 72 71 69 66 61 63 61 59 57 57 55 53 55 55 54 56 57 60 61 61 61 64 65 65 64 65 67 68 71 74 75 74 73 71 70 69 67 66 62 63 64 63 60 61 61 64
79 77 77 76 75 74 70 67 68 64 65 61 61 60 56 57 56 59 58 58 58 56 58 59 63 66 65 63 61 61 65 68 69 71 74 74 72 71 70 68 66 62 64 63 59 57 59 60 59
86 83 81 81 80 79 76 72 68 68 68 68 67 66 64 61 62 60 61 62 63 59 57 56 61 64 63 62 61 61 61 62 64 62 66 72 75 73 71 69 67 66 62 57 56 58 56 55 52
87 87 86 88 87 84 82 71 69 68 69 71 75 75 75 72 67 64 64 64 65 65 60 58 59 62 64 61 60 61 57 60 62 60 63 68 71 72 72 72 71 67 61 59 59 58 56 56 55
85 85 85 82 80 78 76 67 73 70 71 77 81 80 80 79 76 70 67 66 66 67 67 63 59 61 64 61 57 57 56 58 58 62 62 65 67 66 68 70 71 66 63 61 59 60 59 59 56
83 83 82 80 80 79 79 73 73 74 77 82 83 84 83 86 84 79 75 73 71 69 69 71 65 62 65 63 58 56 55 55 57 62 64 65 66 67 67 68 69 66 65 63 63 62 61 59 58
84 84 84 84 82 80 80 81 66 78 83 86 88 90 90 91 92 86 82 79 77 74 73 73 72 65 63 65 60 58 55 54 57 60 63 65 66 68 71 70 69 67 65 64 65 63 61 61 60
83 84 85 84 83 80 81 85 73 83 86 87 89 94 94 94 94 93 90 89 85 83 79 77 75 70 66 68 62 60 55 56 55 56 59 62 64 66 69 69 67 66 64 64 63 63 62 63 63
81 83 84 84 82 80 85 88 79 80 87 83 86 89 92 94 95 96 96 93 91 88 83 78 75 75 69 70 63 62 57 56 56 53 54 59 64 66 68 67 65 65 64 64 64 64 64 65 65
80 81 84 82 85 85 78 70 76 80 84 83 87 93 96 98 99 98 100 100 96 94 86 80 81 77 70 70 67 62 60 57 56 51 53 59 64 66 67 67 66 65 64 64 63 65 66 67 68
76 78 73 68 67 65 66 72 75 80 88 88 88 89 91 92 92 90 89 88 87 87 84 81 80 78 75 71 65 62 61 57 55 54 52 59 63 64 64 66 65 65 64 63 64 66 67 69 71
44 50 54 57 57 63 65 67 74 81 87 91 96 99 92 86 86 86 88 92 91 82 77 72 74 73 74 68 61 61 60 58 56 54 52 59 61 65 67 66 64 64 65 65 66 68 70 71 74
40 49 50 50 53 61 64 70 80 84 84 89 94 92 84 77 70 73 82 88 87 82 82 78 72 66 67 63 59 57 58 58 55 53 52 58 60 63 65 66 67 67 67 67 69 70 72 73 75
40 39 43 49 56 61 65 51 71 72 77 81 70 70 60 60 64 67 70 75 76 81 76 78 74 67 63 59 57 55 57 56 55 53 52 57 59 61 64 65 67 67 66 69 70 72 73 76 78

GFSSGP_250_spd_048.txt.gz
Wind_Speed
69 67 63 61 59 58 59 59 55 57 56 56 55 55 54 53 48 47 48 50 49 48 48 46 43 42 41 40 41 42 44 44 42 38 37 36 34 34 34 34 33 35 38 41 41 44 40 43 46
72 70 67 65 63 63 66 63 59 60 57 60 58 58 59 54 54 52 52 52 52 51 50 50 51 49 47 46 46 46 46 47 48 47 45 44 44 43 42 41 43 45 46 47 48 47 47 49 48
76 73 69 67 64 67 67 63 60 62 63 61 60 59 60 55 59 56 55 55 53 54 54 54 53 52 52 52 52 51 50 51 51 52 52 51 52 51 51 51 51 52 52 52 52 52 52 52 52
79 75 73 68 70 71 66 64 62 63 66 64 63 63 60 60 62 63 60 59 59 59 58 57 58 56 56 56 56 55 57 55 55 55 56 56 56 57 55 56 57 57 57 57 57 57 57 56 56
83 80 76 71 75 76 72 67 65 66 68 68 68 67 64 66 68 68 67 66 65 63 63 62 63 61 60 61 62 63 60 60 61 60 61 61 60 60 60 59 59 61 61 62 61 60 60 60 60
81 81 77 77 81 78 74 72 73 69 68 68 69 69 66 70 69 71 71 71 71 72 72 71 70 66 65 65 66 67 67 66 67 67 67 67 66 66 66 65 64 64 64 63 64 64 64 64 63
80 81 80 82 83 78 77 79 73 71 72 74 73 74 72 69 72 72 72 72 72 73 75 73 74 73 74 72 72 73 72 72 73 73 72 71 72 73 72 71 71 70 70 69 69 68 68 68 68
81 79 80 79 79 83 81 78 77 77 75 72 76 77 76 68 74 75 75 75 73 72 76 77 75 74 74 75 76 77 76 78 78 77 77 75 76 76 76 77 77 76 76 75 74 72 73 72 72
75 73 72 70 78 81 83 77 71 77 75 74 71 77 75 75 75 75 73 70 71 73 74 73 74 75 74 75 75 78 79 81 81 82 81 82 80 79 80 80 81 80 80 80 79 78 77 77 77
75 70 68 72 78 77 76 75 74 74 68 73 69 72 68 69 65 67 67 68 68 69 72 74 75 75 75 75 76 78 81 82 85 86 85 84 84 83 83 83 84 84 83 82 81 82 78 75 74
70 64 70 70 70 71 73 72 71 71 66 68 68 69 63 61 63 68 68 67 71 71 73 73 74 75 75 77 77 77 79 81 84 86 85 84 85 85 84 84 84 85 86 86 83 81 83 79 76
69 66 69 69 68 69 68 66 65 63 64 64 62 65 60 66 62 66 68 68 67 64 65 68 69 71 72 72 73 74 75 75 75 78 82 85 85 84 84 85 86 86 85 86 86 88 86 84 86
70 68 69 67 65 69 66 63 62 59 58 64 62 64 63 67 64 65 66 66 69 66 64 65 64 64 62 65 65 66 68 69 71 74 75 77 78 79 81 84 86 86 87 88 87 84 85 83 82
71 71 69 68 69 69 65 68 63 59 66 66 64 65 67 67 68 66 68 70 68 66 63 64 64 65 63 64 64 62 65 67 71 72 73 75 75 73 73 76 77 79 78 80 80 77 78 79 77
75 77 72 68 71 69 70 67 65 68 66 65 65 67 68 66 67 66 69 68 69 65 62 62 63 61 64 63 62 60 60 62 66 71 75 76 75 73 72 73 73 75 74 73 74 76 75 75 74
81 77 73 74 74 72 71 68 70 68 70 68 64 65 65 66 65 65 65 67 67 65 63 61 61 62 61 58 62 59 58 61 63 65 66 70 72 74 74 73 74 75 73 74 74 73 71 72 71
80 79 79 78 75 73 73 70 71 69 73 67 66 64 61 60 61 62 62 62 62 62 61 60 59 59 61 59 58 59 57 57 62 61 62 67 66 69 73 76 75 75 74 74 73 71 71 69 66
82 82 79 78 76 77 74 68 70 68 68 69 68 65 60 60 62 64 64 63 62 62 61 59 56 55 56 57 56 60 57 55 60 60 60 61 62 66 69 72 74 77 75 74 75 73 72 70 65
79 81 83 84 82 82 77 73 71 70 66 73 70 68 68 67 68 66 66 66 64 63 62 60 59 55 56 54 53 55 56 55 60 62 60 59 59 62 64 66 68 71 73 74 76 74 73 70 65
85 83 84 84 84 80 78 73 71 73 71 72 73 74 75 75 70 69 69 67 68 66 67 66 64 59 59 56 54 52 46 52 59 59 60 61 61 60 61 64 67 67 70 73 76 75 74 71 66
90 89 89 85 82 82 79 74 75 73 75 78 80 82 83 79 75 72 71 70 70 72 75 74 70 67 58 63 59 51 48 52 52 55 58 59 59 61 58 63 66 68 68 70 71 72 73 71 68
89 89 89 90 87 86 85 81 80 82 83 83 85 84 82 80 78 79 78 77 75 75 78 77 75 73 69 65 63 59 56 53 55 49 54 52 56 57 56 58 65 69 69 71 70 68 67 68 67
90 89 89 90 91 89 88 87 76 83 82 81 79 79 83 83 83 84 83 81 82 81 79 81 80 77 76 69 68 63 61 58 54 54 54 54 54 55 57 58 62 68 69 69 70 70 69 68 67
87 89 88 88 88 86 85 84 71 78 78 81 85 84 86 88 89 89 89 89 90 89 85 83 81 79 79 74 73 66 68 64 62 63 59 54 54 53 56 58 60 64 67 69 70 72 72 71 68
83 83 84 86 84 80 82 81 77 78 80 85 90 92 91 94 96 97 97 97 95 91 89 89 86 84 83 81 77 76 69 66 65 65 60 56 54 51 53 57 58 62 66 68 70 70 71 70 69
76 78 81 81 82 82 82 77 77 81 84 92 93 96 99 101 102 103 100 94 94 92 88 88 85 84 83 81 80 80 66 67 65 66 61 58 55 53 53 54 57 62 65 66 69 71 72 71 69
69 70 73 72 74 74 74 77 79 85 88 95 98 99 102 103 97 94 91 89 89 89 90 89 85 81 84 81 84 76 64 69 67 63 62 62 57 53 54 55 55 60 66 67 69 71 72 72 71
56 62 65 67 68 71 72 76 82 84 89 87 88 88 90 92 92 93 92 93 92 90 89 91 88 83 85 85 84 77 74 74 70 63 62 62 58 53 55 56 56 60 65 68 70 71 72 73 74
53 57 59 61 64 65 62 59 63 70 72 76 83 87 90 90 90 94 93 95 94 91 85 82 85 80 77 73 69 70 70 71 65 63 61 62 57 54 54 56 56 58 65 69 70 73 76 77 77
41 42 39 35 35 41 43 43 62 70 79 79 83 84 85 83 80 78 80 80 71 74 76 76 74 72 76 71 69 66 63 60 61 62 60 59 55 53 53 56 56 58 64 68 69 70 73 76 78

GFSSGP_250_spd_051.txt.gz
Wind_Speed
69 65 62 60 58 57 58 60 55 55 53 51 53 54 52 48 45 43 45 46 44 42 43 46 47 46 43 42 41 40 38 38 39 40 41 39 36 36 34 33 33 34 33 32 34 37 38 42 44
73 69 65 61 61 62 65 61 58 57 55 56 56 54 54 52 53 52 51 49 48 47 46 47 47 46 45 46 46 44 43 43 42 43 44 45 45 44 43 42 41 41 41 41 43 45 49 51 51
76 72 69 63 65 69 72 61 59 59 58 60 56 55 53 50 57 55 54 52 51 50 51 50 49 50 49 47 48 50 50 48 48 48 48 48 49 49 49 50 49 48 49 50 53 55 55 54 54
76 73 72 66 72 74 74 65 62 61 64 62 58 61 56 54 60 54 52 56 54 55 53 55 53 53 53 53 53 53 52 54 54 52 54 53 53 54 55 55 56 57 55 57 58 58 59 59 59
79 76 73 69 75 75 76 69 64 66 69 64 66 63 59 58 63 60 54 56 58 59 57 57 57 57 57 57 57 57 58 59 59 58 57 58 59 60 60 60 59 59 61 61 61 63 63 64 64
81 79 77 74 78 77 77 73 68 68 69 67 66 63 60 62 65 64 61 62 63 63 62 62 62 62 63 63 63 64 62 63 65 64 64 64 65 64 65 66 65 65 66 66 65 66 66 66 67
84 81 80 81 82 80 79 78 71 71 72 71 71 65 60 62 67 67 65 65 66 66 67 66 68 68 69 70 71 71 71 69 69 69 70 70 70 70 71 72 73 72 71 72 72 72 73 73 73
88 85 80 81 82 81 84 83 78 75 73 75 73 71 66 67 70 69 67 68 69 68 68 68 69 69 70 72 73 74 75 75 74 75 76 77 76 77 76 78 77 77 76 76 77 77 76 77 78
91 86 81 80 82 85 89 83 78 74 77 78 74 73 72 72 73 72 69 69 69 69 69 68 69 70 69 70 72 74 77 78 76 74 76 78 80 80 81 82 81 82 81 80 79 80 80 81 81
87 83 77 80 86 89 87 81 76 75 77 80 76 79 76 73 75 77 76 70 68 69 69 66 66 66 67 68 71 73 75 76 76 76 77 78 80 80 81 82 83 84 84 83 83 82 83 83 84
81 77 79 81 84 85 84 84 77 75 79 75 77 81 79 75 74 71 72 70 69 67 64 63 65 66 68 69 71 73 74 77 77 78 80 82 82 82 82 83 84 85 84 86 84 85 84 85 84
81 81 78 80 82 80 76 78 78 74 70 73 78 80 78 77 79 77 74 69 69 67 64 62 65 65 67 72 74 75 74 75 75 77 79 81 80 81 82 81 80 83 84 84 85 84 83 81 83
77 79 78 78 77 74 74 76 72 68 67 73 73 73 69 67 74 72 69 67 64 64 64 63 63 64 68 68 69 71 70 69 68 70 69 71 72 73 75 77 77 76 78 80 80 81 80 81 82
78 77 74 73 75 72 75 74 65 62 68 69 66 65 62 63 66 62 60 61 61 63 65 66 65 64 67 69 66 67 67 64 64 65 65 64 67 68 70 70 71 72 73 74 74 74 73 72 72
74 75 74 75 77 74 75 67 60 66 64 64 64 62 62 58 59 61 61 63 63 65 66 67 68 65 68 67 65 61 62 61 61 64 67 66 65 64 66 65 66 68 74 76 76 74 73 71 71
76 75 73 77 75 72 72 65 67 64 62 62 62 62 62 64 63 63 65 65 67 67 64 66 67 66 65 65 62 60 61 61 61 61 62 64 63 62 61 60 62 65 68 72 76 76 75 74 73
81 78 77 78 76 74 70 68 70 64 63 64 66 65 65 67 65 66 68 67 66 68 69 67 64 62 60 60 60 58 58 58 56 58 57 58 60 61 60 60 61 62 63 66 69 73 76 77 77
84 81 77 77 76 74 72 70 72 68 67 68 67 68 67 68 70 70 69 67 65 64 65 66 62 60 60 59 59 58 53 51 55 56 57 58 60 60 59 59 62 62 62 62 64 68 70 73 76
84 81 78 78 78 76 77 74 75 72 67 70 69 68 66 68 71 67 67 68 68 66 64 65 68 64 60 61 59 59 60 54 54 53 53 53 56 56 58 59 61 62 61 61 61 63 68 70 71
84 81 79 79 76 71 75 74 77 77 72 73 75 74 72 72 68 66 67 69 72 71 70 70 69 70 64 64 62 59 59 57 55 54 54 49 50 53 53 58 61 63 64 63 63 63 65 69 70
89 86 83 77 77 75 73 70 75 77 78 80 81 79 78 77 74 73 73 73 75 75 77 79 75 73 72 69 68 64 63 59 55 56 56 56 55 52 50 50 56 61 60 61 63 64 64 65 68
85 88 87 85 81 78 77 72 73 77 80 81 82 80 80 78 77 78 79 81 82 83 83 81 78 76 73 73 73 69 68 68 63 63 58 58 55 53 47 50 55 57 58 61 64 65 65 65 67
79 83 90 88 86 83 82 78 76 78 78 79 79 81 82 82 83 85 87 89 89 86 83 81 80 80 79 76 76 77 73 71 69 67 63 58 55 50 51 56 60 58 58 59 63 63 62 65 68
74 77 82 87 89 85 86 82 77 79 83 86 87 88 89 91 93 95 94 92 90 88 85 84 85 86 85 83 78 79 81 78 73 70 64 61 61 61 63 61 59 58 59 59 60 61 62 64 65
77 75 74 78 82 84 86 85 78 81 84 88 90 93 94 95 95 95 94 92 91 91 92 91 90 89 90 89 84 83 83 85 79 69 68 68 69 67 66 64 60 58 59 60 59 59 58 61 64
75 77 82 80 78 78 80 80 81 85 88 88 90 92 94 95 96 97 97 98 98 98 98 98 96 93 94 92 88 89 85 83 80 76 72 68 68 70 69 65 64 59 59 60 60 59 58 60 64
70 71 72 76 80 79 77 74 76 80 86 91 93 94 96 98 102 103 103 103 104 104 103 103 103 103 98 97 93 80 74 71 67 70 71 72 70 68 67 64 64 62 61 59 59 59 60 62 65
59 60 62 63 62 66 72 73 76 81 83 85 86 88 92 96 100 102 103 103 104 106 107 106 105 102 95 86 78 70 66 65 66 66 69 70 68 67 66 66 65 63 61 59 59 61 61 62 65
41 44 45 47 50 53 60 65 74 76 75 80 84 89 94 95 95 95 96 104 108 104 99 99 96 89 80 77 76 74 72 72 72 72 71 69 69 69 68 65 65 62 60 60 60 62 63 64 65
33 33 35 38 41 47 47 58 65 68 71 76 81 87 87 88 91 89 92 97 101 106 102 100 99 91 87 79 82 79 71 70 69 68 65 64 65 65 65 64 65 63 59 60 61 65 65 65 65

GFSSGP_250_spd_054.txt.gz
Wind_Speed
77 71 68 66 61 60 62 62 55 56 53 53 50 48 46 44 43 44 43 41 41 40 39 38 38 40 40 37 38 39 39 40 40 41 40 39 39 38 38 37 36 35 34 34 35 36 36 37 39
77 72 69 65 62 62 65 63 60 58 57 54 53 52 48 47 49 50 48 47 48 47 44 43 42 41 41 44 46 45 45 46 46 45 44 42 41 43 43 45 45 44 43 43 42 42 42 42 42
77 74 72 67 65 67 71 63 59 58 59 59 56 53 50 52 54 53 52 51 52 50 49 48 48 48 47 46 47 46 46 46 48 49 48 48 47 47 47 48 49 49 50 51 50 50 49 50 51
81 77 73 68 69 75 75 66 60 60 61 60 58 57 53 54 55 55 54 53 54 54 53 52 52 51 50 49 50 52 51 49 50 50 53 54 55 54 54 54 54 54 55 56 56 57 57 57 58
84 80 76 72 74 78 77 68 64 63 64 65 60 57 55 55 56 55 54 55 55 54 53 53 53 53 52 52 53 54 55 55 55 55 56 57 57 57 59 59 59 59 59 61 61 62 63 62 63
86 82 77 72 78 79 77 72 68 66 67 69 61 59 56 56 58 60 58 57 57 57 57 57 57 57 58 57 58 58 58 59 59 60 61 61 61 64 63 65 66 65 65 65 66 67 68 68 68
88 86 82 83 82 78 82 75 70 70 69 72 67 63 61 61 63 61 61 62 63 62 62 61 63 63 63 62 62 63 63 63 65 66 67 68 70 70 71 71 71 71 70 71 72 72 73 74 74
95 89 85 84 85 85 85 76 72 71 71 72 67 65 65 67 63 62 62 63 63 63 62 62 65 64 65 66 67 67 67 68 69 70 71 72 73 74 75 76 76 77 78 78 77 77 79 79 79
95 88 85 83 84 88 89 84 78 74 74 72 69 69 69 69 66 64 67 65 66 67 66 66 66 67 69 69 70 69 70 70 70 72 73 74 76 78 78 80 80 80 79 79 79 79 81 81 82
96 90 85 84 89 91 92 83 79 75 75 76 76 75 72 73 71 70 71 70 70 71 69 68 70 69 68 70 70 71 71 72 72 73 75 77 76 78 78 79 79 81 81 81 81 83 83 84 83
97 92 89 90 92 92 87 83 81 76 77 80 80 78 76 75 76 75 74 74 73 73 73 73 73 73 71 68 67 68 69 72 71 74 76 78 78 78 79 81 81 82 83 83 85 86 84 84 85
95 93 92 95 96 91 88 85 84 82 79 83 85 80 77 77 77 76 75 76 76 75 74 73 71 71 69 67 67 70 71 73 74 75 77 79 79 80 81 81 84 81 80 80 81 82 81 81 81
93 92 93 94 95 90 89 87 85 80 79 81 86 82 80 79 77 77 77 76 74 74 73 74 75 75 72 70 68 70 69 71 72 74 75 76 77 80 78 77 74 72 74 74 74 75 74 75 75
91 91 90 88 88 85 84 83 83 80 79 80 83 82 80 74 76 77 73 75 76 75 72 74 72 70 67 67 66 67 68 69 71 72 73 74 75 74 72 69 68 68 69 70 72 73 72 72 74
88 91 90 89 90 90 89 84 77 79 88 79 77 76 74 74 73 76 75 74 72 74 69 67 66 61 62 63 65 67 70 70 72 74 72 70 70 70 68 66 66 67 69 68 67 67 69 70 71
85 85 83 87 89 86 83 77 78 81 76 72 74 74 72 71 72 73 70 71 73 71 65 61 61 62 62 63 61 58 62 64 67 67 68 66 66 66 66 64 65 66 66 66 67 66 66 66 67
84 80 80 86 85 83 78 72 77 77 71 70 72 73 71 71 69 69 70 69 68 67 63 63 64 64 63 63 64 61 60 64 64 64 62 62 63 63 62 61 63 63 62 63 64 66 67 67 66
85 85 81 79 77 78 76 71 72 70 69 69 70 72 70 70 68 70 67 67 65 66 66 65 65 69 66 64 62 61 59 62 61 58 62 58 57 56 55 56 60 62 64 63 64 64 65 66 66
86 83 80 80 78 72 72 69 75 78 71 69 71 72 70 68 70 68 68 69 70 69 70 70 67 65 66 64 64 67 68 65 63 60 60 62 62 60 58 57 57 56 59 62 64 64 63 65 66
88 83 83 83 78 74 74 70 75 74 70 70 74 75 74 71 70 70 71 70 69 71 72 72 71 72 67 66 67 66 64 62 63 62 62 66 64 60 57 57 56 57 58 59 59 61 62 64 66
90 89 86 82 79 78 77 74 75 76 73 73 76 76 76 75 74 74 73 73 75 76 76 76 76 76 72 70 69 69 72 67 63 64 66 68 68 68 65 60 62 64 63 62 58 54 56 58 61
86 90 86 83 81 77 77 73 78 76 75 77 77 77 81 81 81 80 79 80 83 83 83 83 83 80 77 75 73 72 77 78 72 69 67 69 67 68 69 66 64 59 60 62 56 60 63 64 63
79 83 90 86 84 80 78 75 78 77 78 78 79 78 81 82 83 83 83 85 87 87 87 87 86 84 84 81 80 81 79 79 76 71 65 66 63 62 62 64 67 66 65 63 60 63 68 68 66
73 76 80 89 89 82 82 77 77 80 79 80 81 82 82 83 83 85 86 86 88 89 90 90 89 90 90 90 88 86 83 79 75 74 70 68 69 66 67 72 70 72 74 68 67 72 73 72 69
72 70 71 73 75 78 85 83 85 83 83 83 86 87 87 88 88 87 87 90 91 93 95 97 98 100 101 100 96 90 83 80 80 80 79 76 76 72 73 73 82 78 76 75 76 77 74 74 70
73 72 70 66 69 73 75 75 83 87 89 89 89 90 90 92 93 94 96 99 102 104 106 108 109 109 109 106 100 93 88 84 83 84 83 80 78 79 79 82 80 81 79 78 73 74 72 72 71
71 68 68 67 66 65 68 69 76 81 89 90 89 91 94 96 96 98 100 104 107 109 111 114 116 114 110 106 101 98 93 90 88 87 87 83 83 79 80 74 71 76 78 75 70 72 71 72 71
73 72 71 70 67 66 69 72 74 76 79 85 88 90 93 96 99 99 101 104 107 109 112 112 111 109 106 102 98 97 95 92 89 87 87 86 85 74 67 64 65 67 68 69 68 71 72 74 71
59 67 76 73 69 70 68 69 72 74 76 78 82 85 88 91 95 97 98 101 104 106 108 110 108 100 97 96 95 94 97 95 92 87 83 73 63 63 63 62 62 64 64 66 69 73 75 73 72
57 56 55 53 59 63 64 72 69 64 64 65 65 72 79 86 86 88 93 97 100 101 104 105 102 98 97 94 94 93 92 91 85 76 70 67 65 62 62 62 64 65 66 69 72 75 75 73 74

GFSSGP_250_spd_057.txt.gz
Wind_Speed
78 76 73 69 66 63 64 62 58 56 53 51 50 48 44 40 39 40 40 38 38 37 37 35 34 34 34 35 36 35 36 36 36 37 39 40 41 41 41 41 40 40 39 38 38 38 37 37 38
83 81 78 73 68 67 69 65 63 59 58 55 52 49 48 48 45 44 43 43 44 42 42 41 39 38 38 37 37 38 41 43 45 45 44 44 46 46 45 45 44 44 44 45 46 46 45 45 45
88 85 82 77 70 70 75 71 64 62 63 58 54 52 52 52 50 47 46 47 48 49 48 47 46 46 45 44 42 44 45 45 45 45 45 46 48 49 50 50 50 50 50 50 50 51 51 52 54
92 89 84 78 74 78 80 73 65 64 62 62 60 56 54 55 54 52 51 51 51 51 51 52 51 51 50 49 50 49 50 49 48 49 49 49 48 48 50 53 55 56 57 57 56 57 58 58 58
91 90 86 80 79 80 83 76 66 64 61 61 57 56 56 59 60 57 55 53 53 54 54 53 53 54 54 53 52 51 52 51 51 52 53 53 52 53 54 55 55 57 57 58 59 62 63 64 64
92 86 81 78 80 83 83 77 69 67 65 63 60 56 54 57 57 57 58 57 56 56 56 55 54 54 53 53 54 55 55 54 57 57 57 57 58 58 60 60 61 62 64 64 66 67 67 69 70
95 90 84 82 83 82 82 76 71 69 66 67 65 59 56 59 60 60 59 57 57 57 57 56 56 56 56 56 57 58 58 60 60 60 60 61 62 63 63 64 66 67 68 70 72 73 73 73 75
99 95 88 85 86 87 84 77 73 69 71 72 66 62 61 62 63 64 62 60 61 61 60 59 59 59 59 59 60 59 59 60 63 63 64 65 65 67 67 69 70 70 71 74 73 75 77 79 80
103 97 90 88 87 91 89 83 78 73 75 72 68 67 66 66 68 67 65 66 64 64 63 61 60 62 62 63 64 64 64 65 67 68 67 68 69 69 70 70 72 73 75 75 76 77 78 79 80
101 96 93 92 92 95 91 85 80 76 73 70 69 69 68 68 70 69 69 69 67 67 65 65 64 64 66 67 65 66 67 68 69 71 73 72 71 71 73 74 74 76 77 77 79 79 79 81 82
102 96 95 95 98 98 95 90 85 81 77 76 75 75 71 71 71 72 72 72 70 68 69 69 69 70 70 69 68 69 71 71 71 69 70 71 72 73 76 75 78 79 81 81 81 81 83 85 84
98 98 98 98 100 99 97 91 86 82 81 78 80 77 77 75 73 75 77 77 74 73 72 73 74 73 73 73 71 74 74 75 76 77 78 77 76 76 79 79 80 83 82 83 82 82 84 83 83
101 97 97 98 100 99 96 93 87 83 84 81 82 81 80 76 75 78 79 78 77 76 76 76 76 74 74 74 76 75 74 75 75 76 76 77 77 79 80 80 82 81 81 79 81 82 81 81 78
103 98 99 100 99 97 95 94 91 85 86 82 83 84 81 79 78 79 80 81 80 80 79 77 76 75 75 76 76 75 74 74 75 74 75 76 77 77 77 79 80 81 82 81 80 79 77 76 73
99 99 98 97 97 95 95 92 87 89 88 88 86 83 79 78 78 79 82 82 82 81 78 77 78 77 77 75 75 76 74 72 71 72 73 76 75 77 79 79 79 76 76 75 73 72 72 70 70
97 97 96 97 97 96 96 87 88 89 93 87 88 86 82 79 78 78 83 84 82 80 80 80 79 76 74 74 75 71 69 69 66 65 65 67 67 70 72 69 70 70 69 70 68 66 66 68 69
95 90 90 93 95 96 91 84 89 88 88 81 81 83 84 80 78 79 84 87 86 79 77 77 74 73 70 67 67 66 59 63 65 66 67 64 65 64 67 66 65 64 60 60 62 61 61 63 65
92 93 88 87 90 91 88 81 86 86 83 80 80 79 81 81 80 82 83 83 80 76 73 75 73 73 74 72 67 63 64 61 64 65 66 63 65 65 67 62 59 60 61 61 60 62 63 61 60
96 91 89 85 84 83 81 81 85 87 83 81 79 80 79 80 83 78 79 82 78 75 73 72 73 72 73 70 68 69 68 64 63 64 68 71 70 66 61 65 63 63 64 63 61 62 64 63 63
100 92 89 89 84 77 77 72 75 80 80 79 76 75 77 77 77 78 77 78 77 76 72 71 70 70 71 72 72 72 72 67 65 65 67 65 65 65 66 69 67 67 67 68 70 72 68 68 66
91 97 94 91 86 82 78 74 74 75 75 77 78 76 73 73 73 74 74 77 78 74 74 74 72 72 72 71 74 75 75 72 67 64 65 69 72 72 71 72 71 71 71 70 69 71 73 72 69
83 91 95 92 87 81 82 76 78 75 76 77 77 77 77 77 76 76 75 76 76 77 77 77 78 78 76 75 75 78 79 81 79 76 76 75 74 72 71 69 71 74 73 70 68 72 74 73 71
74 81 87 89 87 82 81 78 83 79 79 79 80 78 76 76 77 76 75 77 78 79 81 82 84 84 85 84 83 83 83 84 84 81 79 77 77 71 70 71 73 71 72 73 72 75 79 79 78
69 68 74 85 87 85 84 78 84 84 82 82 82 80 79 79 80 81 80 80 82 84 86 88 89 91 91 91 89 87 87 86 86 87 83 79 76 81 80 75 73 72 71 75 78 79 82 83 82
74 74 71 74 81 84 86 82 86 84 85 85 82 82 82 83 84 85 87 87 87 87 89 89 91 93 95 95 95 94 92 91 91 90 89 87 88 91 87 84 79 77 79 79 80 83 84 84 84
76 70 65 66 68 72 80 85 85 84 85 86 87 86 86 85 87 88 90 91 93 94 95 96 97 99 100 100 100 99 96 96 95 96 96 97 97 97 95 86 81 80 82 83 81 83 86 87 85
68 60 59 59 62 68 71 73 81 84 85 86 86 87 87 87 89 91 93 94 95 98 101 103 106 107 108 109 108 108 106 105 105 104 105 103 101 97 93 89 87 86 84 84 83 84 84 83 79
69 65 67 64 58 61 63 68 71 74 79 81 84 85 88 95 97 98 99 100 102 104 107 109 112 114 115 115 114 113 112 110 108 108 107 103 100 94 91 88 85 84 83 80 81 81 78 73 69
68 67 66 64 65 65 65 68 69 69 72 75 79 84 87 88 89 91 94 98 105 110 114 117 121 123 123 122 119 116 113 110 106 103 101 96 92 89 83 82 82 80 80 78 74 71 70 66 65
63 70 70 66 61 61 65 67 66 67 66 68 72 71 72 75 82 86 88 92 97 101 106 110 112 112 112 110 107 104 103 103 101 98 96 92 91 87 83 81 79 75 71 67 65 67 65 65 67

GFSSGP_250_spd_060.txt.gz
Wind_Speed
80 77 75 71 67 65 65 63 59 56 54 49 48 44 43 44 39 34 38 37 36 35 34 35 33 31 30 31 31 31 31 31 32 33 34 35 37 39 40 41 41 42 42 42 42 40 42 43 44
85 83 79 75 70 68 68 65 61 58 58 55 51 49 46 46 45 40 39 39 38 39 38 37 36 36 35 34 35 34 34 34 35 36 37 41 43 44 44 43 45 45 45 46 46 47 47 47 48
90 87 83 77 72 71 74 70 64 61 60 57 55 52 49 50 48 45 44 43 42 41 41 41 42 41 41 41 40 39 39 39 39 40 41 43 44 44 44 44 45 46 48 49 50 51 52 54 54
94 91 86 78 75 78 78 73 67 65 63 60 57 56 54 52 51 49 48 48 47 46 45 45 46 47 46 46 46 46 45 45 46 47 48 47 47 47 46 47 48 48 49 51 52 53 54 56 58
96 93 88 80 80 82 82 77 72 69 66 64 60 59 58 57 56 54 52 51 51 49 49 49 49 50 50 51 52 51 51 51 52 51 49 49 50 50 51 52 54 52 54 55 55 56 58 60 61
97 93 89 83 83 86 86 82 76 73 70 66 65 64 62 60 61 60 57 54 54 53 52 52 52 51 52 53 54 54 53 53 52 52 52 52 53 54 55 55 56 57 58 58 59 61 62 64 67
97 93 90 90 87 88 91 86 80 76 74 71 68 66 64 62 60 61 61 59 58 57 58 58 57 55 55 56 56 56 56 55 55 55 55 56 57 56 57 58 60 61 61 62 62 64 66 67 69
101 96 91 88 89 88 93 89 84 78 76 73 72 68 67 64 62 60 60 60 59 58 58 57 56 56 57 57 57 58 58 58 58 57 57 58 59 58 60 61 61 63 63 63 64 67 69 70 72
103 99 92 89 88 89 94 92 86 82 80 78 74 71 70 66 65 64 63 63 61 59 58 59 58 58 58 58 58 58 57 58 59 59 60 60 61 61 63 64 66 66 65 67 70 71 73 74 77
105 96 93 96 95 93 97 91 86 82 79 78 74 71 70 68 67 66 66 66 65 62 61 62 62 61 61 62 61 60 60 61 62 63 62 63 65 66 67 67 67 70 73 75 75 74 76 77 77
104 98 96 98 101 99 99 93 86 81 79 78 73 71 70 69 69 70 69 69 68 66 67 66 64 63 63 65 65 63 64 65 67 67 68 68 68 70 72 73 75 75 76 76 78 77 79 79 79
106 100 99 101 102 101 100 96 90 86 84 82 78 75 75 73 72 71 71 69 67 67 67 67 66 65 66 66 66 66 67 68 69 70 71 72 72 74 75 77 77 76 78 78 78 79 79 81 81
104 104 102 102 105 103 101 98 93 88 87 83 82 79 78 77 75 73 73 73 74 74 71 70 70 69 69 69 70 70 71 71 71 72 73 74 76 76 79 79 80 77 79 79 80 79 80 81 83
106 101 101 103 103 102 102 100 97 90 88 87 84 84 82 79 79 78 78 79 80 79 76 73 73 73 72 72 72 74 74 75 75 76 78 79 78 80 79 78 78 79 78 79 78 80 80 80 77
103 104 100 99 101 100 100 98 92 96 93 88 85 85 84 83 81 79 78 80 82 81 80 79 78 76 77 76 76 76 76 78 78 78 78 78 78 78 74 73 77 72 73 73 71 73 75 76 71
105 103 101 101 97 97 98 93 91 95 92 91 88 87 84 81 79 79 80 82 83 82 81 79 78 78 79 78 76 75 75 76 77 77 77 77 73 68 68 69 69 68 70 70 69 71 69 69 67
97 94 98 101 100 98 95 91 91 92 92 90 87 86 85 84 80 81 84 83 83 82 81 79 79 79 79 79 78 77 76 73 72 73 71 68 66 67 69 67 63 64 65 67 64 61 63 64 64
96 87 92 98 100 98 94 87 90 88 88 87 85 86 88 88 85 83 84 85 85 83 83 83 82 83 82 82 80 79 77 74 70 68 68 66 68 68 67 68 65 67 67 65 62 64 68 68 67
102 99 91 94 96 93 92 89 92 92 87 88 86 85 83 85 86 86 84 81 80 81 81 80 81 82 82 78 80 79 76 75 72 69 66 65 67 68 67 67 63 63 64 64 65 69 70 68 70
98 97 96 92 91 89 89 87 86 89 88 86 86 86 85 84 86 88 85 82 80 81 81 79 78 79 80 79 80 77 77 72 70 69 66 65 65 65 68 67 67 66 68 71 74 73 70 72 74
97 95 96 96 92 85 81 83 87 87 86 86 87 86 83 82 83 84 83 80 79 81 81 79 78 78 80 80 79 77 76 74 73 73 74 75 70 69 67 67 70 73 74 76 76 76 74 75 76
101 96 96 96 94 88 82 74 79 81 84 83 82 81 82 82 82 81 80 81 81 80 79 78 78 77 77 78 79 78 77 77 78 78 78 77 76 77 76 77 78 76 77 78 78 79 74 79 78
100 94 94 95 93 90 87 79 81 78 80 78 75 75 77 77 77 78 79 79 77 77 77 78 78 77 77 78 78 78 77 79 82 83 83 82 82 82 76 77 80 78 79 78 80 79 80 82 84
85 86 89 90 91 92 89 84 85 82 78 76 77 77 75 74 76 76 77 78 79 79 80 80 81 81 81 81 81 81 83 84 85 87 89 90 89 88 87 87 85 84 83 81 80 84 87 86 87
71 76 77 77 79 83 91 93 88 87 84 81 78 78 77 78 78 77 77 78 79 81 82 83 83 85 86 87 88 88 89 89 90 92 93 94 96 93 93 92 92 89 87 88 89 92 94 93 86
69 67 68 69 68 71 79 83 94 92 88 86 83 83 81 81 82 82 82 82 84 85 87 88 90 92 93 94 96 97 98 98 97 97 97 97 97 98 97 95 92 93 93 92 96 96 96 92 83
67 65 65 66 67 64 61 67 78 86 92 91 87 84 83 83 82 83 84 85 86 87 90 92 94 96 99 101 102 103 105 106 106 106 104 103 102 100 100 101 100 100 102 101 100 98 93 87 86
71 70 65 66 65 63 65 66 68 72 79 84 90 89 88 87 85 85 86 89 91 93 95 97 99 101 104 107 108 109 111 112 113 113 111 109 107 106 105 106 106 106 105 105 99 93 87 83 84
62 68 68 63 64 69 68 65 63 63 64 69 77 83 87 90 91 91 92 93 94 95 98 102 104 108 111 115 118 121 123 123 123 122 120 117 116 115 110 106 104 102 100 95 92 87 84 82 83
55 56 61 63 67 69 68 67 63 58 59 60 65 71 74 78 82 83 86 89 92 95 99 102 106 109 112 114 115 115 114 112 111 111 111 110 109 108 106 104 101 97 92 88 87 86 83 82 80

GFSSGP_250_spd_063.txt.gz
Wind_Speed
83 80 75 72 68 65 64 63 60 56 53 50 48 44 42 42 39 37 36 33 33 33 33 32 33 33 32 32 30 27 27 28 28 28 29 28 30 31 33 35 38 40 40 40 41 42 43 43 43
88 83 79 74 68 69 70 67 65 59 56 52 50 48 45 44 44 42 41 37 34 35 36 36 35 34 32 32 31 30 31 31 31 31 31 31 33 35 38 39 40 41 41 40 41 43 43 45 46
92 90 86 78 72 73 76 72 66 64 60 55 52 51 49 45 45 46 45 43 38 37 38 37 37 37 36 37 36 36 37 35 35 35 35 36 37 38 41 42 42 43 42 42 43 45 47 46 48
98 95 90 81 78 82 81 74 71 68 65 61 57 53 54 51 47 46 47 48 45 42 40 40 40 40 40 39 41 41 41 41 42 42 42 42 43 45 46 46 45 45 45 47 49 49 49 52 52
98 98 91 84 84 85 84 78 73 72 69 66 62 59 58 56 53 51 49 49 51 48 46 45 43 43 43 44 45 46 47 47 47 48 48 48 49 49 50 49 48 47 49 51 51 51 54 55 56
101 97 93 86 87 89 87 82 77 75 72 68 66 62 59 58 56 55 54 51 51 52 50 50 49 48 46 46 47 47 48 48 49 50 51 51 51 50 50 52 51 51 51 51 53 55 55 56 58
101 97 90 93 92 93 92 85 81 79 75 71 68 65 64 64 61 58 57 56 55 55 55 54 53 54 52 50 50 51 51 50 51 52 53 54 54 54 55 54 54 55 56 56 56 56 58 58 59
104 101 93 89 89 93 96 89 86 81 78 75 73 70 69 68 65 61 61 60 60 58 59 60 58 55 54 54 54 54 55 55 56 56 57 56 57 57 55 55 55 55 56 58 60 60 60 63 66
106 101 95 89 87 92 96 95 90 85 82 79 77 76 75 73 69 67 65 65 63 62 60 59 59 58 58 56 56 55 56 55 55 56 56 56 57 57 58 58 58 58 60 61 62 63 64 68 70
109 100 94 95 93 91 97 97 94 89 85 82 80 79 78 76 73 72 70 68 67 63 60 60 59 59 58 58 58 57 57 59 59 58 58 60 60 61 62 63 62 62 62 64 65 67 70 71 73
110 104 100 98 99 96 98 95 94 92 88 86 85 84 82 79 77 75 73 70 67 68 65 64 63 62 61 61 61 61 62 61 61 61 61 63 64 64 64 65 64 65 66 68 71 71 74 73 75
113 107 105 104 102 100 99 96 91 90 91 90 86 86 86 84 80 76 77 75 71 69 69 67 66 64 64 63 63 64 63 64 64 64 65 65 65 66 67 66 68 70 70 72 73 74 74 76 76
117 112 109 108 107 103 103 99 95 89 89 87 86 84 87 87 85 82 78 74 71 69 68 68 66 66 65 63 64 65 66 65 65 67 68 68 68 70 72 72 73 74 74 75 75 76 74 77 73
118 117 114 112 111 108 104 101 96 92 89 88 86 83 82 82 81 79 77 76 73 71 70 69 70 69 69 68 69 70 71 69 69 71 73 73 74 75 76 76 76 76 76 76 74 73 73 71 73
121 117 119 114 113 110 107 104 95 96 94 90 90 88 86 85 83 81 82 80 78 76 75 75 71 71 71 72 73 74 73 73 75 76 77 77 76 75 75 76 75 75 76 74 70 70 72 71 68
120 118 114 116 114 110 109 102 98 97 93 91 92 90 88 87 85 84 84 84 81 80 80 79 76 75 75 74 75 77 76 75 76 78 77 76 77 77 76 75 75 75 71 69 67 70 68 66 68
122 115 111 110 113 110 105 102 100 98 96 94 92 90 89 88 86 87 88 85 83 81 81 80 78 77 76 76 76 76 76 77 80 81 81 79 76 76 75 74 74 71 70 70 69 68 68 64 66
116 107 109 108 110 110 106 101 101 98 98 96 94 94 92 91 89 86 85 83 82 81 81 80 79 78 77 76 76 77 76 78 77 78 77 76 76 75 74 75 75 73 71 69 67 65 64 63 64
116 112 104 112 110 107 102 100 98 95 95 95 96 93 91 90 91 85 82 82 80 80 80 81 79 79 79 78 78 79 77 78 78 79 77 76 77 78 78 78 73 68 65 66 67 70 68 67 69
105 117 101 95 99 98 99 96 98 99 98 96 93 94 93 89 87 86 83 81 82 81 79 78 79 79 80 79 79 79 78 76 78 79 79 79 79 78 75 71 68 66 68 69 71 71 71 75 74
102 108 109 96 86 90 90 94 97 97 95 93 89 87 85 85 87 85 82 80 78 79 78 80 82 82 82 81 81 79 79 78 79 81 81 81 79 76 75 73 75 74 74 75 75 76 78 77 77
95 100 114 103 91 79 80 82 90 90 89 89 86 85 84 82 83 83 83 81 81 81 81 81 84 84 82 80 79 79 79 80 80 80 81 80 78 78 74 68 70 71 76 77 79 79 81 82 83
89 96 102 114 102 89 77 77 84 83 84 84 84 83 81 79 79 81 81 82 82 81 81 81 82 80 80 79 78 80 78 80 82 81 81 81 81 81 79 79 79 79 81 82 83 85 84 87 89
89 93 97 99 105 96 88 81 78 76 78 81 81 81 81 79 79 81 83 82 82 81 81 82 84 85 85 83 80 78 77 79 80 82 84 85 84 84 82 82 83 83 83 88 89 91 92 89 92
79 85 85 88 90 94 95 90 88 83 79 72 73 75 77 79 80 79 78 80 78 78 78 80 82 82 83 84 83 84 84 85 85 87 89 89 89 90 90 90 89 90 90 91 93 92 94 95 94
74 76 76 79 82 84 88 90 93 96 92 84 76 72 73 74 76 77 78 78 77 77 77 78 79 81 84 87 88 89 90 91 92 94 94 95 95 96 98 99 98 98 95 95 95 94 96 95 94
61 68 70 73 75 78 83 88 92 95 95 93 90 85 81 78 76 75 76 77 78 78 80 82 84 86 87 89 90 92 94 96 97 99 100 102 102 103 104 104 104 103 103 101 100 99 99 99 99
57 56 62 64 66 71 77 84 85 84 84 89 94 92 89 86 84 81 79 79 80 81 83 85 87 88 90 92 95 98 100 102 104 106 108 109 110 111 110 108 107 107 108 107 106 102 104 102 101
60 59 62 60 61 62 66 70 70 67 68 71 74 81 90 94 92 89 88 86 88 89 89 89 91 93 97 100 102 105 108 110 113 115 117 118 118 117 116 115 114 114 113 111 110 108 106 103 100
47 51 61 61 61 59 59 62 63 65 66 65 64 65 66 71 76 83 90 93 90 90 94 96 99 102 104 107 109 112 117 121 121 118 116 114 114 115 115 116 115 113 111 109 108 105 104 102 99

GFSSGP_250_spd_066.txt.gz
Wind_Speed
84 79 76 72 68 64 63 62 60 56 54 52 47 46 45 43 41 37 37 35 34 32 31 32 32 32 32 32 32 32 33 32 29 29 28 27 27 29 28 28 28 29 31 35 38 38 38 38 38
90 86 81 75 70 69 69 67 63 59 57 55 52 48 47 45 45 42 42 39 37 35 34 33 34 34 33 33 33 33 31 28 28 28 29 30 31 29 30 32 32 33 36 39 40 40 39 40 41
94 92 86 80 74 72 76 72 64 63 61 58 56 52 50 48 47 46 46 43 41 38 36 36 35 35 34 33 34 33 32 32 32 31 33 33 33 34 35 37 37 39 42 43 42 41 42 44 44
100 96 90 82 79 83 82 75 69 67 65 62 60 57 54 51 50 47 48 47 45 42 40 37 36 37 37 36 36 36 35 36 36 38 38 38 38 40 41 43 44 45 45 45 45 46 46 46 46
104 100 94 87 85 87 86 77 73 72 69 65 63 61 58 53 52 51 49 48 47 46 44 42 39 37 38 38 39 40 40 40 42 43 42 43 44 44 45 45 46 46 47 47 48 49 49 49 51
108 102 97 91 91 91 89 81 75 75 73 70 68 67 62 58 57 56 53 51 50 49 49 48 47 43 41 41 41 41 43 44 45 46 46 46 47 47 47 48 49 50 52 52 52 52 52 53 53
108 104 97 98 97 96 96 88 81 80 76 73 71 70 68 65 62 60 58 57 55 53 51 50 50 51 48 45 45 46 46 46 47 47 47 48 49 49 51 52 53 53 55 55 54 56 56 57 57
112 106 103 98 99 99 98 91 87 83 81 76 74 73 71 69 68 65 62 60 58 56 54 53 52 50 51 51 51 50 50 51 51 51 52 53 54 54 55 54 55 56 57 57 58 59 61 60 60
114 110 101 96 97 98 100 98 93 88 85 81 78 77 75 73 72 69 66 63 61 58 56 56 55 56 54 55 56 57 57 56 56 56 56 57 56 56 56 57 58 59 59 60 62 63 63 61 62
115 111 101 98 97 100 101 102 98 93 89 85 83 81 78 77 75 71 69 67 65 63 60 59 60 59 58 58 57 57 58 58 57 57 57 58 58 59 59 60 60 61 62 61 63 63 63 64 66
118 108 106 102 102 103 102 103 100 97 92 89 87 84 83 81 79 76 73 71 69 67 66 64 62 62 62 61 60 60 60 61 61 61 62 62 62 63 62 63 63 63 64 64 65 66 68 70 72
120 117 111 109 105 105 105 100 100 100 96 92 90 88 86 85 83 80 76 76 75 73 70 69 67 65 64 62 64 65 64 65 65 64 65 64 64 64 63 64 65 65 65 68 71 71 72 70 69
124 121 115 113 109 107 105 103 98 97 100 95 92 90 89 87 87 83 81 81 81 78 75 73 71 69 68 67 66 66 67 66 65 65 65 65 66 66 67 67 67 68 70 71 69 71 71 70 71
126 124 119 116 113 109 107 104 100 98 98 96 95 93 92 90 89 87 84 84 82 80 79 76 74 73 72 70 69 65 65 66 66 67 67 69 71 71 70 72 71 70 71 72 74 72 71 72 72
130 126 126 121 116 113 110 106 97 99 100 96 91 89 90 89 89 88 87 87 84 83 83 81 78 76 73 69 68 68 69 69 70 71 73 74 75 75 73 73 74 74 75 75 74 72 72 74 71
127 129 128 124 120 115 114 105 103 101 98 92 92 90 86 85 84 86 84 86 84 80 78 77 77 74 72 72 72 73 73 74 75 75 76 77 78 77 76 77 77 76 76 74 73 73 72 72 74
123 127 125 126 122 117 113 108 106 103 101 96 92 93 92 89 86 85 85 84 82 78 76 76 76 77 77 78 77 75 75 76 79 79 78 79 79 77 77 77 77 76 76 76 74 73 72 74 74
110 123 123 125 125 119 115 112 110 107 105 102 98 95 92 90 90 90 87 85 85 84 83 81 79 80 82 80 78 79 78 80 80 80 79 78 81 80 77 78 79 77 76 74 74 73 73 74 72
108 118 124 123 126 124 120 116 114 110 107 105 103 98 95 92 90 88 88 87 87 87 86 86 84 86 84 82 81 80 80 80 80 81 80 82 81 81 81 81 80 77 75 74 73 71 71 70 68
103 111 122 128 125 124 122 118 115 112 111 109 105 102 98 94 92 89 87 87 87 85 85 85 85 86 85 83 83 82 81 79 79 79 81 81 83 82 82 80 80 78 76 76 74 72 72 72 75
99 106 114 123 126 121 120 121 118 115 111 110 108 105 103 100 97 94 91 88 86 86 86 85 85 86 88 85 84 78 77 76 78 80 83 82 83 82 81 81 81 82 83 80 77 74 73 72 73
93 99 108 116 123 123 119 118 118 116 113 110 106 104 103 101 99 96 94 91 89 87 85 84 82 83 85 83 79 78 79 78 82 83 85 85 83 83 82 83 82 82 82 80 78 79 77 77 80
89 93 102 109 115 121 118 115 113 115 112 110 106 105 103 97 96 96 92 88 87 87 85 84 83 83 83 82 81 82 82 83 82 85 87 86 84 84 84 83 83 82 80 82 82 83 83 81 81
83 87 94 104 107 113 113 110 107 108 109 107 105 101 102 100 95 95 95 94 91 88 85 83 82 83 83 83 84 85 85 86 86 88 87 88 88 88 86 84 83 84 82 84 85 86 88 87 87
79 82 87 95 100 106 110 104 95 97 96 100 100 99 99 96 94 95 91 90 87 84 83 83 85 85 84 84 86 87 88 88 89 90 90 90 89 90 91 90 89 90 90 90 90 89 91 91 91
72 75 78 83 89 96 104 105 90 82 85 85 86 85 85 84 81 80 80 80 80 81 81 82 81 81 83 84 84 87 87 87 87 89 90 91 93 95 97 99 99 98 98 98 98 96 96 97 96
64 66 71 74 82 86 94 96 97 86 73 73 77 76 75 73 74 75 76 79 80 81 81 82 82 82 83 85 86 86 88 88 90 92 94 96 97 99 101 102 104 105 105 105 104 102 101 101 101
52 56 62 66 71 77 82 90 90 95 89 80 75 73 73 74 74 74 75 75 76 77 78 79 80 83 84 85 87 89 92 93 95 96 99 101 103 105 107 107 108 109 109 108 109 109 108 105 103
45 48 53 58 65 68 72 76 85 89 94 90 87 85 82 83 83 81 82 81 79 79 79 80 82 82 83 86 88 91 94 97 99 103 106 110 112 113 114 115 117 118 118 118 118 117 117 118 114
39 41 46 51 55 60 65 68 74 82 87 89 90 91 90 91 92 94 94 92 94 98 98 96 95 94 94 96 97 101 104 107 111 116 119 122 124 124 125 126 124 124 125 125 122 119 116 114 111

GFSSGP_250_spd_069.txt.gz
Wind_Speed
83 81 79 73 69 64 67 64 63 61 59 56 54 51 46 44 40 38 38 36 35 33 32 31 30 31 30 31 35 34 34 34 31 30 31 30 28 27 29 27 26 28 28 28 30 32 35 36 37
87 86 83 76 68 67 69 68 67 63 57 61 58 54 52 47 44 41 40 37 37 36 34 33 33 32 31 31 31 30 30 30 30 29 30 30 27 27 28 28 29 30 32 33 35 38 39 39 40
91 90 88 80 74 70 74 71 67 61 64 62 60 56 53 49 48 45 45 41 39 38 37 34 33 32 32 32 32 31 31 29 29 30 31 29 29 29 30 31 33 36 37 39 40 41 41 41 44
94 94 91 83 77 78 78 75 67 64 64 64 64 60 55 54 51 49 48 45 42 41 39 37 34 33 33 33 32 32 31 31 31 32 32 33 35 33 35 37 39 41 42 43 43 42 42 44 47
102 98 94 87 84 85 83 75 72 71 67 65 66 62 59 57 55 53 51 49 46 44 43 40 38 35 35 35 35 35 35 35 34 35 35 37 39 41 43 44 44 44 43 44 44 45 47 49 51
108 101 98 90 89 89 88 80 76 76 72 69 68 66 62 61 59 57 54 52 49 47 46 44 43 40 38 37 35 37 38 39 40 40 40 41 43 46 47 46 47 47 48 48 49 51 52 53 53
109 105 99 97 95 96 94 90 82 80 79 75 70 71 66 64 63 61 57 55 51 48 47 47 47 46 44 43 42 40 41 41 40 41 44 46 47 48 49 50 51 52 53 53 52 53 55 56 55
111 111 107 103 100 99 99 96 88 84 82 80 76 74 72 68 67 65 62 58 55 52 51 49 48 48 47 48 48 47 47 46 46 45 46 47 49 51 53 54 54 54 55 55 55 58 59 59 59
117 115 108 103 102 101 102 99 94 90 87 79 82 78 71 74 71 68 66 63 60 57 56 55 54 53 52 52 51 50 49 49 49 50 52 53 54 56 57 55 55 56 57 58 59 61 61 61 61
122 116 109 106 106 108 106 101 100 94 93 88 85 80 79 76 73 71 69 67 65 62 59 58 58 58 56 54 54 53 53 54 53 54 55 56 57 58 57 57 58 60 61 62 63 64 64 65 65
124 116 116 113 112 109 106 104 104 100 95 92 91 86 80 78 77 76 72 71 69 67 65 63 63 61 59 58 58 57 56 58 59 58 58 59 60 61 62 62 64 65 65 66 64 65 65 65 67
126 121 120 120 112 109 110 109 106 103 100 98 92 85 88 84 81 80 76 74 71 71 70 66 66 65 64 62 62 62 61 61 62 62 62 63 64 64 66 66 67 66 66 66 67 67 68 69 70
125 127 123 120 115 113 111 109 106 107 101 99 95 95 91 89 86 84 81 78 76 76 73 71 69 69 68 67 67 67 67 66 65 65 66 67 66 65 64 66 67 68 67 69 70 70 71 71 73
126 129 126 123 120 119 113 110 109 108 105 104 99 96 94 91 89 87 86 83 81 80 77 75 73 72 71 72 72 72 70 69 68 69 70 68 69 68 67 70 71 72 72 73 73 74 74 75 75
125 128 129 126 123 122 119 111 104 108 107 105 103 99 97 94 92 91 89 87 84 84 80 78 77 76 76 76 76 75 74 72 74 72 70 69 69 71 71 72 74 76 76 76 76 75 76 75 75
120 128 130 129 126 124 121 111 112 108 107 106 104 99 95 92 93 92 91 90 88 86 85 83 82 81 80 80 79 77 77 75 73 72 72 72 75 76 76 77 77 78 78 78 78 79 78 77 74
114 122 127 130 127 126 123 117 114 109 106 105 102 103 98 94 92 90 90 92 89 86 85 83 84 82 80 80 79 78 75 76 75 75 76 78 79 79 79 80 81 79 80 80 80 78 76 73 74
105 116 128 130 128 128 123 121 117 110 108 106 102 100 97 97 94 92 90 86 86 85 84 82 79 79 79 78 80 80 79 79 77 78 79 81 82 83 85 82 82 82 79 81 79 77 76 76 76
103 111 125 133 129 128 126 123 118 114 111 108 105 102 97 94 96 94 91 87 85 83 83 84 83 83 84 82 82 83 84 82 82 82 83 83 83 83 83 84 83 81 80 81 81 80 79 79 77
99 103 113 128 130 129 129 126 122 117 114 111 109 105 99 95 92 92 91 89 87 86 85 84 84 84 84 82 83 83 83 84 84 84 86 86 86 87 83 83 83 83 83 82 83 84 82 82 81
95 98 105 113 127 131 128 127 123 120 115 112 110 109 103 99 96 93 91 90 88 87 86 85 85 85 87 86 85 85 84 85 86 86 87 87 87 86 86 86 87 85 85 84 85 86 84 81 80
90 95 100 106 116 126 128 128 127 124 118 115 112 108 105 101 98 96 95 93 92 91 90 89 89 88 88 89 89 90 91 90 92 93 91 90 91 89 89 88 87 89 87 86 89 88 85 84 83
84 89 91 99 111 116 125 128 126 124 122 117 113 110 107 103 101 99 98 98 96 94 94 94 94 95 95 95 95 96 97 97 98 98 98 100 95 93 92 93 91 91 90 90 88 87 87 89 85
78 82 87 93 101 111 117 127 126 126 122 119 117 114 111 107 105 103 101 100 99 98 98 98 98 97 97 97 97 97 99 98 98 98 97 98 100 99 95 94 92 93 92 92 91 93 90 89 90
74 78 83 88 95 101 106 118 123 122 123 121 118 117 113 111 110 107 106 105 102 101 101 100 97 97 96 96 98 99 99 99 97 95 96 96 95 94 95 98 95 93 95 94 94 95 94 95 95
71 73 78 81 84 91 99 108 116 115 116 117 118 118 117 116 113 110 108 105 105 103 103 104 104 102 99 96 96 99 97 94 94 95 94 93 94 94 95 99 98 98 97 98 98 98 99 100 100
66 68 70 74 79 82 91 96 107 112 114 109 110 114 114 113 113 113 112 109 108 105 105 103 102 102 103 103 100 99 100 98 91 93 93 96 95 96 98 100 101 103 104 105 105 105 105 106 106
59 60 63 67 72 75 81 88 96 103 109 108 103 98 100 105 109 112 111 108 107 108 105 104 99 96 96 97 92 90 90 89 90 91 93 95 96 98 100 103 106 108 110 112 113 113 112 111 111
48 49 54 58 61 66 74 80 85 95 100 101 100 97 94 89 84 89 96 100 95 92 92 92 88 84 84 83 82 84 85 86 87 91 93 95 98 103 109 112 115 118 120 123 125 126 128 130 130
40 41 43 48 53 57 63 70 75 83 90 94 92 89 85 78 73 72 74 76 79 81 82 85 80 81 82 81 83 87 88 91 98 103 108 113 117 122 124 122 118 116 115 114 115 116 115 117 118

GFSSGP_250_spd_072.txt.gz
Wind_Speed
88 83 79 77 72 70 73 69 64 63 60 56 55 54 49 48 41 37 38 36 35 32 30 30 30 30 30 32 34 35 36 35 34 34 34 34 31 29 27 28 27 27 25 26 27 29 32 34 37
91 87 83 81 72 72 75 73 68 67 61 60 60 56 54 47 44 41 39 37 36 34 32 31 29 29 28 28 31 32 33 32 31 33 32 29 30 31 29 30 28 27 26 28 32 34 37 38 40
95 94 88 80 75 74 78 76 72 69 65 66 62 60 56 45 48 44 43 38 37 35 34 32 32 30 29 27 28 27 28 27 27 29 28 28 29 27 29 30 28 29 30 33 37 39 40 42 43
98 97 93 86 78 79 81 80 73 65 70 67 65 64 59 56 55 48 44 41 39 37 36 34 33 31 30 28 28 27 26 26 27 27 27 28 28 29 32 33 33 34 36 38 42 43 45 45 45
104 101 99 92 86 85 85 82 73 69 74 72 70 64 61 60 55 53 49 45 42 41 38 36 34 33 32 30 30 29 28 28 28 29 30 30 30 32 33 36 38 39 40 43 45 47 47 47 48
109 106 103 95 87 85 87 84 75 75 77 72 75 66 65 64 61 56 51 49 44 45 42 40 37 36 35 34 31 31 31 32 33 34 33 33 34 36 37 39 41 42 43 46 47 49 50 50 51
111 109 104 97 90 89 90 88 77 82 76 78 75 72 68 65 63 59 55 51 50 49 45 43 40 38 38 38 36 35 35 34 34 35 36 37 38 40 42 44 44 45 48 50 51 52 52 53 53
116 112 107 102 95 93 93 91 81 87 81 82 75 74 66 67 66 64 60 56 55 52 49 47 45 43 43 41 42 41 41 41 41 41 41 42 43 44 45 47 49 51 52 53 53 53 54 55 58
121 114 107 101 96 92 93 95 89 91 86 83 78 75 68 71 70 68 64 60 59 56 52 50 48 46 44 44 45 45 45 44 44 45 45 47 47 47 48 48 49 51 52 53 55 57 59 61 61
116 112 105 102 101 100 102 103 97 93 89 85 85 77 73 79 74 71 68 64 60 58 56 54 52 50 48 48 47 47 47 48 49 49 50 49 49 50 51 52 53 56 57 59 60 62 63 63 63
115 112 114 110 109 109 108 102 98 97 91 91 89 80 83 83 76 73 67 70 65 62 61 59 57 55 52 51 51 51 53 54 53 53 52 52 53 54 56 57 58 60 62 63 63 64 64 64 65
115 115 118 118 118 114 109 102 99 104 97 98 95 86 83 82 80 77 74 71 68 66 66 64 62 60 58 58 57 57 58 58 57 58 57 58 58 60 61 63 64 65 67 66 64 64 66 66 69
117 118 118 121 117 113 108 104 106 108 103 97 93 88 86 87 85 82 79 76 73 71 69 67 64 63 64 64 63 62 61 61 61 63 63 63 64 65 66 67 69 70 70 68 68 68 70 70 73
115 119 120 123 119 117 112 110 112 105 105 99 96 95 96 90 87 85 84 82 78 76 73 70 68 68 67 67 66 66 66 67 66 66 67 69 70 71 72 73 74 72 70 68 71 73 75 76 77
112 115 120 122 124 120 117 116 111 110 110 103 101 101 99 96 92 90 88 85 81 79 76 74 72 72 71 71 70 71 70 71 70 71 72 73 74 75 75 77 75 73 73 72 75 77 79 79 80
108 112 116 121 127 126 123 117 114 115 112 108 107 104 101 98 96 94 92 91 87 83 80 79 78 78 75 75 76 77 76 75 75 77 77 77 78 78 79 78 76 76 77 77 79 80 81 81 81
108 109 112 120 125 127 125 121 120 118 112 111 109 107 102 102 99 98 96 94 90 87 85 83 83 81 80 79 79 79 79 79 80 81 82 80 80 80 79 78 79 80 82 82 83 83 83 83 82
98 102 109 115 124 125 127 128 126 118 114 109 110 110 106 101 100 99 97 95 91 89 87 86 84 83 81 81 80 80 81 80 81 83 82 79 80 80 80 82 83 85 85 87 87 86 84 85 84
95 101 106 112 123 124 128 130 128 122 116 113 111 108 107 102 100 99 97 94 91 89 89 86 83 81 82 81 80 82 79 79 80 80 80 80 81 83 84 86 87 86 88 89 90 91 90 87 87
90 97 100 105 116 123 130 129 130 125 118 115 114 110 106 103 99 96 94 93 93 91 89 86 84 82 83 81 81 84 83 81 78 78 82 83 83 86 88 89 90 92 94 94 94 95 94 94 94
87 88 93 101 108 114 124 130 129 126 123 118 114 112 106 103 100 96 94 93 91 89 89 87 86 86 86 86 82 79 79 80 79 81 84 86 87 89 90 94 96 98 99 100 100 99 99 95 97
84 85 87 94 100 107 121 128 129 128 126 123 117 113 112 105 102 97 96 94 93 91 88 87 86 84 84 83 82 79 82 85 87 88 91 92 93 96 96 97 99 99 102 101 101 98 97 99 95
81 82 83 90 93 105 115 122 126 127 126 125 120 115 109 108 105 102 100 97 95 93 91 90 88 87 87 86 87 89 89 89 93 93 96 97 100 100 102 104 104 105 106 106 101 99 97 94 94
79 81 81 84 86 97 104 112 123 125 125 125 122 118 114 108 106 105 103 101 99 98 96 95 94 93 92 92 92 92 96 96 95 97 101 104 106 109 108 111 114 112 108 107 103 104 97 93 95
75 76 79 79 79 87 95 102 107 124 123 123 121 121 117 112 108 106 105 103 102 100 98 98 97 96 96 97 98 97 99 101 102 103 106 109 108 110 112 109 113 113 109 108 100 98 98 97 96
68 69 69 71 72 81 87 90 97 112 122 124 121 119 118 116 114 111 107 103 102 101 100 100 99 98 98 99 101 102 104 105 106 107 107 106 109 110 109 109 109 104 102 103 102 100 101 103 104
59 59 63 63 69 74 80 82 89 96 113 122 120 119 117 115 114 113 111 109 105 103 101 100 101 101 100 100 103 104 106 106 107 107 107 111 110 109 104 98 96 98 104 106 109 109 110 113 113
54 56 57 59 62 67 72 77 80 89 98 110 121 122 119 119 117 115 114 112 110 108 107 106 106 105 105 104 105 106 107 108 109 111 111 108 106 97 94 93 98 105 108 109 114 116 114 113 113
51 51 51 52 55 61 67 68 73 81 92 98 104 111 117 121 120 118 117 115 114 112 111 111 109 110 111 110 112 112 109 110 108 107 104 96 94 92 96 101 106 109 112 110 106 107 108 108 108
43 44 45 45 48 53 58 62 68 74 81 88 94 99 104 109 112 115 116 116 114 113 113 114 115 113 112 112 111 109 106 105 99 91 91 91 92 94 97 106 114 110 102 100 99 96 96 98 100

GFSSGP_250_spd_075.txt.gz
Wind_Speed
92 89 81 79 73 67 69 70 66 61 58 54 54 56 51 47 44 43 44 40 38 36 36 36 35 35 35 34 32 32 33 34 34 36 34 36 35 32 30 31 29 30 30 30 29 27 27 28 30
96 91 85 81 75 71 71 71 68 65 64 61 64 60 52 47 45 46 45 41 40 38 37 35 34 34 33 31 29 28 31 32 34 34 34 33 32 30 29 29 31 32 33 29 29 29 31 33 36
100 95 90 85 78 75 74 73 71 71 70 67 66 61 53 47 47 47 44 41 38 38 37 34 32 31 28 26 25 26 27 29 31 31 30 31 30 30 30 30 30 30 31 30 31 33 35 38 39
102 100 95 88 81 80 81 79 74 72 72 71 69 63 56 54 54 50 47 44 40 40 37 35 32 30 27 26 25 25 26 26 27 28 28 27 26 27 27 28 28 30 33 34 34 37 39 40 42
101 104 99 90 85 85 85 81 75 75 76 75 71 65 61 58 57 50 48 46 43 39 36 34 32 31 29 27 27 27 26 25 26 26 26 26 26 26 28 28 29 32 32 34 38 40 42 45 47
102 106 101 90 86 87 90 86 80 77 79 80 76 68 64 61 59 55 51 52 47 43 39 36 33 32 31 30 29 28 28 28 27 27 27 27 28 30 32 33 33 34 35 38 41 43 46 48 49
101 104 102 96 92 94 94 90 82 80 80 82 80 73 68 65 61 57 54 55 50 45 42 39 37 35 34 32 31 32 30 29 29 29 29 30 31 34 34 35 35 37 39 41 44 45 46 48 50
98 108 108 103 99 98 96 93 84 83 83 85 82 75 73 71 63 57 57 57 54 48 46 43 41 39 39 37 35 34 35 34 34 33 34 36 39 40 41 42 42 43 45 46 47 48 49 50 53
101 108 111 105 101 98 97 95 93 88 86 88 82 77 76 73 67 61 60 59 56 52 49 46 45 44 43 41 38 37 39 38 39 39 40 42 43 43 44 44 46 46 47 49 51 51 53 55 59
104 105 107 108 107 102 103 103 97 90 89 89 76 74 77 75 72 66 65 65 59 55 52 51 49 48 46 44 43 43 42 42 42 44 45 44 45 46 47 47 49 50 51 52 54 58 60 63 64
105 100 111 113 112 109 110 105 102 96 90 89 81 80 82 81 76 75 70 69 64 60 57 55 53 51 51 48 47 46 46 45 45 46 48 50 50 50 51 52 54 55 56 58 60 62 64 68 70
101 106 112 118 120 118 114 108 102 99 92 91 86 83 84 81 81 76 74 71 66 65 63 61 58 57 56 53 52 51 50 50 50 49 51 53 53 54 56 58 60 61 62 64 66 69 70 72 72
104 109 114 123 118 116 112 108 105 99 96 93 88 89 85 84 82 79 78 71 65 69 65 65 63 61 59 59 57 56 56 56 57 56 56 59 58 58 60 62 63 64 67 69 70 71 73 73 75
109 112 117 120 113 118 116 112 107 102 100 98 93 92 89 86 87 84 83 83 79 70 65 65 65 65 64 63 61 60 60 60 61 62 62 62 62 63 64 66 67 69 71 73 75 75 74 76 75
107 114 120 118 116 115 116 114 107 107 107 102 97 92 92 92 90 87 85 84 82 80 77 73 70 67 66 65 64 64 64 64 64 65 66 66 67 69 70 71 73 75 76 78 77 79 78 79 80
101 114 120 120 117 113 117 113 113 113 111 105 101 97 96 97 95 92 88 87 86 82 80 76 75 74 71 70 69 68 68 68 68 68 69 70 72 74 75 76 79 80 81 79 84 83 85 84 83
97 107 116 121 116 112 115 119 118 118 112 107 105 102 100 99 97 95 93 90 88 85 83 81 79 79 75 75 74 72 72 72 72 73 74 76 77 78 79 81 82 80 81 85 87 85 86 88 89
89 98 110 115 115 116 115 121 123 119 114 109 107 105 102 100 99 100 96 94 90 88 86 86 84 81 80 78 78 77 76 76 77 77 77 80 82 83 83 81 78 80 82 83 86 88 89 91 91
90 96 104 113 113 115 116 121 123 122 118 114 110 109 107 103 102 100 99 96 92 89 88 88 86 86 84 82 81 81 81 80 79 80 80 82 83 82 80 77 79 81 82 84 87 91 94 94 96
88 91 96 105 112 113 120 119 122 124 121 117 115 113 111 108 103 100 97 95 94 94 92 91 89 87 86 86 85 83 83 81 80 79 80 81 79 76 77 80 84 84 86 88 92 94 96 101 102
84 88 93 99 106 111 117 118 117 120 122 121 119 116 113 109 105 102 98 95 94 95 95 93 91 89 88 86 85 83 82 79 78 79 78 77 78 78 80 82 85 89 91 93 96 99 101 103 106
82 87 90 93 99 105 115 116 117 117 120 121 120 118 114 112 108 104 101 97 96 97 96 93 92 90 88 85 81 80 80 80 81 80 79 79 83 84 84 86 90 93 97 99 101 102 105 106 108
78 80 82 86 92 99 102 109 114 118 118 120 123 122 118 113 110 107 105 102 100 98 97 96 96 95 93 90 89 85 82 82 83 83 87 88 87 88 92 94 96 98 101 104 105 107 108 111 112
76 76 78 82 85 86 93 102 112 116 113 118 122 125 121 116 115 113 109 105 103 101 98 97 96 96 96 94 91 89 87 86 88 89 88 93 95 96 99 103 105 105 106 108 111 113 115 116 117
72 72 72 73 71 76 85 95 101 108 113 114 120 121 124 120 116 116 113 110 106 103 101 99 97 94 94 93 93 91 91 92 92 93 94 95 100 103 102 106 106 108 112 113 115 118 122 120 107
68 68 64 64 68 74 79 83 91 101 104 107 112 116 121 121 118 115 114 113 110 107 103 101 99 98 97 96 95 95 96 97 97 96 98 99 101 102 101 104 106 112 116 118 121 123 111 105 103
64 61 61 61 64 66 70 76 82 90 93 96 104 110 115 118 120 117 113 112 112 111 109 106 104 103 100 100 99 98 99 99 99 100 100 101 101 103 105 108 111 116 117 121 112 106 103 99 104
58 58 55 56 56 60 63 67 74 80 86 90 97 101 109 113 116 117 116 114 113 112 110 108 108 107 105 103 102 100 101 101 101 103 103 105 104 107 110 113 116 116 111 102 96 98 103 104 107
52 51 50 53 51 55 57 63 67 74 78 83 89 95 101 107 113 115 115 115 114 112 110 108 108 107 104 104 105 104 104 105 105 105 106 108 111 113 114 114 107 101 96 95 94 101 109 106 96
42 42 44 45 47 49 51 56 61 65 73 77 82 84 92 100 103 109 114 115 114 113 111 108 107 106 105 105 106 107 106 107 108 109 112 113 113 112 108 104 95 95 96 97 102 108 94 91 79

GFSSGP_250_spd_078.txt.gz
Wind_Speed
91 90 86 82 79 73 69 69 64 61 63 60 58 54 51 48 48 44 44 43 41 40 39 37 35 35 35 36 35 34 34 37 36 34 32 34 34 35 35 32 31 27 29 30 29 29 30 28 29
89 92 91 87 80 75 73 73 68 63 65 63 61 58 55 51 48 46 45 46 43 42 40 37 36 36 34 35 35 33 33 35 34 31 32 32 34 33 32 29 27 27 29 30 30 30 30 30 31
91 92 94 92 84 77 77 78 72 66 68 67 66 62 57 52 49 48 47 45 42 41 38 36 35 35 35 33 33 32 32 31 28 31 31 31 32 31 30 29 28 28 27 28 28 29 30 33 33
93 95 92 95 85 82 84 82 74 69 69 71 70 63 57 56 54 53 49 45 43 41 38 36 36 35 33 33 32 31 30 26 26 27 29 29 30 30 31 30 28 28 26 28 27 28 30 33 35
96 95 93 92 90 87 90 84 77 73 71 75 70 64 61 60 58 56 52 47 45 42 39 37 37 36 33 32 31 30 27 26 25 25 26 27 28 28 27 28 26 25 27 28 29 32 34 36 38
98 99 92 86 92 91 94 90 82 79 75 75 74 68 65 61 61 58 53 48 46 43 41 38 37 36 34 32 30 30 29 27 26 26 26 27 27 27 27 28 28 28 30 31 33 35 39 40 41
92 97 92 87 96 99 99 97 88 82 79 79 77 72 69 65 65 62 58 53 49 46 43 40 38 36 34 33 33 32 30 29 28 28 28 28 28 28 28 28 30 32 34 38 40 41 41 42 44
89 93 96 91 101 102 104 98 87 82 81 82 79 74 73 71 70 67 64 57 53 49 46 44 42 39 37 36 35 34 33 31 31 32 31 30 30 31 32 34 36 38 39 40 42 41 43 46 48
88 91 93 92 98 103 102 100 94 89 89 86 82 77 77 72 72 70 66 62 58 55 51 49 47 44 41 40 39 38 36 34 35 35 36 37 37 37 37 37 39 40 42 44 45 46 49 51 54
92 88 88 95 101 107 110 105 98 91 90 87 83 79 76 74 73 72 69 64 63 60 56 53 51 49 47 45 43 42 41 39 38 38 39 40 41 41 42 41 43 44 46 47 49 51 54 56 58
90 87 95 103 106 110 114 106 103 98 93 89 84 83 80 73 74 75 74 66 60 59 56 55 55 53 51 47 46 45 45 43 42 43 43 43 42 43 44 45 46 47 49 50 52 55 56 58 62
90 90 99 109 107 108 113 112 106 102 98 94 90 87 81 79 77 80 78 76 67 59 59 57 56 55 53 51 49 48 48 47 46 46 48 47 46 46 48 49 50 53 54 56 57 59 62 63 66
88 90 103 106 107 108 115 114 110 105 106 100 95 88 86 82 80 78 78 75 70 70 65 62 60 60 58 56 53 52 52 53 52 51 52 53 52 53 55 56 58 58 59 61 62 64 67 69 72
88 92 105 106 107 110 117 117 115 110 109 101 97 91 88 86 82 82 79 78 78 74 69 67 66 65 63 61 59 58 58 57 57 57 57 57 57 57 58 60 61 62 64 67 68 70 72 74 76
88 94 103 105 107 113 116 121 116 114 112 106 103 95 92 91 89 88 88 85 79 74 73 75 70 65 66 65 64 63 62 62 62 61 60 60 60 61 63 64 65 66 68 71 73 75 78 77 79
87 91 97 104 107 113 113 118 121 119 116 111 102 97 94 92 89 89 89 88 85 82 77 64 64 68 66 66 67 65 65 66 66 64 63 63 64 66 67 67 69 71 73 75 78 80 76 79 82
83 84 93 104 107 112 112 120 123 122 118 112 105 100 96 94 92 91 91 89 88 86 83 81 78 74 69 66 63 64 65 67 66 67 67 67 70 70 71 72 73 75 77 80 81 75 79 83 83
79 85 92 103 110 111 115 118 122 123 119 116 108 102 99 95 94 94 92 90 89 88 87 84 82 82 80 78 78 77 75 74 72 72 72 73 74 74 74 76 77 78 79 79 75 77 81 83 86
84 87 92 100 109 114 117 117 120 122 120 120 113 106 104 101 98 96 93 91 87 87 88 87 86 86 82 81 79 78 78 77 76 77 77 78 77 76 77 80 78 78 76 74 78 83 84 86 90
83 86 92 101 108 116 119 118 120 119 117 117 117 113 109 107 101 97 96 93 91 90 90 91 91 88 86 83 81 81 81 80 80 81 81 80 80 82 80 80 79 77 76 83 85 82 87 93 94
80 84 90 96 103 110 116 117 116 113 115 115 117 115 112 108 105 100 98 97 95 94 93 92 92 92 90 88 85 83 83 83 82 81 81 80 81 83 82 80 80 79 84 84 86 90 91 95 99
79 83 87 92 98 101 112 112 113 114 112 114 114 116 115 111 107 105 101 100 98 96 96 95 93 91 91 91 90 88 86 84 84 83 82 82 82 80 80 79 80 84 85 89 91 93 96 99 102
76 79 81 88 93 98 101 107 111 114 113 110 113 115 117 115 112 109 107 104 102 100 99 97 95 93 91 90 90 91 91 90 87 84 82 82 84 84 84 87 86 89 91 93 95 97 100 101 105
73 75 79 85 88 90 95 97 105 111 111 114 114 116 116 116 115 113 111 108 106 104 103 101 98 96 94 91 88 87 88 91 92 92 92 92 93 93 92 94 94 94 94 96 98 100 102 103 105
68 70 73 77 80 83 87 90 92 100 106 110 112 114 114 114 115 117 115 113 110 108 106 104 102 100 98 96 94 91 90 90 90 90 91 92 94 98 98 98 96 98 99 101 102 103 106 110 113
66 64 68 73 76 81 83 80 86 94 97 104 109 111 111 110 112 116 117 116 113 112 111 109 106 103 102 100 97 96 94 94 94 93 93 92 92 94 95 99 100 102 104 106 106 109 111 114 117
60 59 62 65 69 72 70 75 82 86 90 95 101 105 106 109 110 111 113 117 117 116 114 113 111 109 107 103 101 100 99 98 97 95 94 95 94 96 98 101 103 105 106 107 110 113 117 119 113
57 61 61 59 55 57 61 68 74 81 83 88 93 99 102 103 108 109 108 109 113 115 117 117 115 113 111 108 106 105 104 102 101 99 98 98 101 102 104 104 105 105 109 110 112 116 116 108 107
54 56 55 51 48 52 55 61 65 71 76 82 87 93 97 99 104 108 109 109 109 110 110 113 116 116 114 112 111 109 108 106 104 105 105 104 104 104 105 104 107 107 109 112 112 111 104 100 95
49 49 49 47 48 47 53 58 60 63 68 75 78 82 88 89 94 100 103 107 108 109 109 109 110 110 112 112 112 111 109 109 107 107 105 104 104 103 103 103 109 109 109 110 103 96 94 93 94

GFSSGP_250_spd_081.txt.gz
Wind_Speed
87 89 90 89 85 76 71 70 71 66 64 58 52 52 55 51 48 49 48 47 46 45 44 43 41 38 39 42 44 44 42 37 36 36 38 35 33 35 33 33 32 32 26 24 24 26 28 28 28
87 88 92 92 86 78 74 77 75 69 65 60 54 55 55 52 53 53 49 49 49 47 43 43 42 39 38 35 37 38 37 35 33 34 36 36 34 33 33 33 33 31 29 26 25 27 27 27 28
91 88 89 94 89 81 80 81 74 71 67 63 58 57 56 55 54 55 51 49 47 45 43 42 41 38 37 35 32 32 34 34 33 35 35 36 33 32 32 30 31 29 26 25 25 27 26 27 26
92 91 90 88 87 86 87 84 80 76 71 67 62 60 57 59 56 57 53 49 46 44 43 41 41 40 38 36 34 34 33 33 34 33 32 30 30 30 29 31 28 27 25 24 26 27 26 28 28
92 93 91 86 82 91 92 90 86 80 74 70 65 62 59 61 58 58 56 51 47 44 43 42 41 38 36 35 33 34 34 34 33 31 28 26 26 26 26 26 27 26 26 25 26 27 28 30 34
88 95 90 83 80 91 97 95 89 84 79 74 70 65 62 61 61 60 59 54 49 47 43 43 40 37 35 33 33 33 34 34 33 30 27 26 25 26 25 26 27 27 26 25 26 30 34 36 37
82 91 91 84 87 96 99 99 90 85 82 78 72 66 65 64 63 62 60 55 51 48 44 43 39 37 36 36 36 34 34 33 31 29 27 27 26 26 27 27 27 26 26 28 32 34 36 38 40
82 85 90 89 89 93 103 100 92 88 85 80 76 69 66 67 67 65 62 58 56 52 48 44 42 39 38 37 37 37 35 34 31 29 30 29 29 28 27 28 27 29 31 33 34 36 39 41 43
84 84 84 87 91 97 98 102 100 96 90 82 76 72 69 70 70 68 64 61 59 56 52 48 46 43 41 40 39 37 35 34 33 33 32 32 32 31 31 32 33 34 36 37 38 40 42 44 46
83 81 81 88 94 102 97 99 105 101 93 86 82 75 71 73 72 70 67 66 62 60 57 53 49 46 44 42 42 40 37 36 36 36 35 35 35 35 36 36 37 39 39 40 42 43 46 48 50
86 82 87 88 95 102 102 102 103 98 96 91 88 83 72 74 74 74 72 70 65 61 61 58 54 51 49 47 46 44 42 40 40 41 41 39 39 39 39 39 41 42 43 44 46 49 52 54 55
89 90 88 90 92 103 105 101 98 96 100 97 93 87 73 72 77 76 75 73 70 68 65 63 60 58 55 52 51 49 47 45 44 44 44 43 43 43 43 44 45 47 48 50 51 54 55 57 59
94 95 92 91 93 99 104 102 102 99 100 101 97 92 85 71 73 76 76 74 72 71 67 67 65 63 59 57 55 53 53 50 48 48 47 47 47 47 48 49 51 52 53 55 56 58 59 61 63
95 100 98 95 95 98 102 100 101 102 99 104 101 96 92 86 74 78 79 77 78 75 73 68 67 63 63 61 58 57 56 55 53 52 52 51 51 52 55 55 55 56 58 59 61 62 63 65 68
90 97 99 98 96 97 101 97 98 106 103 104 105 101 96 91 83 79 80 79 76 77 74 72 69 64 61 62 60 58 58 58 57 57 57 57 56 57 59 60 60 60 62 62 65 66 68 70 73
84 91 93 93 95 98 99 91 101 107 104 104 108 104 101 95 94 86 87 85 72 77 78 78 75 71 70 67 64 63 62 62 62 62 62 62 61 62 62 64 63 63 65 67 69 70 72 74 76
76 81 85 91 93 99 96 98 103 107 106 109 108 109 106 102 98 92 87 87 89 75 75 77 78 77 72 73 71 68 66 66 66 66 66 65 65 66 65 63 66 69 70 71 73 74 75 77 75
66 74 81 87 92 95 96 103 105 107 109 110 110 112 110 106 102 99 92 91 90 87 78 79 76 77 77 77 76 72 71 72 70 69 63 63 65 66 69 71 73 74 74 75 77 78 78 77 77
72 77 81 86 88 91 96 102 106 106 114 113 112 112 114 109 106 104 101 92 87 89 86 82 80 80 76 75 74 74 71 67 69 71 70 73 75 75 76 76 77 77 79 79 79 79 77 80 82
73 74 78 83 86 88 96 102 109 108 113 112 115 113 114 113 108 104 100 96 91 88 92 91 89 87 86 85 83 81 80 80 79 77 78 78 77 78 78 79 80 80 79 80 78 79 80 82 84
69 71 77 80 83 87 95 99 107 106 111 112 115 113 111 111 109 105 102 99 95 93 91 90 92 91 88 87 87 86 85 84 84 82 81 79 80 79 79 79 80 80 80 79 79 82 83 85 90
69 72 72 74 78 82 89 94 101 109 110 112 115 114 114 110 110 107 104 102 99 97 93 91 90 91 91 90 88 87 86 86 86 84 83 82 81 81 81 82 83 82 82 83 86 87 91 93 94
68 70 70 74 78 81 86 92 99 107 109 107 112 113 111 110 110 110 108 104 101 98 95 93 92 91 91 91 90 89 88 87 87 86 85 85 85 85 85 85 85 85 85 85 88 91 93 95 98
69 68 70 72 77 78 85 89 98 103 107 111 115 113 112 112 110 110 110 108 105 102 101 99 97 94 93 92 91 91 90 90 89 88 87 87 88 88 88 87 87 87 87 90 90 92 95 98 100
68 67 69 68 70 75 80 83 96 100 105 109 110 110 110 109 106 106 108 110 109 107 104 103 101 98 96 94 94 93 92 92 93 92 90 89 87 87 88 87 88 89 90 90 93 96 99 100 104
62 60 60 59 63 70 74 78 88 95 101 106 108 110 110 106 104 104 106 110 111 112 111 108 105 103 101 99 97 96 96 95 95 95 95 94 93 93 93 93 93 95 97 99 99 101 103 105 106
58 57 56 59 60 64 67 76 84 90 93 97 102 104 107 106 106 105 105 109 111 112 112 112 110 107 105 104 103 101 100 98 96 95 96 96 96 96 97 98 98 100 100 103 103 106 106 109 110
53 57 56 56 58 60 64 70 76 84 86 89 91 95 100 105 107 106 107 106 107 108 110 112 113 112 111 110 109 107 105 104 101 99 99 98 97 97 98 99 100 102 104 105 107 107 109 106 105
50 51 50 53 52 55 58 62 68 74 77 80 84 87 92 97 102 103 106 105 105 105 106 107 109 111 113 113 112 112 110 109 108 105 105 105 104 104 103 105 107 106 108 108 107 108 104 106 105
48 49 49 46 50 52 52 54 60 63 72 75 79 81 84 88 91 93 98 100 103 104 106 106 105 105 106 109 113 114 113 111 112 110 110 110 110 110 110 110 109 111 106 106 101 103 103 107 103

GFSSGP_250_spd_084.txt.gz
Wind_Speed
91 92 96 95 92 83 76 73 73 71 69 61 57 51 46 45 48 50 54 53 50 48 47 44 44 42 42 39 44 41 42 41 41 42 39 35 33 33 30 30 32 31 31 33 30 28 26 22 24
90 93 94 94 91 85 81 79 79 74 71 64 60 55 51 47 47 50 54 53 51 50 49 47 43 40 40 37 38 39 39 39 39 39 37 33 35 33 32 33 31 31 31 29 29 26 23 21 22
88 93 95 94 89 86 84 84 82 79 74 69 61 57 54 49 49 51 53 53 52 49 48 46 45 42 41 39 36 36 35 34 35 35 34 33 32 32 34 33 31 30 28 26 25 22 22 23 24
89 90 95 93 87 85 88 90 86 82 78 70 64 60 57 52 51 52 54 53 51 47 45 46 45 44 42 40 37 37 34 32 33 32 31 30 32 33 33 32 30 28 27 24 24 25 24 23 23
89 90 90 90 87 84 91 94 90 86 80 73 69 64 61 56 52 52 55 55 52 47 44 44 44 42 40 38 38 36 34 34 33 31 29 30 31 31 30 27 25 25 24 23 25 24 24 22 26
86 89 88 84 86 85 93 97 93 89 84 76 71 68 63 59 55 52 55 56 52 49 45 45 44 43 42 38 37 36 36 34 33 32 31 31 31 29 27 25 25 24 24 25 24 23 24 27 29
79 84 86 86 88 92 92 97 94 92 88 80 74 72 68 63 58 56 56 56 54 51 48 46 45 42 42 39 38 37 36 35 33 32 30 31 31 28 26 26 27 25 25 24 24 26 28 30 31
79 81 86 85 85 91 93 97 96 94 91 84 79 74 70 68 61 59 56 58 56 52 51 47 45 42 41 41 40 38 36 35 33 32 31 31 30 28 28 28 27 26 25 26 28 31 33 34 36
79 79 81 84 85 89 96 95 94 98 95 88 83 77 74 70 65 61 58 59 58 55 54 52 49 47 44 43 41 39 36 37 35 32 32 31 30 30 30 30 30 29 30 31 33 36 37 38 40
81 76 76 87 87 92 99 98 95 101 98 93 86 83 78 73 68 64 62 61 62 61 59 57 53 50 47 45 42 40 38 38 37 35 33 33 33 33 34 34 33 34 34 36 37 39 40 42 45
81 76 77 85 90 91 99 100 96 96 99 94 89 86 82 73 71 67 63 63 64 63 61 59 56 54 51 48 44 43 40 39 38 36 36 35 35 36 35 36 37 38 39 40 41 43 45 47 50
84 79 81 83 90 90 97 99 97 92 95 95 93 88 84 81 72 69 65 63 64 66 65 63 61 59 55 51 49 46 43 42 42 41 40 39 38 40 40 40 42 43 44 45 46 47 49 52 53
86 84 84 84 87 89 95 98 99 93 98 91 92 93 88 84 79 71 64 63 66 67 68 67 65 62 59 56 54 50 48 46 46 46 45 44 42 43 44 44 45 47 48 48 50 52 53 55 56
87 88 88 87 84 90 92 97 99 95 94 92 90 94 91 90 85 79 68 59 55 67 70 71 69 66 63 61 58 55 54 53 52 51 50 49 49 48 47 47 49 50 51 52 54 57 57 59 59
83 89 91 88 86 88 92 93 93 96 97 92 90 93 96 94 88 84 77 72 62 68 68 67 72 70 67 64 63 61 59 58 56 56 56 55 54 53 52 52 53 54 55 57 58 59 62 61 64
83 87 92 91 89 88 91 91 91 97 97 95 92 92 98 98 92 89 86 78 71 67 76 71 68 72 72 69 67 65 64 62 62 61 60 58 58 56 57 59 58 60 61 62 63 62 62 67 69
79 79 85 91 91 90 88 91 94 92 96 96 96 95 96 100 99 95 92 85 80 65 67 70 72 67 70 72 70 70 68 65 64 63 60 59 59 61 62 62 62 64 66 66 63 65 70 72 72
67 76 81 88 92 91 91 92 94 93 94 99 98 98 98 98 102 102 96 91 82 70 66 77 77 76 72 70 72 73 72 70 68 64 64 65 66 65 64 66 66 66 65 65 70 73 75 76 75
74 79 83 88 91 92 95 96 94 93 94 94 97 100 100 100 99 103 101 97 95 88 77 74 79 82 79 77 76 74 75 71 72 68 67 69 68 69 68 67 65 68 72 73 75 76 77 77 78
74 76 81 86 87 92 96 98 97 93 92 92 94 101 104 102 99 100 104 103 101 98 92 82 76 78 81 79 76 74 74 74 76 74 72 72 73 71 69 71 74 75 76 79 80 79 80 81 82
73 73 77 79 82 84 91 94 94 94 93 94 94 100 103 100 102 102 104 108 106 101 99 90 87 78 76 76 75 74 74 74 76 74 72 72 74 75 77 78 79 80 82 82 82 83 81 81 82
72 74 77 77 77 78 84 83 88 90 92 95 94 98 100 102 103 104 104 108 108 104 100 99 93 89 85 85 83 82 77 74 75 75 77 79 77 78 81 83 85 84 84 84 83 82 83 84 84
73 74 73 72 70 71 73 75 80 84 88 92 95 98 101 101 104 105 105 105 109 107 104 101 102 96 87 87 90 90 88 87 87 86 85 85 83 82 83 82 83 84 84 84 84 85 87 87 88
71 68 68 69 69 68 69 70 75 79 86 94 98 100 103 105 106 105 104 106 108 110 108 105 104 101 98 93 90 89 90 92 93 92 91 90 88 87 87 86 86 86 86 86 87 87 88 90 91
65 66 67 65 64 61 63 64 73 76 82 89 95 98 102 104 109 108 105 107 107 110 112 109 107 104 101 99 96 93 91 89 90 90 90 91 90 90 89 90 89 89 91 91 91 91 93 94 96
64 62 59 57 55 57 61 59 69 70 77 83 90 96 98 105 110 110 108 106 106 107 111 112 109 106 103 100 98 96 95 94 92 91 90 90 91 91 91 92 92 91 91 92 92 93 94 96 98
58 56 54 54 56 57 56 57 67 66 74 78 84 90 96 104 108 110 108 107 105 104 104 111 112 110 107 104 102 100 99 97 96 96 95 95 95 94 94 94 94 94 94 95 97 95 98 100 103
54 55 53 54 55 55 55 55 60 63 68 74 78 84 91 99 102 105 106 106 104 101 99 100 105 110 111 109 107 104 103 101 99 99 99 98 99 99 99 100 100 100 99 100 102 102 103 106 108
43 44 47 51 51 51 52 54 58 62 64 69 73 79 85 93 96 99 101 103 102 97 93 97 98 99 104 108 109 109 107 106 105 104 103 102 102 103 104 103 104 105 105 105 107 107 110 109 109
43 46 49 50 51 51 52 53 54 59 62 65 70 76 81 86 90 94 96 98 99 98 96 94 95 95 96 99 103 106 107 108 108 108 107 107 108 107 109 108 109 109 108 108 109 107 106 104 100

GFSSGP_250_spd_087.txt.gz
Wind_Speed
91 93 96 95 93 85 79 75 74 73 71 63 58 54 53 52 47 44 45 46 51 50 48 45 42 42 41 41 41 41 41 42 42 39 41 38 39 37 35 32 29 28 28 28 29 31 28 29 26
91 93 96 97 92 87 83 80 81 78 75 67 62 57 55 53 52 48 46 45 48 49 50 47 44 41 41 41 42 42 42 41 43 42 40 40 39 36 35 32 32 30 30 27 28 26 26 24 21
94 93 95 95 94 87 85 86 85 83 78 71 65 60 58 54 54 52 48 46 47 50 49 49 45 42 42 42 42 42 42 40 40 39 38 37 34 32 32 30 30 31 30 30 27 25 23 23 23
95 95 93 92 88 92 92 91 91 87 82 75 71 64 60 57 56 54 51 47 48 48 48 49 49 45 43 42 40 41 40 39 36 34 33 32 30 30 29 29 30 30 30 30 26 25 24 24 22
96 95 94 88 87 87 92 98 94 89 85 78 74 68 66 60 58 57 53 49 48 48 46 47 48 46 43 43 41 39 38 37 34 33 32 30 28 27 28 28 27 29 27 25 25 24 25 23 22
94 94 91 85 84 88 92 98 96 93 88 84 77 73 69 65 60 59 55 52 48 48 46 47 47 45 43 44 42 41 39 39 35 33 32 31 28 27 28 28 28 26 25 25 26 26 25 24 24
92 90 88 86 86 89 92 95 96 96 93 89 83 78 73 67 60 60 57 55 51 49 48 47 47 45 43 42 42 41 42 39 36 34 32 30 29 29 28 29 28 26 26 27 27 26 25 25 27
89 88 87 87 88 84 91 95 97 95 96 93 88 82 76 68 63 61 60 57 55 51 50 49 48 46 44 42 42 43 41 38 36 35 33 31 31 31 29 29 27 27 27 27 27 27 28 29 32
88 87 82 83 87 88 93 96 98 95 97 95 92 84 80 74 70 65 62 60 57 53 51 51 50 47 45 44 44 42 40 38 37 35 33 33 33 31 29 29 28 29 29 30 30 31 32 33 35
89 82 80 85 89 92 97 97 100 98 96 93 92 88 83 78 73 70 64 63 59 55 54 52 53 51 49 46 45 42 41 40 38 36 34 34 34 34 32 32 30 31 32 33 34 35 36 37 38
87 80 82 86 89 92 100 98 97 98 95 91 89 89 87 83 76 72 68 63 61 59 56 54 55 54 52 49 46 45 43 41 39 38 36 36 37 36 35 35 35 35 37 37 37 38 41 42 43
86 83 85 88 89 92 97 100 97 95 93 94 89 90 91 87 80 75 73 70 65 63 60 57 57 56 55 53 49 48 46 42 39 39 38 39 39 39 38 38 38 38 39 40 41 43 44 47 48
87 84 84 88 90 91 94 98 97 94 95 94 91 89 93 90 85 80 77 73 68 65 64 60 59 59 59 57 54 52 49 45 43 42 41 41 40 40 40 39 40 41 43 44 45 46 48 50 51
89 86 87 88 90 91 92 94 95 94 93 94 93 89 91 94 89 86 81 77 73 68 61 59 62 62 61 60 58 55 52 51 49 47 46 44 44 44 44 44 45 45 46 48 49 50 51 53 54
87 88 88 87 89 89 90 89 87 96 93 94 94 91 88 94 93 90 87 81 77 62 55 58 60 63 64 62 62 60 57 56 55 53 51 49 48 49 49 48 50 51 52 52 53 53 55 57 59
84 87 89 88 87 88 87 87 88 96 93 94 95 94 90 94 97 95 91 86 81 71 66 62 54 59 66 64 63 63 62 61 60 59 56 54 53 54 53 53 54 55 55 56 56 58 60 61 62
81 78 80 87 88 87 86 87 87 92 93 92 95 95 90 90 99 98 93 89 85 78 69 62 54 57 62 66 68 66 66 67 66 63 60 59 58 58 59 59 58 57 56 58 60 61 63 65 64
74 75 78 85 87 87 87 88 88 90 92 92 93 95 93 92 98 101 98 91 85 84 80 66 67 61 59 60 64 68 71 72 71 69 66 64 64 63 62 60 59 59 61 63 65 66 66 65 67
75 77 78 84 87 88 88 91 90 88 88 90 89 92 91 91 95 97 97 95 90 87 84 82 69 55 64 56 67 73 70 69 71 72 71 71 68 65 65 64 65 66 66 67 66 68 67 69 72
75 75 75 80 83 86 90 91 92 88 86 88 88 89 93 93 92 93 95 97 95 93 90 86 82 64 58 62 59 63 67 64 62 66 70 72 70 69 68 67 66 68 67 68 71 69 72 73 75
71 72 74 77 80 82 87 90 89 89 87 85 84 86 90 92 93 94 95 94 98 100 95 92 94 79 75 64 65 72 74 75 71 71 66 67 68 70 71 72 73 73 73 74 72 73 74 75 77
69 72 75 77 78 79 83 86 88 90 88 84 84 86 87 93 97 97 98 96 95 100 100 98 97 98 92 83 67 71 74 76 78 73 72 71 69 69 71 72 73 74 72 74 77 78 79 80 83
68 72 75 75 73 75 76 78 83 87 87 86 86 87 90 92 94 99 98 98 97 96 100 104 102 101 98 91 83 81 79 78 79 82 79 76 74 73 73 72 72 74 77 80 81 83 85 87 88
68 71 71 71 70 70 71 73 81 86 88 88 91 89 90 93 95 96 99 100 98 98 98 103 108 106 104 100 93 90 88 83 81 77 77 75 76 75 77 77 78 82 84 85 86 89 89 89 91
66 66 66 69 67 65 67 68 77 80 83 85 88 90 91 91 93 95 94 100 103 101 100 101 103 109 109 106 102 98 95 92 88 89 88 85 84 84 85 86 87 89 89 90 90 90 91 89 91
61 63 61 58 57 60 63 63 71 74 79 81 84 88 91 93 92 94 98 100 99 103 105 104 104 103 106 109 108 107 104 102 101 98 93 91 89 89 88 87 88 88 89 89 90 90 91 92 93
53 57 56 56 59 63 63 63 72 72 74 75 77 80 85 90 94 96 100 99 101 99 101 103 105 105 103 105 109 109 108 105 103 103 102 100 98 95 93 93 93 93 92 92 93 93 93 95 96
49 51 54 55 56 59 60 62 66 68 66 67 69 73 78 84 88 93 99 100 102 101 101 102 102 103 104 104 105 109 109 108 106 106 104 103 100 99 98 97 95 95 95 96 96 96 98 100 102
44 48 50 52 53 55 57 59 63 64 58 60 64 68 74 78 83 90 95 98 100 102 102 100 100 102 101 103 104 104 108 110 109 107 107 106 104 103 102 100 99 99 100 99 101 101 103 105 106
41 45 50 52 52 53 55 57 60 59 56 59 61 63 67 72 78 83 89 92 97 99 101 100 98 98 100 101 102 103 101 104 110 111 110 110 108 107 106 106 104 105 105 106 106 107 107 108 106

GFSSGP_250_spd_090.txt.gz
Wind_Speed
93 95 94 96 95 90 84 80 79 79 76 68 65 59 58 55 52 48 48 44 45 52 53 49 46 45 46 44 44 41 40 39 39 39 40 37 34 35 35 37 35 32 31 30 28 28 27 26 26
95 96 96 95 95 90 86 83 82 81 78 73 68 65 62 56 54 52 50 48 44 45 51 51 49 46 46 44 42 40 39 39 38 38 40 42 41 40 36 33 34 32 32 31 29 29 28 26 26
95 98 98 95 93 90 89 89 87 84 80 77 73 67 64 59 57 55 53 51 47 44 47 51 51 48 46 44 40 39 39 37 39 39 39 40 40 40 37 34 32 30 31 28 28 28 29 25 24
97 97 96 95 88 93 90 94 92 88 83 79 75 70 66 63 60 58 56 53 51 46 45 48 50 48 47 45 42 40 39 38 39 39 38 39 34 34 33 31 31 30 29 29 27 28 25 25 26
99 96 96 94 91 90 93 96 95 93 88 83 77 72 70 67 62 61 58 56 53 50 46 47 48 48 47 46 44 43 41 39 40 40 38 36 34 34 30 29 28 27 27 26 27 25 24 26 27
99 98 95 92 91 92 95 99 97 94 90 87 83 77 73 71 66 62 60 57 55 52 48 46 47 48 47 47 46 44 42 41 39 37 38 35 33 32 30 30 27 28 27 27 26 25 26 27 28
101 97 92 93 98 97 96 98 98 97 94 91 87 82 78 74 70 65 62 59 56 54 51 47 48 48 47 45 46 45 44 44 41 38 36 36 34 31 31 31 28 29 29 29 26 26 28 28 29
101 97 96 95 99 95 98 98 99 100 98 95 93 87 82 79 73 69 65 61 58 57 54 50 48 49 48 47 46 44 45 43 42 40 39 37 35 33 33 31 30 30 30 29 28 28 28 29 30
101 99 96 95 96 98 99 100 99 97 100 98 95 90 86 83 79 73 69 65 62 60 57 53 49 49 49 48 47 45 45 43 41 41 40 38 36 34 34 33 32 32 31 30 30 31 30 31 33
99 96 93 96 99 101 102 101 100 98 97 101 99 94 89 86 81 76 70 68 64 62 60 57 52 50 50 49 48 47 45 42 41 42 40 39 37 36 35 35 34 34 33 33 34 34 35 36 37
97 92 96 100 100 97 101 103 101 99 95 94 97 98 94 90 85 81 74 70 67 62 61 60 56 51 50 50 49 47 45 42 40 40 41 41 39 37 37 37 37 37 38 38 37 38 40 41 41
95 94 95 98 101 99 99 105 101 98 95 95 96 95 95 93 89 84 81 76 71 65 59 59 58 54 52 51 49 48 46 44 43 41 40 41 40 40 39 39 40 39 40 41 41 42 43 44 44
92 92 94 98 100 99 99 101 102 98 97 96 95 94 94 94 92 89 85 76 74 70 67 62 60 58 54 52 52 50 49 48 46 44 42 42 41 41 41 41 41 42 42 43 44 44 44 46 48
88 92 94 96 99 99 97 101 100 99 97 95 94 94 92 93 95 92 89 82 76 77 73 70 62 60 57 54 53 53 52 52 50 48 46 45 43 42 43 42 42 43 44 45 45 46 48 50 52
84 88 93 95 98 97 97 99 93 97 98 98 95 93 93 92 94 95 94 90 85 79 75 72 68 62 58 56 54 56 54 55 54 53 51 49 48 46 45 44 45 46 46 47 50 50 53 54 55
84 87 92 94 95 96 98 95 96 96 97 97 97 93 94 93 93 94 95 93 89 84 77 74 69 66 63 59 58 55 58 58 56 56 56 54 52 52 51 50 50 50 50 52 53 56 58 57 56
83 82 86 92 93 93 94 97 95 94 94 95 96 95 92 95 94 93 93 94 91 88 81 76 72 67 64 61 58 57 58 59 61 60 61 59 58 56 56 56 56 56 56 57 58 59 60 60 62
75 78 85 92 93 91 92 93 96 93 93 94 94 95 94 93 94 95 93 92 93 92 86 81 77 71 65 62 55 56 54 55 62 65 63 63 62 62 62 61 60 61 62 61 63 63 64 63 65
73 79 84 90 91 92 94 96 96 93 91 91 92 91 94 92 92 94 94 92 93 94 92 87 79 65 70 64 66 63 59 54 53 56 61 67 67 66 66 65 66 67 66 67 68 66 69 67 64
75 78 82 87 91 94 94 91 93 91 90 89 89 88 90 94 92 95 98 96 93 96 96 91 86 72 61 71 70 65 62 52 53 55 56 62 62 66 71 73 72 70 71 70 69 68 65 67 71
75 76 81 82 87 91 93 94 93 89 88 87 86 86 87 92 95 97 97 98 94 96 97 95 92 86 76 70 64 62 62 57 55 47 53 57 66 67 67 69 69 67 65 65 66 68 71 72 70
70 75 80 81 85 90 93 93 91 89 88 88 87 86 85 89 95 95 96 99 99 95 96 96 96 92 88 86 80 70 70 71 72 66 61 57 60 64 66 64 66 65 65 66 68 67 69 70 71
69 73 77 81 83 83 87 91 89 88 87 86 85 86 85 88 93 93 96 99 99 96 93 94 98 97 93 90 91 88 79 71 67 69 72 68 61 68 73 73 72 71 70 70 70 73 74 74 75
70 71 76 80 80 80 82 83 83 85 88 89 89 88 87 87 89 91 92 96 96 96 95 93 98 101 99 93 92 95 95 85 75 78 75 71 70 73 75 79 80 77 76 75 77 78 76 76 79
70 72 75 76 72 71 73 73 78 83 87 90 90 88 87 85 85 87 88 91 96 97 98 95 95 100 101 100 97 96 98 94 87 84 82 78 79 72 74 76 78 76 75 77 78 78 81 83 86
67 66 63 59 61 65 65 67 75 80 83 86 87 86 87 88 85 85 86 88 94 98 99 97 97 97 100 103 104 104 103 103 102 102 99 91 90 87 83 88 88 88 88 86 85 87 88 87 89
57 59 60 61 66 68 68 69 77 78 79 79 81 83 86 88 86 86 86 87 91 96 98 98 100 100 100 101 103 108 110 107 108 109 108 105 104 99 97 97 97 96 95 94 93 92 93 94 96
54 55 58 62 64 65 67 71 76 76 75 75 76 78 80 85 88 88 87 87 90 92 96 99 101 102 103 104 104 103 107 113 113 112 110 109 108 106 105 104 104 102 100 101 102 102 102 101 100
46 50 54 60 61 63 65 70 73 73 71 71 72 73 76 79 82 86 88 90 91 92 95 98 101 104 104 105 105 105 106 106 108 112 115 114 113 112 112 111 109 109 109 106 105 104 103 103 103
46 50 55 59 62 64 66 66 68 71 69 66 66 68 70 73 75 78 84 89 93 94 95 97 99 103 102 102 104 105 107 107 106 106 107 108 108 111 113 114 113 114 112 109 108 107 107 106 106

GFSSGP_250_spd_093.txt.gz
Wind_Speed
93 93 95 96 96 92 88 85 84 80 80 74 69 66 64 60 58 48 48 48 46 48 49 50 50 48 48 46 43 43 42 42 41 39 37 36 35 36 36 35 33 35 36 35 31 32 31 30 28
95 97 97 99 94 91 89 89 84 85 86 78 75 68 69 66 61 54 52 49 47 45 44 46 51 50 48 47 44 44 44 43 42 40 37 37 36 38 39 40 38 38 37 31 32 30 31 27 27
99 99 100 96 96 91 89 90 90 88 82 86 79 73 71 65 65 59 55 52 50 48 45 43 45 50 50 48 46 44 43 43 43 41 39 37 37 38 39 40 39 36 34 32 30 31 28 27 26
101 102 99 96 92 89 94 98 95 90 88 87 81 77 68 73 70 65 62 57 54 51 47 46 44 47 49 50 48 45 42 43 42 39 38 37 37 37 36 36 31 31 31 29 30 29 29 27 25
102 101 100 95 93 96 100 91 93 95 93 90 85 82 76 72 70 68 64 61 58 54 50 47 46 45 48 50 49 48 45 44 43 41 38 38 37 35 36 34 33 32 31 30 29 30 26 26 25
106 104 100 95 92 95 99 94 102 102 97 93 92 83 80 79 74 70 68 65 60 57 53 50 47 46 46 47 48 48 47 45 43 42 40 40 39 36 36 35 33 32 31 30 29 28 28 26 27
104 104 99 98 97 103 96 98 105 103 101 99 92 88 84 81 78 74 71 68 62 59 55 52 50 48 48 47 48 48 48 46 45 42 42 41 39 37 37 36 34 32 32 32 29 30 30 27 28
106 108 106 104 106 102 95 101 105 103 104 100 98 88 89 83 79 76 73 69 65 61 58 55 51 50 48 48 48 48 48 46 46 45 45 44 41 38 38 37 34 33 32 32 32 31 30 29 30
106 106 105 104 106 102 97 101 103 104 99 102 100 93 90 88 83 79 75 71 68 64 59 57 54 51 49 48 46 47 47 45 45 44 44 43 41 38 40 38 36 36 34 34 34 32 31 32 33
103 98 101 104 105 103 105 104 104 103 101 104 101 97 95 91 87 81 77 73 72 69 63 60 56 52 51 49 47 47 47 46 46 43 42 41 41 40 41 38 37 38 37 36 36 34 34 34 35
97 95 99 106 110 109 106 106 104 105 102 102 103 101 98 95 92 86 81 78 73 73 69 63 59 54 53 51 49 47 47 46 46 44 42 40 39 41 41 40 40 39 39 39 38 37 38 39 39
93 96 101 104 108 107 104 105 102 101 102 103 101 101 100 96 94 88 84 80 76 76 74 68 62 58 54 53 50 48 48 47 45 44 43 42 41 40 41 41 42 40 41 41 41 41 42 42 43
90 97 99 102 104 106 108 106 104 104 106 102 99 100 100 98 96 92 86 84 80 78 74 71 66 62 59 55 54 52 50 49 48 46 45 44 42 40 41 41 42 43 43 42 43 44 44 44 45
91 94 96 98 102 108 108 104 106 105 104 98 100 101 99 100 98 95 92 85 84 82 76 74 69 67 61 58 55 55 52 51 51 48 48 47 45 43 42 42 43 44 44 44 44 44 45 46 47
87 88 93 95 96 104 107 107 103 104 101 102 99 100 98 97 101 98 95 91 86 80 80 75 70 67 64 58 55 54 53 53 54 52 51 50 48 46 46 45 44 44 44 44 45 46 48 49 49
84 88 90 91 93 101 107 102 104 104 100 100 100 98 98 97 97 99 98 97 95 92 84 77 74 67 66 63 57 54 54 55 55 56 55 53 51 51 50 49 48 49 48 48 48 50 52 53 56
85 85 84 89 91 100 104 103 106 104 97 100 99 100 98 96 95 94 96 97 98 96 92 87 80 75 71 67 63 59 57 56 58 56 57 57 55 54 53 53 54 54 53 53 55 56 57 58 60
78 81 82 86 87 95 100 103 104 103 96 99 98 98 99 97 95 96 96 96 96 96 95 92 87 81 72 73 70 64 62 59 57 59 58 56 57 57 57 57 58 60 61 62 62 62 62 63 65
80 84 82 87 87 92 98 102 102 100 99 100 98 95 97 98 98 98 97 97 96 95 96 95 92 87 81 74 73 72 63 57 62 62 62 56 47 50 54 60 63 63 65 66 66 66 67 69 70
78 82 81 84 84 88 96 98 99 99 96 97 96 95 95 97 98 99 95 96 97 96 95 97 94 91 88 82 77 73 70 67 63 63 60 59 64 54 44 45 50 55 57 60 65 72 73 72 71
79 82 82 80 80 87 94 98 97 95 95 95 95 94 92 93 95 97 93 95 95 96 95 96 96 90 89 86 82 72 70 70 68 68 65 61 59 59 57 55 59 61 62 61 61 64 66 66 64
77 82 84 82 81 85 90 92 96 98 94 94 95 93 91 91 94 94 92 99 94 95 96 94 94 91 69 81 85 84 79 76 74 71 69 61 65 62 64 60 55 60 63 65 68 69 67 67 64
75 78 79 77 82 87 89 94 96 95 92 92 93 93 91 90 92 92 92 98 98 95 95 98 96 94 90 77 81 90 85 82 76 74 76 72 71 71 64 59 62 61 61 62 67 69 66 69 71
74 78 78 81 84 85 87 87 93 89 89 91 89 90 91 91 91 90 89 94 95 96 97 96 97 96 96 94 85 89 93 90 87 76 72 74 76 76 75 74 68 69 73 73 71 72 74 74 76
74 77 78 82 82 80 82 85 88 85 88 87 89 89 88 89 90 87 85 89 92 95 98 96 95 97 98 99 94 92 92 94 97 86 77 72 76 78 80 78 78 81 81 75 73 70 71 73 75
69 73 75 78 74 73 75 77 82 86 88 87 88 88 88 88 89 86 86 87 89 91 95 98 96 96 98 100 97 94 96 100 99 98 98 93 91 82 83 84 87 87 85 81 80 74 77 76 79
67 70 70 71 70 72 73 75 80 80 84 88 88 87 88 87 87 86 85 86 85 88 91 95 97 97 97 99 99 98 96 102 103 103 102 102 104 103 98 95 88 86 87 86 86 84 81 86 90
64 67 68 68 67 71 71 75 75 78 82 83 84 87 90 88 88 86 84 85 87 88 88 91 95 96 96 98 100 99 100 98 102 106 106 104 106 104 103 102 102 103 99 94 95 95 97 102 106
55 57 59 60 64 69 72 74 73 77 78 78 81 86 87 86 86 86 85 85 85 86 87 89 90 96 97 97 100 101 102 102 101 105 109 110 109 108 108 109 107 108 106 106 109 110 109 111 111
53 54 55 59 63 68 71 69 72 74 73 75 79 80 79 79 79 81 83 85 86 86 86 87 88 92 96 99 100 104 103 103 106 105 104 108 113 113 111 112 110 111 113 111 114 114 113 112 114

GFSSGP_250_spd_096.txt.gz
Wind_Speed
96 95 94 95 96 92 88 86 85 83 78 78 70 65 62 55 55 49 53 54 54 52 50 48 47 44 44 46 44 43 44 40 40 37 38 36 37 35 34 33 32 33 33 33 35 37 38 34 31
99 96 97 97 92 90 92 93 89 88 82 72 71 75 70 63 58 52 53 52 53 53 53 50 48 48 45 45 45 44 45 42 39 38 38 38 38 37 36 35 34 34 37 38 39 38 35 33 31
100 102 100 95 92 87 93 97 97 92 85 76 84 82 76 66 56 61 56 56 51 49 48 46 46 46 47 46 46 45 45 42 39 39 38 40 39 38 37 34 34 35 37 36 33 32 31 30 28
104 104 101 94 88 85 91 100 104 97 89 88 91 87 77 74 68 65 63 60 56 50 48 46 43 42 42 43 46 47 46 43 40 38 39 39 39 38 38 36 36 34 34 34 34 33 31 30 28
100 105 104 93 91 91 95 104 102 97 95 94 94 88 80 81 76 69 65 64 60 56 50 47 45 43 40 38 41 44 47 45 43 40 39 38 38 38 36 36 35 35 33 33 34 32 31 29 28
101 103 102 92 89 95 98 103 96 93 96 96 95 88 84 84 81 73 67 65 64 60 55 50 48 46 43 41 40 40 43 45 45 43 42 39 39 39 37 35 35 34 34 33 34 31 32 30 29
96 97 95 96 96 103 104 102 96 96 98 95 95 92 86 85 81 78 73 68 67 63 60 55 52 50 46 43 41 40 39 42 46 46 44 42 39 39 38 36 36 36 35 34 34 33 32 32 31
94 99 101 101 104 104 108 96 98 99 101 101 102 92 87 86 85 81 75 68 71 67 64 58 55 52 50 47 45 42 41 40 41 46 45 45 41 40 39 39 38 37 37 36 35 35 35 34 33
96 101 103 100 103 103 107 99 99 105 104 104 102 92 89 92 88 84 79 73 71 68 66 62 59 55 51 49 47 45 43 41 41 44 45 45 44 42 41 41 40 38 39 37 37 36 36 36 35
96 96 97 102 103 109 110 102 103 104 103 104 100 96 95 95 90 87 83 79 77 71 69 67 63 58 54 51 48 46 45 44 42 42 44 43 44 41 40 41 40 38 41 38 38 38 38 38 38
89 93 101 105 108 113 112 106 107 103 101 108 104 102 101 99 95 91 87 83 80 77 74 69 66 61 57 54 50 48 46 46 44 42 44 42 42 41 40 40 37 38 40 38 39 39 39 40 40
83 96 103 109 111 110 108 109 105 104 102 110 105 102 104 101 97 94 90 85 82 81 77 71 70 65 59 55 52 48 47 47 45 43 44 45 43 42 40 38 38 39 39 40 40 41 41 42 42
80 95 104 109 108 106 109 109 109 106 105 105 101 99 101 104 96 95 92 89 83 82 79 75 71 67 63 58 56 52 48 47 48 46 46 45 46 44 42 40 40 38 40 40 42 42 43 45 44
83 93 103 108 108 108 109 110 107 109 108 105 98 100 101 102 100 93 96 89 87 85 81 77 74 69 67 63 61 56 54 49 50 50 49 48 47 47 44 43 41 40 41 42 42 43 44 45 45
78 86 95 100 104 104 107 110 110 108 109 104 96 99 98 101 103 101 95 92 88 87 85 80 78 73 68 67 65 60 59 54 50 51 51 51 50 50 47 46 44 43 44 44 43 43 45 46 46
74 85 92 97 103 103 106 105 106 109 111 101 99 103 98 100 102 103 101 98 86 89 89 85 84 78 74 70 67 62 62 59 56 51 52 52 52 53 50 50 48 47 47 47 47 48 49 51 52
69 75 84 94 100 100 101 100 105 106 107 100 98 102 99 98 101 102 102 100 98 93 86 84 84 81 78 76 71 68 62 61 60 56 49 52 53 52 53 52 52 52 52 53 54 55 55 56 57
63 73 82 88 97 97 102 99 103 107 103 103 101 102 100 98 98 100 100 102 100 98 96 91 85 83 77 77 75 72 67 63 62 59 55 51 51 53 53 54 54 55 57 57 58 59 60 60 62
68 76 85 90 95 96 101 104 104 103 101 103 103 99 99 99 98 99 100 100 103 88 92 95 94 93 88 82 75 69 66 65 58 59 60 56 54 54 55 54 53 58 62 64 60 57 58 62 63
67 74 82 88 92 93 98 101 101 99 100 100 102 102 100 101 99 98 98 100 98 100 87 90 96 94 93 89 86 83 78 69 62 56 60 55 59 56 56 58 61 61 60 54 46 46 46 49 51
66 71 80 86 83 86 95 100 100 95 97 100 100 101 100 95 96 96 96 97 97 97 99 96 92 92 93 92 87 86 84 80 72 60 64 51 51 48 47 46 50 59 67 67 61 59 60 59 59
63 71 78 81 83 87 93 92 93 91 93 96 96 99 93 92 93 96 93 96 97 97 97 96 93 91 91 90 86 82 81 81 80 66 54 62 60 56 61 59 60 60 61 63 67 69 72 74 74
69 71 72 78 83 88 91 91 92 91 91 93 93 95 95 93 95 96 93 93 98 99 97 94 90 90 91 91 90 87 80 73 81 82 78 74 74 71 67 67 69 69 70 71 70 71 71 71 69
69 70 73 80 85 89 82 81 84 83 83 89 91 92 93 92 92 95 89 92 94 96 95 94 94 93 91 92 91 90 91 89 87 82 89 89 81 78 78 74 70 74 74 73 74 72 74 73 77
67 72 75 82 84 81 79 80 80 83 85 86 87 88 91 91 89 91 89 89 93 94 92 92 96 98 93 92 92 93 93 92 93 86 88 89 93 91 87 80 80 79 81 77 79 79 77 78 81
62 67 72 74 77 76 76 74 76 76 78 82 84 86 85 83 85 90 87 88 91 92 90 92 93 95 96 94 93 92 94 93 98 92 86 85 92 96 95 91 88 88 84 85 83 82 83 88 89
52 62 68 73 76 73 72 71 73 71 75 80 83 83 82 85 88 87 86 85 87 89 89 90 92 93 94 96 94 93 93 96 97 92 93 91 91 92 98 97 97 97 92 87 83 83 89 90 89
49 62 66 69 70 70 69 69 71 72 76 81 81 82 84 84 85 86 86 84 82 85 87 87 89 91 91 92 94 95 95 97 98 97 99 97 101 97 96 98 101 102 101 98 94 94 93 91 91
46 58 59 64 65 66 69 69 70 71 75 77 78 81 84 86 86 84 83 83 78 82 84 83 87 90 90 90 91 93 96 99 100 99 100 98 100 100 105 104 102 104 104 105 104 104 106 104 103
44 51 53 57 60 64 66 67 70 72 74 76 78 81 84 83 83 83 84 84 80 80 80 80 83 86 86 87 89 92 93 98 102 103 103 102 102 103 104 105 107 107 109 109 109 110 110 110 109

GFSSGP_250_spd_099.txt.gz
Wind_Speed
100 100 95 92 92 93 93 87 89 87 85 82 69 68 60 58 57 58 60 48 55 51 48 48 46 43 42 41 41 43 40 38 39 36 33 31 31 32 32 31 32 33 31 30 31 32 33 37 34
104 103 98 99 92 83 91 94 92 92 90 83 78 70 64 63 57 56 64 60 53 51 48 48 46 44 44 43 40 41 42 39 39 39 38 37 36 35 35 35 35 34 31 31 32 33 34 32 34
104 102 102 99 94 85 88 94 94 99 92 87 82 76 68 67 59 59 60 59 56 53 49 48 48 47 45 43 43 40 40 39 40 40 40 39 35 34 35 36 36 35 35 32 34 33 34 33 33
101 102 105 101 92 87 88 100 102 100 94 91 88 79 72 70 67 63 61 59 51 51 51 47 48 48 47 46 43 42 41 42 44 41 40 37 37 35 36 35 36 36 35 35 34 33 32 33 33
101 102 106 100 95 92 94 101 111 103 92 93 91 85 77 74 73 68 69 63 57 51 48 46 46 44 43 44 41 40 40 41 42 42 40 39 36 35 35 34 34 35 35 36 34 33 34 34 32
101 104 104 98 97 97 98 106 109 103 100 96 96 92 84 80 76 74 70 65 61 57 52 49 47 44 44 42 39 36 35 34 34 38 42 42 39 37 37 36 35 35 35 35 34 33 35 34 33
99 104 102 98 98 102 103 112 102 101 105 104 98 93 85 82 75 77 75 70 62 59 54 53 51 48 44 43 42 40 36 36 34 33 38 41 41 40 40 38 37 35 35 35 34 35 37 35 35
99 104 101 102 102 105 110 115 102 101 102 109 105 95 86 83 80 77 78 75 71 67 60 57 54 52 48 46 44 42 40 39 37 35 34 38 40 41 41 40 38 37 37 37 37 37 38 36 36
98 100 100 102 104 107 118 109 102 102 103 106 109 99 97 96 89 85 83 80 76 74 69 58 58 57 54 50 47 45 44 41 39 39 36 36 38 40 42 41 39 39 38 38 39 36 39 37 36
87 94 94 100 106 112 118 112 108 103 99 105 97 99 102 101 96 91 88 86 81 76 71 65 60 60 57 55 51 48 45 44 42 42 41 38 37 39 42 41 41 41 40 39 39 37 40 38 36
77 87 94 97 100 110 117 115 112 105 102 102 97 93 100 101 100 94 89 89 85 79 74 70 64 62 60 59 54 52 47 46 45 44 43 41 39 39 39 40 41 40 39 38 36 35 39 38 38
66 88 96 99 102 106 116 114 108 102 106 106 103 96 99 101 98 93 91 89 87 83 78 73 68 66 63 61 58 55 53 50 48 45 45 44 42 40 40 40 42 41 38 37 37 37 39 39 40
72 89 94 102 103 106 111 111 111 106 105 105 97 88 97 101 98 93 91 90 88 85 81 77 73 70 66 63 60 59 56 54 52 48 45 45 44 43 41 41 42 43 41 39 39 38 41 41 42
71 84 93 96 99 108 110 110 111 108 103 104 99 92 88 100 100 94 90 91 87 87 83 79 77 75 71 69 65 63 61 58 54 52 48 44 45 44 43 43 43 44 45 42 40 40 40 41 43
69 80 89 93 96 104 106 108 107 108 105 107 104 101 96 96 101 97 91 90 91 91 87 82 80 78 76 73 70 68 65 62 59 54 51 49 45 45 46 45 45 47 47 47 45 43 43 44 44
67 79 84 89 95 100 100 99 106 111 108 104 105 103 101 98 98 100 96 85 87 87 88 87 83 81 80 77 74 70 67 64 63 60 56 54 51 48 47 48 47 48 50 50 50 50 49 48 49
67 73 80 89 96 97 97 99 101 105 108 107 108 107 104 100 97 97 97 96 84 88 86 87 88 86 84 80 77 74 69 67 66 64 63 60 56 54 49 48 49 50 51 53 54 54 55 55 55
62 72 81 87 95 96 98 104 103 101 107 111 104 106 103 101 98 98 99 99 96 88 85 89 86 81 86 85 81 78 75 72 69 66 65 60 58 58 55 50 48 50 52 55 57 58 59 58 60
63 70 82 88 94 97 103 108 105 107 112 114 98 101 109 106 102 98 96 98 99 99 91 80 88 93 86 82 81 83 82 77 72 70 68 63 61 57 57 55 52 51 53 56 59 60 63 63 62
61 65 77 85 92 96 103 109 107 108 107 105 104 90 100 104 103 101 97 95 97 98 100 100 93 88 90 90 88 80 79 78 76 75 72 71 65 60 59 57 58 56 55 55 58 62 64 68 63
61 64 71 82 90 95 103 108 109 107 108 105 100 94 97 101 103 101 99 96 94 94 96 98 95 92 91 95 88 85 80 65 65 70 72 64 62 66 57 51 53 52 55 58 61 64 68 69 69
60 65 68 76 85 94 100 103 102 102 103 106 100 94 94 100 100 99 100 99 97 95 94 94 96 97 89 83 88 93 90 86 75 65 69 66 67 65 59 46 51 49 50 54 57 60 63 64 68
56 65 72 75 83 90 96 100 99 103 100 98 99 96 95 93 98 97 98 101 99 98 97 96 95 96 96 78 73 72 82 90 90 90 80 72 72 75 73 63 63 65 65 65 66 66 68 72 71
55 63 69 74 80 86 91 92 94 96 89 90 93 93 92 89 90 92 99 100 100 98 96 97 94 94 95 92 86 85 80 81 84 89 94 93 83 80 82 81 74 72 70 67 71 72 72 73 77
55 59 66 70 76 83 88 93 91 87 89 84 83 85 88 83 86 93 94 96 100 98 97 96 94 93 92 92 91 91 90 93 92 90 92 92 91 93 87 86 91 85 79 78 79 79 79 79 79
48 59 64 65 67 75 81 85 85 82 83 86 85 81 80 83 88 88 89 92 94 94 97 95 94 94 92 95 95 94 93 92 89 90 86 89 90 93 95 92 87 90 95 93 91 87 88 89 87
46 58 62 66 69 70 75 81 81 80 79 79 74 73 77 81 83 83 86 87 88 92 94 97 96 94 93 93 93 96 95 96 96 92 93 91 94 94 92 95 98 95 91 91 93 98 98 99 96
33 46 56 61 64 68 71 75 73 71 72 73 73 74 76 81 82 83 86 85 86 88 91 92 93 90 90 91 93 93 94 96 95 94 96 95 95 93 93 95 95 98 98 98 95 97 100 102 100
22 38 48 57 61 60 62 66 66 66 69 70 70 71 73 76 78 80 82 83 82 83 84 89 88 88 89 89 90 91 92 92 92 94 97 99 98 98 97 98 96 97 94 95 99 95 95 96 98
25 29 38 49 53 54 58 63 65 64 66 69 70 70 73 78 79 81 81 81 79 81 84 85 83 85 86 85 86 88 89 90 91 93 95 98 99 100 100 102 101 100 97 95 98 101 105 106 105

GFSSGP_250_spd_102.txt.gz
Wind_Speed
83 86 91 93 94 84 76 88 87 86 86 86 77 69 65 63 60 53 56 53 53 55 53 48 46 46 47 43 41 38 38 38 37 36 35 33 32 30 28 28 28 28 30 30 31 30 31 31 33
81 87 91 95 93 85 77 87 93 92 91 85 82 75 71 67 64 58 52 57 53 50 51 51 48 45 45 45 42 38 37 37 38 38 38 36 35 33 32 32 32 31 31 31 32 32 33 33 32
84 89 94 96 93 87 77 84 95 99 96 92 89 80 74 69 67 64 60 56 58 56 53 50 53 49 45 43 42 40 38 36 37 40 40 38 37 35 35 34 33 33 31 33 33 34 33 33 33
87 90 98 94 92 88 86 91 103 107 102 97 92 86 79 77 72 67 64 60 56 58 58 51 49 49 46 44 42 41 39 38 36 37 38 39 38 37 35 34 34 33 32 32 32 32 32 34 32
85 91 97 95 92 94 96 99 110 111 105 100 96 90 85 80 75 69 65 63 59 56 55 58 53 50 46 43 43 43 41 39 38 39 39 39 41 39 38 36 33 32 31 32 32 32 33 33 32
71 92 97 94 96 99 102 106 113 112 106 104 99 95 87 82 77 61 66 66 62 58 55 55 56 54 46 44 45 44 42 41 39 38 36 35 37 39 38 38 36 33 32 33 33 32 32 33 34
63 87 97 97 98 105 108 114 113 109 105 103 102 98 91 85 81 71 72 70 64 60 56 54 52 52 48 46 44 43 39 37 36 35 32 30 30 33 35 38 38 36 35 34 34 33 33 34 36
68 83 101 97 102 105 117 118 111 112 111 105 106 101 94 87 86 82 77 70 68 66 62 59 55 49 46 45 43 42 41 39 37 36 34 33 32 31 32 34 37 37 37 36 35 35 35 38 37
72 77 97 97 98 107 124 120 117 114 112 107 104 101 99 93 90 83 77 71 73 70 68 62 61 58 53 49 46 44 43 41 40 39 37 36 34 33 31 32 35 35 37 38 37 37 37 38 40
66 70 87 94 102 115 123 118 119 118 114 105 101 104 101 94 87 85 76 75 75 73 71 67 62 60 56 51 50 48 45 44 43 42 40 38 37 37 35 34 35 35 36 37 38 39 40 38 39
55 61 82 95 104 110 119 120 124 121 115 105 97 81 98 96 92 87 82 77 82 77 71 72 68 64 61 53 53 51 50 48 48 45 43 41 40 40 38 37 37 36 35 36 38 40 40 38 37
52 69 84 92 100 110 116 121 123 121 112 107 105 101 91 98 98 92 92 90 85 84 79 72 73 67 65 63 56 55 55 53 52 49 46 44 44 43 41 40 39 39 37 38 38 38 38 38 38
58 71 81 92 102 102 112 117 119 119 113 108 99 96 88 77 103 98 94 97 93 86 81 79 76 73 69 66 64 59 56 56 56 53 50 48 46 45 44 42 40 39 40 40 40 41 40 40 41
58 67 82 93 100 107 112 115 118 118 113 111 108 88 85 89 85 97 95 94 97 92 86 84 80 79 74 72 68 65 60 59 58 57 56 53 51 48 46 43 40 41 41 41 42 43 45 45 44
58 66 80 89 94 102 108 110 111 114 113 109 108 105 70 78 72 82 103 100 99 96 93 89 88 83 81 77 73 70 66 63 62 60 57 56 55 52 49 47 44 42 42 43 44 46 47 48 49
62 67 77 88 97 99 104 109 108 112 109 108 108 107 108 65 70 75 84 99 102 97 94 92 89 85 83 82 78 74 72 68 67 63 61 60 59 58 54 51 49 47 45 45 46 48 51 52 52
62 68 75 87 94 101 108 105 105 104 104 107 110 109 106 102 70 66 76 82 92 97 99 91 87 84 85 82 83 78 75 73 72 69 66 65 64 63 60 57 54 53 53 49 47 51 52 53 55
54 63 73 86 94 103 102 103 104 106 105 110 108 107 107 105 97 84 86 82 80 87 92 90 88 88 83 79 78 76 80 78 77 74 70 69 68 65 62 61 61 58 59 58 55 52 52 54 56
55 60 71 82 93 98 102 105 110 105 106 102 99 103 110 110 108 101 87 91 83 82 89 92 88 83 85 85 75 82 82 80 80 75 72 70 69 67 66 63 61 60 59 58 57 56 55 53 54
53 58 66 81 89 96 102 105 105 101 99 97 96 99 105 110 111 107 100 88 86 90 90 89 89 90 87 82 84 85 87 85 85 82 78 74 73 71 70 67 65 64 62 63 62 62 62 62 61
52 58 67 75 91 98 105 101 100 97 93 95 101 101 103 109 111 108 106 103 96 90 93 90 94 91 90 87 86 79 82 79 78 73 76 78 77 78 76 72 68 68 69 69 68 66 68 69 68
51 60 69 81 89 96 101 97 98 98 99 102 103 104 102 103 108 111 107 103 101 97 93 88 90 90 85 90 93 91 90 85 75 79 78 71 66 67 68 68 69 68 68 66 63 71 68 72 74
51 54 63 74 87 94 95 97 100 103 101 102 101 102 107 104 102 110 108 104 103 100 96 94 91 92 94 94 95 94 93 81 76 67 62 66 69 63 68 70 67 71 69 68 62 64 70 68 65
49 54 66 72 84 90 94 99 103 101 94 95 101 104 104 101 96 96 105 105 103 102 99 98 92 88 93 95 89 88 96 96 88 85 89 76 74 85 86 79 74 71 74 73 75 74 71 74 72
52 58 68 73 80 87 95 98 103 103 102 99 98 98 101 99 95 95 93 97 103 105 104 100 97 96 81 85 92 91 88 88 89 93 97 99 94 84 86 94 90 86 88 78 81 83 80 80 78
47 60 67 71 72 81 91 93 99 102 103 101 98 97 95 90 92 93 90 91 95 98 96 101 101 97 90 78 82 93 92 90 88 92 96 94 92 92 90 86 85 85 90 92 97 97 93 90 91
41 53 64 69 73 75 82 89 91 96 96 96 98 98 96 93 92 88 85 84 85 89 91 97 100 100 98 97 91 89 92 93 93 91 90 94 99 93 84 87 91 92 93 95 95 98 100 101 100
34 48 60 64 67 71 80 86 87 90 93 92 93 93 94 92 91 86 86 80 80 83 88 93 96 96 98 100 101 99 98 96 97 94 92 93 96 99 101 99 98 94 92 97 95 94 98 100 100
23 37 51 56 61 64 71 79 83 86 87 89 87 84 82 83 83 81 82 82 78 80 86 91 95 95 95 98 98 100 98 99 97 95 95 97 96 96 97 98 99 100 99 97 98 99 97 96 94
19 28 45 53 59 63 67 72 76 80 80 76 79 79 75 72 76 78 80 79 78 81 85 88 90 91 91 91 92 92 94 97 98 96 97 97 97 97 96 96 97 99 101 102 101 101 100 100 98

GFSSGP_250_spd_105.txt.gz
Wind_Speed
59 64 75 80 83 82 83 81 87 93 90 89 84 74 69 68 64 59 58 56 54 55 54 52 51 48 46 43 42 39 38 35 35 37 35 31 31 31 29 29 27 26 26 27 27 28 29 30 32
62 67 73 78 81 80 83 83 85 90 92 90 88 82 73 70 67 64 59 57 57 56 54 53 50 49 49 46 42 40 38 37 34 37 37 36 35 35 35 32 30 30 30 30 29 30 30 31 32
61 63 71 78 82 80 79 83 87 93 94 94 95 84 79 74 72 67 64 58 56 56 56 53 53 51 48 46 42 39 38 39 36 34 36 36 37 35 37 36 33 33 33 31 31 30 30 30 31
62 59 71 74 79 74 78 85 93 100 99 96 97 91 80 78 75 70 68 64 57 56 54 51 50 50 50 50 46 43 38 40 38 35 34 33 35 37 37 35 35 34 33 35 32 29 30 31 30
61 66 66 70 72 74 85 91 99 105 102 98 100 94 86 82 80 74 71 67 63 56 58 55 52 50 48 47 49 48 43 40 38 36 34 34 34 34 34 36 37 38 36 33 32 30 31 32 30
63 67 66 61 61 79 87 98 104 109 105 100 100 94 90 88 83 78 74 70 65 62 57 57 58 56 53 50 44 44 44 42 40 39 37 36 35 35 34 34 35 36 36 34 33 32 33 33 32
65 68 67 62 58 81 92 104 109 111 110 102 99 99 81 87 86 82 75 72 69 64 64 61 57 58 56 53 51 47 46 43 41 39 39 38 33 30 29 28 28 30 32 33 34 35 35 34 34
67 69 73 66 59 81 95 103 112 113 112 103 100 100 92 89 87 84 80 72 69 65 64 65 62 58 54 53 53 52 48 45 42 39 37 34 31 29 29 29 28 26 28 28 31 34 34 35 36
71 70 72 67 65 80 91 104 113 115 116 110 101 99 101 96 96 87 80 72 68 68 68 69 63 60 55 52 51 50 51 50 43 40 38 36 34 33 31 31 30 29 28 28 29 31 34 35 36
69 64 67 72 72 85 97 107 113 120 121 115 106 102 103 102 94 84 83 71 52 66 68 69 70 64 58 53 50 44 43 45 43 41 40 38 37 36 34 34 33 33 32 32 32 32 32 34 35
65 56 67 77 79 86 96 105 116 123 123 114 106 98 98 95 95 87 84 78 54 60 64 59 63 63 60 57 54 51 49 48 47 45 43 41 41 39 37 37 37 36 35 35 35 35 36 36 36
52 53 63 71 78 87 91 104 116 122 122 114 109 102 95 97 96 93 85 83 68 66 68 79 75 65 62 59 56 55 55 51 50 50 48 47 45 44 42 41 41 39 39 38 37 38 37 39 39
44 52 58 69 79 85 92 109 113 119 120 117 111 94 101 94 93 97 93 91 90 88 70 78 78 69 67 64 60 59 57 56 54 52 51 51 50 49 47 44 43 42 42 40 38 39 40 39 40
42 44 56 70 75 91 95 103 110 114 119 118 112 99 88 95 80 86 93 87 88 93 82 77 79 78 73 69 66 64 61 60 59 57 54 53 53 52 49 46 45 45 44 44 40 39 40 41 43
38 47 56 69 77 82 90 107 102 112 119 118 113 105 88 78 87 82 78 83 88 89 92 85 83 78 77 75 70 66 68 67 64 61 62 56 54 53 52 51 52 50 48 46 46 44 43 43 45
42 49 56 73 78 86 91 97 101 108 116 115 112 109 100 83 71 77 77 86 85 86 86 86 86 81 80 76 75 73 70 70 70 65 63 63 61 58 57 54 53 54 54 53 51 50 51 50 49
43 48 59 71 77 85 90 102 99 107 111 115 111 112 105 94 77 62 69 74 80 86 87 86 87 89 90 83 79 79 77 73 70 71 71 69 68 63 61 59 58 58 58 59 57 56 57 56 56
43 52 63 70 78 86 99 106 107 100 109 114 113 111 108 104 84 82 66 74 75 79 82 89 90 92 90 89 85 82 82 81 81 79 76 74 71 70 68 66 65 63 62 62 62 62 62 61 59
45 52 61 71 76 85 91 99 102 90 107 110 111 113 110 108 108 78 83 64 76 76 77 83 85 90 90 90 90 91 93 89 84 80 76 77 77 76 72 71 71 69 65 65 63 64 64 65 65
44 53 61 65 70 82 84 97 103 103 106 111 112 111 110 111 108 106 80 59 74 89 83 86 85 84 85 76 72 73 76 78 86 86 86 86 79 76 73 73 72 72 71 68 68 67 67 70 71
46 53 58 62 66 77 83 92 95 101 102 100 112 109 108 108 108 101 90 73 63 69 80 86 84 86 87 90 89 73 70 66 72 72 79 80 75 72 76 76 74 74 74 73 73 72 73 72 74
47 54 57 64 67 74 83 92 96 99 103 108 102 106 108 108 106 105 103 88 79 74 80 86 88 84 84 83 86 86 72 72 81 80 69 78 78 77 73 70 70 66 71 70 67 67 69 70 71
47 52 56 61 65 72 81 90 96 102 100 96 104 103 105 106 106 104 107 110 94 81 75 81 83 72 77 82 85 83 90 82 75 68 75 74 79 71 72 62 63 70 68 67 65 64 65 71 76
45 52 57 61 68 71 78 88 99 102 100 97 95 98 98 101 104 106 110 112 110 99 84 83 75 73 72 83 87 85 90 90 87 72 81 76 72 73 60 57 62 68 70 70 68 62 70 70 78
45 51 60 64 70 74 80 91 95 95 94 98 97 96 97 100 102 105 109 111 113 112 105 102 91 82 83 73 78 87 86 88 91 90 87 88 89 84 78 72 73 72 73 77 73 74 82 83 83
43 50 58 59 64 75 78 86 92 93 96 99 102 97 89 91 100 105 105 105 105 110 114 112 110 101 95 90 89 84 85 89 90 91 92 95 95 97 97 98 98 96 95 96 87 92 92 89 87
38 47 53 60 65 69 79 86 91 89 92 98 98 94 91 89 94 96 101 104 105 103 108 110 110 107 106 98 98 92 95 88 93 89 87 94 96 97 97 97 93 90 89 92 96 96 95 93 92
33 43 54 60 63 69 77 85 89 88 89 91 95 96 90 92 94 97 95 91 97 101 103 106 108 108 108 106 105 102 98 90 93 97 93 90 90 97 99 99 98 93 91 91 94 96 97 98 98
26 41 51 60 64 70 75 82 89 90 91 90 92 94 96 97 97 95 95 95 94 92 95 95 96 99 106 108 106 105 102 100 97 97 100 103 101 95 97 96 99 99 96 95 95 96 98 100 102
23 34 45 54 60 66 73 79 86 93 91 89 90 90 91 92 88 88 95 86 91 92 89 89 88 93 95 97 101 96 104 106 109 108 108 110 108 105 102 104 102 101 98 99 100 100 101 102 103

GFSSGP_250_spd_108.txt.gz
Wind_Speed
67 66 66 67 67 62 65 72 74 79 87 81 84 79 74 73 67 61 60 58 54 55 54 53 52 50 49 49 46 45 43 38 37 33 31 29 31 31 29 29 29 29 28 28 28 28 28 27 28
66 64 68 69 69 69 59 67 71 79 85 90 88 82 78 75 67 63 61 59 57 59 56 56 53 51 50 48 48 46 43 38 37 34 30 29 32 33 33 31 30 33 33 31 30 31 30 30 29
68 66 68 71 70 62 61 69 66 84 88 92 88 84 82 74 71 67 66 62 59 59 60 58 56 53 51 48 48 47 44 41 38 33 30 30 30 33 33 33 32 31 33 33 32 31 31 31 30
70 71 73 71 72 60 64 75 72 89 94 93 91 87 84 83 77 74 70 66 63 61 59 59 58 55 53 51 49 47 45 41 34 31 32 31 30 29 31 30 31 32 32 32 33 33 32 31 30
74 72 74 74 71 56 67 74 78 89 95 95 94 94 86 87 80 78 75 72 68 66 62 58 57 55 54 51 50 49 46 43 39 37 36 32 31 30 30 31 31 31 32 34 35 34 32 31 31
80 78 77 75 70 58 69 76 82 89 96 97 94 95 93 95 90 83 81 78 72 69 65 60 58 55 54 52 49 47 46 43 41 40 38 36 34 32 32 31 32 30 30 31 32 31 31 31 32
80 83 77 77 75 68 66 72 83 86 95 97 94 93 95 100 97 91 84 82 76 71 67 63 57 53 53 52 48 45 44 42 39 35 35 37 35 34 33 32 28 26 24 24 26 24 25 28 30
79 85 80 76 74 65 66 71 74 88 96 100 100 97 95 97 95 85 86 84 78 74 69 65 63 57 52 54 51 50 47 45 44 42 37 37 37 35 32 28 26 26 25 25 25 25 24 26 27
74 77 80 79 76 64 69 69 76 85 99 99 103 100 98 93 88 79 87 82 81 75 70 67 65 62 60 55 54 54 54 53 49 46 41 39 39 37 32 30 29 28 28 27 27 28 28 28 29
68 73 82 87 80 78 75 73 82 85 97 99 102 103 104 102 94 89 71 80 82 79 75 71 67 65 62 60 58 56 54 52 48 47 45 44 42 38 35 33 33 32 31 31 31 31 31 32 33
64 60 77 88 86 83 76 77 83 86 94 99 103 105 107 104 94 78 57 87 86 83 78 73 71 69 67 64 59 58 57 51 47 44 39 40 40 39 38 36 36 35 35 36 35 35 34 35 35
64 65 65 77 85 88 80 82 85 90 93 99 106 109 105 102 99 95 104 83 62 81 80 75 72 67 67 66 64 62 57 57 51 46 38 40 41 42 42 40 40 40 40 41 40 39 39 38 39
66 65 64 72 75 78 82 89 89 91 96 104 106 108 88 98 95 98 96 93 86 79 77 72 72 63 64 66 70 66 62 57 52 48 45 46 43 44 47 46 45 45 46 44 41 42 42 42 41
61 61 63 64 64 70 80 90 91 95 99 107 110 110 94 96 90 97 99 99 90 81 74 67 58 62 65 63 60 59 58 54 53 50 47 46 47 48 46 47 47 48 47 46 46 48 48 47 46
55 53 54 56 57 65 79 86 98 101 107 111 113 113 101 93 85 87 97 98 92 82 72 68 61 65 64 70 62 56 56 58 56 55 55 52 51 50 52 51 49 47 48 51 52 51 51 52 51
46 44 46 49 54 61 71 88 89 92 102 108 113 109 106 92 75 77 94 91 94 85 79 79 73 68 69 68 73 72 68 66 62 59 61 59 58 58 56 56 55 55 52 53 54 54 55 55 55
36 36 40 43 52 60 75 95 98 100 107 106 113 107 104 97 82 68 69 71 82 80 87 80 81 85 85 77 76 78 75 69 71 71 66 63 61 61 61 62 60 60 63 64 61 60 62 60 58
29 34 36 44 54 63 79 91 97 92 103 108 111 106 110 97 91 77 75 72 79 78 79 86 84 87 87 80 78 76 78 81 75 73 67 66 68 68 69 67 66 67 67 64 64 65 69 68 64
26 29 33 46 57 69 83 90 96 92 102 105 107 107 106 103 85 82 80 82 70 73 68 70 74 83 84 80 80 79 82 80 77 77 77 78 75 75 74 74 73 73 72 72 73 70 71 73 74
26 29 37 48 60 73 82 86 91 84 92 101 107 105 102 103 104 98 86 88 81 68 67 63 55 64 64 64 70 76 74 73 78 79 77 78 76 76 81 84 84 86 84 79 74 75 71 72 73
25 32 39 52 63 78 87 89 93 80 79 99 103 103 102 105 107 104 91 88 83 79 66 70 43 53 63 54 56 60 64 64 65 64 68 77 83 85 83 83 80 76 77 76 75 72 76 72 70
25 32 38 48 61 77 87 91 83 83 90 87 105 101 102 106 109 109 91 87 86 84 80 66 70 60 64 69 57 55 54 47 48 50 57 60 64 69 72 72 72 72 67 72 77 77 75 77 75
25 32 38 46 56 67 73 90 89 86 82 79 99 100 100 105 106 104 98 80 80 76 86 73 60 64 33 70 61 61 63 55 52 49 55 62 63 59 63 59 60 59 56 58 66 70 73 74 74
26 36 41 46 53 60 76 89 95 94 78 71 92 98 101 100 103 105 104 98 83 69 79 87 74 64 68 68 64 65 66 71 66 70 61 53 67 70 61 65 62 47 62 71 68 68 72 76 69
26 34 43 47 53 54 69 85 93 93 74 79 75 72 98 98 103 105 106 109 94 90 77 79 73 69 77 78 73 71 72 67 64 68 69 64 66 66 66 69 68 74 74 77 74 70 76 77 78
26 37 42 49 52 59 63 79 91 92 87 85 75 83 88 98 101 104 108 106 108 97 93 92 86 97 71 74 78 90 87 76 72 73 73 76 80 84 85 83 79 80 81 79 82 86 92 90 84
27 35 41 47 49 58 59 67 81 89 95 84 78 72 81 92 99 100 103 109 112 101 103 103 102 98 90 79 83 83 79 82 70 76 74 78 85 86 86 83 83 81 88 92 95 98 98 95 97
26 34 39 45 50 56 61 71 81 85 90 93 89 86 79 85 97 103 107 110 114 118 107 102 106 108 103 90 91 94 96 81 81 79 80 82 86 92 95 94 95 100 94 87 91 93 95 96 96
27 31 37 43 50 54 58 66 75 86 86 90 88 89 92 94 92 95 104 106 112 117 120 118 104 101 97 95 94 90 87 92 89 85 87 88 94 99 100 104 105 102 102 103 105 104 100 98 97
24 32 37 42 47 51 59 69 73 77 88 91 94 88 74 81 82 91 99 102 106 109 114 116 118 115 108 103 102 96 97 103 101 95 102 106 105 105 105 106 110 110 112 111 106 106 104 104 103

GFSSGP_250_spd_111.txt.gz
Wind_Speed
61 77 80 79 80 75 67 62 59 67 72 74 79 80 79 76 72 67 65 62 57 55 51 50 49 47 46 47 47 48 46 45 42 39 36 32 29 27 26 28 26 26 28 27 27 26 26 27 29
54 72 83 84 81 77 71 59 64 64 76 81 80 80 80 78 74 71 69 65 63 58 55 53 52 51 49 48 48 48 46 44 43 39 36 32 29 28 27 28 28 29 29 30 30 29 28 28 27
54 63 81 86 83 80 76 68 61 70 74 81 80 79 78 75 75 74 73 69 65 61 58 56 55 54 52 51 49 49 46 45 43 42 36 32 32 30 28 28 29 30 31 30 30 29 28 28 30
57 77 83 88 81 81 77 71 70 71 75 79 81 80 77 78 79 80 76 73 69 65 62 58 57 57 55 54 51 49 47 45 42 40 38 35 29 25 26 27 27 27 29 28 29 31 31 32 34
64 74 83 85 86 83 83 82 80 71 72 79 81 79 82 85 81 82 79 77 71 69 66 61 58 57 56 55 53 51 48 45 42 41 37 34 31 28 27 26 28 27 28 28 28 27 28 29 30
63 73 75 79 84 88 84 88 85 74 71 77 83 82 90 85 84 90 82 78 75 72 68 64 60 57 56 55 54 51 49 46 45 42 39 36 34 33 28 29 28 29 29 27 27 25 24 23 24
65 70 72 76 82 92 89 93 90 76 71 79 80 81 85 87 94 83 82 80 77 74 70 67 62 59 56 55 54 53 50 47 45 42 40 34 28 27 29 29 28 29 27 24 22 21 21 21 22
63 68 70 77 81 87 90 94 93 80 68 78 81 78 81 88 90 83 82 79 76 75 72 69 65 63 59 56 53 51 51 49 45 40 38 36 35 29 30 30 28 27 26 24 23 22 23 23 23
66 66 69 74 82 79 91 92 92 85 74 70 80 77 81 85 88 86 80 79 74 76 75 71 68 65 61 58 54 52 51 47 45 42 42 41 39 37 35 33 31 27 26 27 26 25 25 26 27
64 65 75 75 77 81 88 89 91 84 76 69 72 78 77 86 83 83 75 81 77 79 77 76 73 68 64 61 58 54 50 46 46 47 46 45 46 41 38 37 34 30 30 29 28 29 30 31 31
68 72 73 77 78 86 86 89 92 88 80 75 72 80 76 89 91 70 76 76 83 79 77 79 75 74 70 65 61 60 56 53 49 48 48 45 43 39 39 38 34 32 32 32 32 33 36 38 38
65 72 76 77 77 81 85 89 91 91 86 83 76 80 81 87 95 90 70 64 51 55 69 77 83 78 76 70 66 63 60 59 55 52 49 49 43 39 38 34 34 34 36 39 38 39 40 41 40
65 68 72 78 78 79 85 89 91 88 92 88 76 82 83 84 83 84 69 45 57 61 61 63 66 80 78 73 68 67 64 61 58 54 51 49 46 42 37 37 37 37 38 41 43 44 43 42 43
67 66 69 71 71 76 80 84 86 89 91 91 82 85 89 96 90 86 73 73 65 50 57 63 66 74 77 76 73 68 65 61 60 57 52 51 51 48 43 40 42 41 41 41 41 44 44 46 46
65 66 65 70 69 70 72 79 76 87 89 87 81 90 96 104 100 85 84 82 73 68 44 47 56 69 77 70 73 71 64 61 60 59 58 56 54 50 51 48 47 48 47 48 49 49 49 47 47
64 63 63 62 64 66 65 69 77 81 89 89 85 94 102 108 105 92 90 82 69 51 54 50 50 55 68 70 74 72 71 60 53 54 51 52 48 50 51 53 53 52 51 53 55 56 56 54 57
54 55 54 50 56 57 56 65 71 77 87 87 94 98 108 112 111 102 98 104 88 78 65 53 51 58 57 56 60 67 71 69 60 53 54 54 55 54 53 53 57 58 56 57 56 57 56 56 60
47 43 43 41 43 48 56 64 73 80 89 92 100 101 110 117 115 114 95 93 102 93 88 72 66 65 62 56 57 64 66 67 62 61 62 61 59 64 63 67 65 63 63 62 63 64 63 65 68
37 34 33 35 39 48 60 66 73 78 89 95 97 99 109 117 120 118 107 92 91 94 89 95 93 85 73 70 67 67 67 66 63 64 67 73 76 72 73 75 70 68 66 66 67 67 70 71 72
27 26 28 37 43 53 59 65 71 76 87 92 96 97 108 117 115 116 105 99 75 91 92 85 83 79 77 71 67 60 63 69 70 69 73 74 74 73 69 67 68 71 64 61 63 65 70 72 74
20 22 29 36 44 55 61 65 72 77 92 100 99 98 105 117 106 111 98 82 82 91 80 73 84 76 55 60 67 62 59 65 71 71 70 70 72 73 72 66 67 69 71 73 76 77 73 72 70
16 21 28 33 44 53 63 68 72 81 89 92 88 92 105 110 106 102 99 99 72 55 54 61 56 58 53 52 58 59 50 55 58 58 59 58 58 62 58 60 65 65 63 63 63 62 62 65 68
13 20 28 39 48 61 64 70 78 80 86 85 85 90 98 106 111 97 89 90 79 67 67 48 61 56 42 39 38 40 45 50 54 60 61 60 61 66 69 66 59 58 59 57 61 62 64 68 68
11 19 28 39 48 59 69 69 77 81 84 83 76 89 95 101 106 103 102 100 78 88 74 81 58 60 48 38 41 38 51 48 51 59 57 60 65 68 63 55 53 51 51 54 54 58 62 67 72
10 16 27 35 47 56 68 76 78 81 79 76 76 65 86 100 110 110 111 98 91 89 89 84 69 76 66 59 30 41 45 53 50 64 62 57 61 57 53 55 58 53 58 59 63 68 73 72 68
10 15 24 34 42 48 65 78 76 76 74 78 75 77 80 97 110 117 109 105 101 93 88 87 84 84 78 67 54 54 42 44 44 46 64 56 60 60 61 54 55 57 62 62 66 66 68 74 75
11 17 20 27 34 46 63 72 76 69 72 68 79 85 79 91 103 112 115 114 104 104 103 92 93 87 86 83 62 71 56 46 45 49 60 72 71 71 69 67 65 66 69 70 74 77 81 84 86
14 18 24 29 38 44 58 69 73 82 81 72 62 76 71 86 89 109 113 113 110 106 98 102 101 95 94 91 76 77 85 77 79 70 71 75 79 80 81 78 75 77 77 77 81 88 91 85 78
14 20 27 34 44 44 50 66 75 78 74 82 71 66 62 76 87 94 111 115 114 103 99 98 101 103 103 97 99 86 93 94 90 93 82 86 90 86 88 89 84 83 88 88 92 92 90 94 100
14 19 26 33 40 48 63 71 75 75 68 65 63 66 60 70 91 91 102 111 113 113 110 102 95 104 115 106 109 105 95 100 99 92 96 92 93 96 97 98 95 87 90 91 94 97 100 103 107

GFSSGP_250_spd_114.txt.gz
Wind_Speed
46 57 59 58 64 68 63 67 61 61 56 61 65 69 68 71 74 73 66 67 62 60 56 51 49 46 44 42 41 42 42 43 43 41 39 37 33 31 29 25 23 25 26 26 26 26 26 27 27
43 48 60 60 60 66 68 67 66 63 66 63 67 70 68 69 71 76 74 70 67 64 60 56 52 50 47 45 45 44 43 44 42 42 40 40 35 31 28 27 25 25 27 28 28 29 30 29 26
38 47 61 59 50 64 75 72 71 70 69 67 65 68 72 69 72 73 78 76 71 66 65 59 56 54 50 47 47 46 44 45 42 41 39 39 36 31 28 27 28 27 26 27 28 28 28 29 28
39 42 58 61 55 65 75 75 73 75 73 67 68 66 70 72 72 75 76 80 75 70 68 64 59 57 54 50 48 47 47 47 44 41 40 40 38 31 28 23 24 26 24 24 24 25 26 26 26
40 39 40 47 55 70 81 84 78 78 77 68 69 63 67 74 75 78 78 80 79 74 71 67 63 60 56 52 51 50 49 49 46 41 39 38 36 34 28 26 26 24 24 24 24 24 25 25 23
37 37 39 45 64 69 81 87 79 83 78 73 65 64 64 71 76 78 81 80 80 79 74 70 67 63 59 55 52 51 50 49 46 43 39 38 36 34 31 29 29 25 25 26 25 24 22 18 17
39 35 44 53 58 68 86 92 89 84 77 67 61 60 59 60 69 80 82 80 81 78 77 73 69 65 62 58 55 53 52 50 47 45 42 41 37 34 30 25 23 24 23 25 24 21 21 20 19
47 37 46 65 73 71 90 94 92 88 83 76 69 57 62 68 66 78 84 79 82 81 77 76 71 67 65 61 58 55 53 51 48 46 45 42 38 36 32 28 26 26 26 24 22 21 23 23 22
50 39 41 64 81 83 92 93 97 97 84 68 55 57 61 62 58 68 83 84 79 80 78 76 73 70 68 63 61 58 54 52 47 45 43 41 40 36 34 32 31 33 31 26 25 24 24 25 24
48 43 50 65 74 81 95 99 98 93 86 66 53 59 55 59 61 58 84 72 77 72 75 77 74 71 69 67 63 61 58 54 49 45 44 42 39 37 40 37 36 36 35 32 29 27 27 27 29
49 50 59 62 72 76 86 95 96 88 79 71 53 58 60 60 60 56 82 93 73 62 63 70 74 73 70 69 66 63 60 55 52 48 44 44 39 40 41 38 36 35 35 34 32 29 31 32 34
54 59 64 62 74 70 82 94 88 83 77 72 67 66 64 65 62 65 69 77 70 62 59 72 72 73 72 72 70 65 62 58 55 51 47 45 42 41 41 40 38 36 33 32 34 35 36 37 38
61 62 66 64 72 76 83 84 81 75 79 72 67 63 57 65 69 70 78 62 68 54 67 58 70 76 72 75 72 68 65 62 59 54 53 52 50 46 44 40 41 38 36 35 37 38 39 40 39
63 62 64 63 72 75 80 83 75 77 77 71 63 66 59 62 72 71 70 56 77 56 69 69 67 66 74 75 75 75 69 65 63 60 56 56 54 51 46 43 45 44 42 39 41 41 42 43 44
65 64 63 66 70 71 75 79 74 87 85 73 63 72 66 68 74 70 65 57 76 74 60 76 71 65 61 55 66 76 72 67 65 64 59 58 56 54 51 47 49 47 50 50 51 49 49 49 48
63 63 65 69 69 72 69 78 81 83 82 79 76 73 72 80 78 80 68 63 89 84 80 73 65 57 61 60 58 59 69 74 67 66 64 61 57 56 54 52 52 48 50 51 52 51 51 52 55
62 66 68 68 65 66 68 79 79 81 86 86 84 78 80 87 81 79 66 61 74 87 71 63 64 64 64 64 63 54 57 64 67 67 66 64 58 58 53 51 52 46 45 46 50 52 54 58 60
63 60 60 59 59 61 64 73 75 76 80 83 83 81 87 90 78 76 83 79 65 79 75 73 73 65 63 57 61 57 52 56 59 60 62 62 60 56 50 48 56 54 52 61 64 64 62 58 59
57 55 53 50 51 53 59 65 68 72 78 81 85 81 91 86 91 86 84 70 72 72 74 79 76 63 62 57 52 58 61 62 60 60 62 62 60 60 61 61 59 61 64 64 60 59 56 60 60
49 46 42 41 46 50 53 55 59 66 70 75 78 85 96 110 99 92 71 64 60 76 74 66 73 64 55 59 54 51 55 55 56 53 49 49 54 55 60 64 65 68 71 73 71 64 64 69 66
36 34 35 37 38 40 43 48 56 60 65 72 83 94 97 121 102 96 87 80 59 60 95 77 63 68 63 61 66 59 48 42 49 47 53 56 57 59 63 67 70 73 73 75 75 74 73 72 68
27 25 28 30 33 35 42 50 55 61 68 74 88 102 109 130 114 103 88 81 63 49 74 76 70 68 69 63 57 58 61 56 57 58 58 52 54 58 63 64 67 68 67 65 65 65 67 68 69
18 21 25 28 31 35 42 46 53 63 67 69 88 101 108 132 120 104 87 84 69 59 67 82 68 84 81 78 70 66 62 68 64 59 59 51 57 63 64 64 64 64 66 66 64 63 64 67 65
17 18 21 26 30 34 37 41 47 56 63 67 88 100 106 132 130 106 104 90 80 63 60 64 69 71 70 63 66 75 65 66 61 52 52 58 59 55 57 62 68 65 62 64 66 66 63 63 66
11 13 15 22 28 36 40 44 47 53 57 66 84 97 104 134 134 121 112 99 92 72 65 57 69 73 66 65 66 65 57 52 52 51 48 49 58 61 63 61 61 62 61 58 58 63 67 68 64
9 10 13 21 28 35 41 45 49 51 60 65 85 92 108 130 139 133 124 115 104 89 82 55 55 65 69 63 68 58 57 51 46 43 52 56 63 58 55 60 63 58 51 62 65 70 61 67 66
11 11 12 17 24 33 39 44 49 54 55 57 74 91 120 135 139 138 134 122 119 103 99 73 69 71 74 71 71 61 56 49 61 52 52 62 60 57 62 62 55 56 62 66 61 63 60 61 64
12 15 15 15 23 30 42 46 47 47 49 57 69 85 110 133 136 136 133 127 122 98 91 89 73 74 72 75 70 65 58 65 63 59 62 62 69 69 63 69 67 68 70 66 68 71 69 69 72
17 17 17 16 24 25 43 51 50 48 51 55 59 79 92 126 131 138 137 130 122 118 105 106 97 89 79 83 76 72 65 62 63 65 71 75 77 77 63 70 71 71 74 73 74 74 73 74 73
17 20 21 22 25 30 44 52 54 54 53 57 58 67 85 108 128 123 132 133 128 117 115 114 109 107 96 92 85 84 80 78 75 71 64 73 74 80 74 71 70 71 74 77 78 80 84 87 89

GFSSGP_250_spd_117.txt.gz
Wind_Speed
34 27 32 24 38 47 57 64 55 49 48 60 59 56 62 59 64 68 66 68 65 61 57 53 49 48 46 44 42 40 39 38 40 38 36 36 34 31 30 29 27 24 23 25 26 27 29 29 28
38 34 27 23 36 45 61 69 68 54 54 64 63 60 62 61 62 63 77 71 69 65 62 58 53 51 50 47 45 43 41 39 39 38 41 38 37 34 33 32 27 26 23 25 27 28 28 28 27
42 38 30 22 30 42 62 62 68 66 62 64 71 60 63 63 62 60 70 75 73 69 66 63 58 54 53 51 47 45 43 41 41 40 38 39 39 38 35 33 28 27 25 26 25 26 25 24 23
47 44 35 30 23 42 59 66 67 74 75 65 69 58 59 63 66 58 66 73 78 73 69 65 61 57 55 54 51 47 45 43 43 42 39 37 35 35 34 33 27 24 21 23 25 25 23 22 23
51 47 31 22 26 42 54 65 73 76 79 73 63 64 58 68 60 64 67 68 74 78 73 69 64 60 58 56 54 50 47 45 44 43 42 37 34 34 34 31 26 24 23 25 27 24 23 23 22
54 54 32 26 32 43 51 63 68 70 76 85 76 62 59 69 62 66 66 65 70 74 77 73 67 65 62 58 57 54 51 48 45 44 45 40 37 35 33 29 27 25 26 25 24 23 23 21 21
61 53 40 29 37 44 55 60 69 72 77 81 83 67 64 62 63 66 67 66 69 73 71 74 73 69 65 62 59 58 53 51 47 46 46 42 37 35 34 31 28 22 22 20 19 21 22 20 20
66 53 49 45 49 44 59 54 64 63 63 82 85 72 74 65 58 65 63 65 73 73 67 71 78 73 69 64 62 60 56 53 51 48 47 43 40 37 35 32 30 25 24 25 24 22 21 22 22
70 57 42 52 53 47 57 60 57 58 63 84 89 83 81 61 56 60 60 59 63 70 70 67 75 77 72 68 64 64 60 56 53 50 47 43 41 40 36 34 32 29 27 28 30 28 25 25 25
73 59 48 55 51 50 58 62 79 73 72 85 90 91 87 53 54 54 55 58 60 64 68 57 75 74 75 70 69 66 63 60 56 53 50 45 42 39 36 33 32 32 31 29 30 30 27 26 28
71 61 63 56 53 57 60 66 83 92 70 88 95 93 84 44 53 53 58 65 59 76 69 59 71 77 76 74 71 68 64 62 58 55 53 49 43 40 36 34 33 35 33 29 30 30 27 27 29
67 65 63 56 60 61 67 79 90 95 89 97 94 92 72 47 50 49 56 65 59 62 56 47 74 77 77 75 74 72 68 64 61 57 55 53 47 42 37 37 36 35 33 32 32 30 27 28 29
69 67 58 62 63 65 76 76 89 92 89 97 94 89 68 68 55 49 56 65 59 64 55 64 76 70 74 79 75 74 71 68 65 61 59 56 51 48 43 42 41 39 38 37 36 34 34 34 33
78 64 65 67 66 73 80 75 89 88 93 91 91 91 79 62 49 51 59 68 70 64 66 59 52 69 67 75 73 73 71 68 65 63 61 58 54 51 50 48 47 47 43 41 41 39 39 38 40
66 72 70 65 67 71 80 69 83 84 86 85 82 70 61 61 54 53 60 66 62 52 66 65 63 75 71 63 69 66 71 71 68 67 64 61 60 54 55 52 51 52 49 48 46 46 45 44 47
77 73 65 64 68 66 80 61 81 81 80 79 78 66 57 53 54 62 66 71 68 75 73 65 60 74 70 61 60 73 67 66 66 66 69 65 63 60 59 59 53 53 54 52 51 48 49 43 42
69 64 64 58 69 62 74 66 80 76 79 79 76 68 58 56 51 62 70 76 73 67 77 67 73 66 63 60 62 57 59 63 67 70 67 68 68 64 60 59 59 56 56 55 51 53 45 47 44
62 63 61 60 65 64 67 69 76 74 75 78 75 72 63 54 56 62 69 74 82 77 83 81 68 66 71 58 62 58 53 52 60 54 56 57 60 63 64 62 62 61 60 56 50 53 50 53 54
61 61 59 59 63 65 67 71 72 70 72 76 76 70 66 64 64 68 73 79 87 86 99 99 67 65 68 60 58 55 52 61 64 58 56 51 53 60 62 63 61 57 57 57 62 61 59 60 64
57 58 59 60 61 62 60 65 66 68 74 77 78 75 72 71 70 76 72 77 87 74 79 92 76 58 60 56 57 55 66 67 61 57 57 52 55 56 59 53 50 51 53 56 59 60 62 63 67
58 60 61 60 58 55 54 55 56 61 70 77 80 77 78 79 85 84 76 85 87 89 82 94 90 78 61 60 58 64 68 63 49 62 53 54 58 57 53 51 50 49 53 55 56 58 64 68 72
55 56 52 49 48 46 47 47 50 56 64 71 75 82 85 88 91 90 89 98 96 91 100 91 79 73 66 54 60 70 68 50 50 53 58 63 57 59 51 52 49 49 52 55 59 63 67 68 69
45 41 41 38 37 38 35 40 46 53 59 65 69 76 86 93 94 94 110 100 93 88 87 82 64 65 70 59 64 70 66 58 56 50 47 55 54 53 45 49 52 52 58 59 62 69 66 66 69
31 30 28 29 29 30 32 32 39 46 51 56 66 80 92 98 96 104 106 90 83 78 69 66 76 46 61 65 67 71 70 66 63 56 64 60 58 50 51 52 53 57 60 63 65 63 68 71 68
21 21 20 21 22 24 27 31 32 38 49 60 71 86 97 98 102 111 105 90 85 83 69 70 60 64 65 65 66 69 68 63 61 63 58 64 66 58 55 55 57 57 57 64 66 68 69 69 68
14 14 12 12 14 16 22 26 33 45 56 64 81 94 93 98 109 118 104 93 91 88 68 68 68 56 68 75 63 73 66 62 58 56 65 66 65 66 59 55 56 58 62 62 67 66 69 69 70
8 10 11 13 20 25 31 36 39 47 63 77 90 95 98 108 109 109 102 104 95 86 75 75 68 67 58 65 74 72 72 68 66 67 69 60 55 58 55 53 56 59 65 59 62 63 66 67 68
12 12 12 13 14 24 33 39 45 57 71 80 92 101 110 108 111 112 115 113 92 95 79 79 74 74 60 64 73 68 61 59 65 57 54 52 53 55 53 56 62 65 65 64 58 71 69 67 59
14 18 19 16 16 22 34 41 48 56 69 78 95 105 120 114 106 115 111 109 102 94 84 72 73 76 69 62 69 81 67 62 66 64 64 64 63 63 59 65 62 61 64 65 78 77 77 74 74
19 23 21 19 18 24 33 41 48 58 69 87 104 117 123 123 111 113 113 103 100 88 82 84 75 70 66 66 74 78 75 77 72 68 70 68 72 72 74 76 72 75 79 83 86 86 84 85 85